[[{"header":{"parameterUnit":"m.s-1","parameterCategory":1,"la1":31.0,"la2":29.5877,"lo1":-88.7671,"lo2":-86.6584,"dy":0.0162,"dx":0.0185,"nx":115,"ny":88,"refTime":"2023-06-14T06:00:00:Z","depth":0,"parameterNumber":2,"parameterNumberName":"U-component_of_WINDS"},"data":[0.0,0.0,0.0,0.0,0.0,0.0,0.0,0.0,0.0,0.0,0.0,0.0,0.0,0.0,0.0,0.0,0.0,0.0,0.0,0.0,0.0,0.0,0.0,0.0,0.0,0.0,0.0,0.0,0.0,0.0,0.0,0.0,0.0,0.0,0.0,0.0,0.0,0.0,0.0,0.0,0.0,0.0,0.0,0.0,0.0,0.0,0.0,0.0,0.0,0.0,0.0,0.0,0.0,0.0,0.0,0.0,0.0,0.0,0.0,0.0,0.0,0.0,0.0,0.0,0.0,0.0,0.0,0.0,0.0,0.0,0.0,0.0,0.0,0.0,0.0,0.0,0.0,0.0,0.0,0.0,0.0,0.0,0.0,0.0,0.0,0.0,0.0,0.0,0.0,0.0,0.0,0.0,0.0,0.0,0.0,0.0,0.0,0.0,0.0,0.0,0.0,0.0,0.0,0.0,0.0,0.0,0.0,0.0,0.0,0.0,0.0,0.0,0.0,0.0,0.0,0.0,0.0,0.0,0.0,0.0,0.0,0.0,0.0,0.0,0.0,0.0,0.0,0.0,0.0,0.0,0.0,0.0,0.0,0.0,0.0,0.0,0.0,0.0,0.0,0.0,0.0,0.0,0.0,0.0,0.0,0.0,0.0,0.0,0.0,0.0,0.0,0.0,0.0,0.0,0.0,0.0,0.0,0.0,0.0,0.0,0.0,0.0,0.0,0.0,0.0,0.0,0.0,0.0,0.0,0.0,0.0,0.0,0.0,0.0,0.0,0.0,0.0,0.0,0.0,0.0,0.0,0.0,0.0,0.0,0.0,0.0,0.0,0.0,0.0,0.0,0.0,0.0,0.0,0.0,0.0,0.0,0.0,0.0,0.0,0.0,0.0,0.0,0.0,0.0,0.0,0.0,0.0,0.0,0.0,0.0,0.0,0.0,0.0,0.0,0.0,0.0,0.0,0.0,0.0,0.0,0.0,0.0,0.0,0.0,0.0,0.0,0.0,0.0,0.0,0.0,0.0,0.0,0.0,0.0,0.0,0.0,0.0,0.0,0.0,0.0,0.0,0.0,0.0,0.0,0.0,0.0,0.0,0.0,0.0,0.0,0.0,0.0,0.0,0.0,0.0,0.0,0.0,0.0,0.0,0.0,0.0,0.0,0.0,0.0,0.0,0.0,0.0,0.0,0.0,0.0,0.0,0.0,0.0,0.0,0.0,0.0,0.0,0.0,0.0,0.0,0.0,0.0,0.0,0.0,0.0,0.0,0.0,0.0,0.0,0.0,0.0,0.0,0.0,0.0,0.0,0.0,0.0,0.0,0.0,0.0,0.0,0.0,0.0,0.0,0.0,0.0,0.0,0.0,0.0,0.0,0.0,0.0,0.0,0.0,0.0,0.0,0.0,0.0,0.0,0.0,0.0,0.0,0.0,0.0,0.0,0.0,0.0,0.0,0.0,0.0,0.0,0.0,0.0,0.0,0.0,0.0,0.0,0.0,0.0,0.0,0.0,0.0,0.0,0.0,0.0,0.0,0.0,0.0,0.0,0.0,0.0,0.0,0.0,0.0,0.0,0.0,0.0,0.0,0.0,0.0,0.0,0.0,0.0,0.0,0.0,0.0,0.0,0.0,0.0,0.0,0.0,0.0,0.0,0.0,0.0,0.0,0.0,0.0,0.0,0.0,0.0,0.0,0.0,0.0,0.0,0.0,0.0,0.0,0.0,0.0,0.0,0.0,0.0,0.0,0.0,0.0,0.0,0.0,0.0,0.0,0.0,0.0,0.0,0.0,0.0,0.0,0.0,0.0,0.0,0.0,0.0,0.0,0.0,0.0,0.0,0.0,0.0,0.0,0.0,0.0,0.0,0.0,0.0,0.0,0.0,0.0,0.0,0.0,0.0,0.0,0.0,0.0,0.0,0.0,0.0,0.0,0.0,0.0,0.0,0.0,0.0,0.0,0.0,0.0,0.0,0.0,0.0,0.0,0.0,0.0,0.0,0.0,0.0,0.0,0.0,0.0,0.0,0.0,0.0,0.0,0.0,0.0,0.0,0.0,0.0,0.0,0.0,0.0,0.0,0.0,0.0,0.0,0.0,0.0,0.0,0.0,0.0,0.0,0.0,0.0,0.0,0.0,0.0,0.0,0.0,0.0,0.0,0.0,0.0,0.0,0.0,0.0,0.0,0.0,0.0,0.0,0.0,0.0,0.0,0.0,0.0,0.0,0.0,0.0,0.0,0.0,0.0,0.0,0.0,0.0,0.0,0.0,0.0,0.0,0.0,0.0,0.0,0.0,0.0,0.0,0.0,0.0,0.0,0.0,0.0,0.0,0.0,0.0,0.0,0.0,0.0,0.0,0.0,0.0,0.0,0.0,0.0,0.0,0.0,0.0,0.0,0.0,0.0,0.0,0.0,0.0,0.0,0.0,0.0,0.0,0.0,0.0,0.0,0.0,0.0,0.0,0.0,0.0,0.0,0.0,0.0,0.0,0.0,0.0,0.0,0.0,0.0,0.0,0.0,0.0,0.0,0.0,0.0,0.0,0.0,0.0,0.0,0.0,0.0,0.0,0.0,0.0,0.0,0.0,0.0,0.0,0.0,0.0,0.0,0.0,0.0,0.0,0.0,0.0,0.0,0.0,0.0,0.0,0.0,0.0,0.0,0.0,0.0,0.0,0.0,0.0,0.0,0.0,0.0,0.0,0.0,0.0,0.0,0.0,0.0,0.0,0.0,0.0,0.0,0.0,0.0,0.0,0.0,0.0,0.0,0.0,0.0,0.0,0.0,0.0,0.0,0.0,0.0,0.0,0.0,0.0,0.0,0.0,0.0,0.0,0.0,0.0,0.0,0.0,0.0,0.0,0.0,0.0,0.0,0.0,0.0,0.0,0.0,0.0,0.0,0.0,0.0,0.0,0.0,0.0,0.0,0.0,0.0,0.0,0.0,0.0,0.0,0.0,0.0,0.0,0.0,0.0,0.0,0.0,0.0,0.0,0.0,0.0,0.0,0.0,0.0,0.0,0.0,0.0,0.0,0.0,0.0,0.0,0.0,0.0,0.0,0.0,0.0,0.0,0.0,0.0,0.0,0.0,0.0,0.0,0.0,0.0,0.0,0.0,0.0,0.0,0.0,0.0,0.0,0.0,0.0,0.0,0.0,0.0,0.0,0.0,0.0,0.0,0.0,0.0,0.0,0.0,0.0,0.0,0.0,0.0,0.0,0.0,0.0,0.0,0.0,0.0,0.0,0.0,0.0,0.0,0.0,0.0,0.0,0.0,0.0,0.0,0.0,0.0,0.0,0.0,0.0,0.0,0.0,0.0,0.0,0.0,0.0,0.0,0.0,0.0,0.0,0.0,0.0,0.0,0.0,0.0,0.0,0.0,0.0,0.0,0.0,0.0,0.0,0.0,0.0,0.0,0.0,0.0,0.0,0.0,0.0,0.0,0.0,0.0,0.0,0.0,0.0,0.0,0.0,0.0,0.0,0.0,0.0,0.0,0.0,0.0,0.0,0.0,0.0,0.0,0.0,0.0,0.0,0.0,0.0,0.0,0.0,0.0,0.0,0.0,0.0,0.0,0.0,0.0,0.0,0.0,0.0,0.0,0.0,0.0,0.0,0.0,0.0,0.0,0.0,0.0,0.0,0.0,0.0,0.0,0.0,0.0,0.0,0.0,0.0,0.0,0.0,0.0,0.0,0.0,0.0,0.0,0.0,0.0,0.0,0.0,0.0,0.0,0.0,0.0,0.0,0.0,0.0,0.0,0.0,0.0,0.0,0.0,0.0,0.0,0.0,0.0,0.0,0.0,0.0,0.0,0.0,0.0,0.0,0.0,0.0,0.0,0.0,0.0,0.0,0.0,0.0,0.0,0.0,0.0,0.0,0.0,0.0,0.0,0.0,0.0,0.0,0.0,0.0,0.0,0.0,0.0,0.0,0.0,0.0,0.0,0.0,0.0,0.0,0.0,0.0,0.0,0.0,0.0,0.0,0.0,0.0,0.0,0.0,0.0,0.0,0.0,0.0,0.0,0.0,0.0,0.0,0.0,0.0,0.0,0.0,0.0,0.0,0.0,0.0,0.0,0.0,0.0,0.0,0.0,0.0,0.0,0.0,0.0,0.0,0.0,0.0,0.0,0.0,0.0,0.0,0.0,0.0,0.0,0.0,0.0,0.0,0.0,0.0,0.0,0.0,0.0,0.0,0.0,0.0,0.0,0.0,0.0,0.0,0.0,0.0,0.0,0.0,0.0,0.0,0.0,0.0,0.0,0.0,0.0,0.095,0.0,0.0,0.0,0.0,0.0,0.0,0.0,0.0,0.0,0.0,0.0,0.0,0.0,0.0,0.0,0.0,0.0,0.0,0.0,0.0,0.0,0.0,0.0,0.0,0.0,0.0,0.0,0.0,0.0,0.0,0.0,0.0,0.0,0.0,0.0,0.0,0.0,0.0,0.0,0.0,0.0,0.0,0.0,0.0,0.0,0.0,0.0,0.0,0.0,0.0,0.0,0.0,0.0,0.0,0.0,0.0,0.0,0.0,0.0,0.0,0.0,0.0,0.0,0.0,0.0,0.0,0.0,0.0,0.0,0.0,0.0,0.0,0.0,0.0,0.0,0.0,0.0,0.0,0.0,0.0,0.0,0.0,0.0,0.0,0.0,0.0,0.0,0.0,0.0,0.0,0.0,0.0,0.0,0.0,0.0,0.0,0.0,0.0,0.0,0.0,0.0,0.0,0.0,0.0,0.0,0.0,0.0,0.0,0.0,0.0,0.077,0.0859,0.0835,0.0934,0.1064,0.0,0.0,0.0,0.0,0.0,0.0,0.0,0.0,0.0,0.0,0.0,0.0,0.0,0.0,0.0,0.0,0.0,0.0,0.0,0.0,0.0,0.0,0.0,0.0,0.0,0.0,0.0,0.0,0.0,0.0,0.0,0.0,0.0,0.0,0.0,0.0,0.0,0.0,0.0,0.0,0.0,0.0,0.0,0.0,0.0,0.0,0.0,0.0,0.0,0.0,0.0,0.0,0.0,0.0,0.0,0.0,0.0,0.0,0.0,0.0,0.0,0.0,0.0,0.0,0.0,0.0,0.0,0.0,0.0,0.0,0.0,0.0,0.0,0.0,0.0,0.0,0.0,0.0,0.0,0.0,0.0,0.0,0.0,0.0,0.0,0.0,0.0,0.0,0.0,0.0,0.0,0.0,0.0,0.0,0.0,0.0,0.0,0.0,0.0,0.0,0.0,0.0,0.0,0.0,0.0,0.0,0.0,0.0,0.0,0.0,0.0,0.0,0.0826,0.0923,0.1099,0.0,0.0,0.0,0.0,0.0,0.0,0.0,0.0,0.0,0.0,0.0,0.0,0.0,0.0,0.0,0.0,0.0,0.0,0.0,0.0,0.0,0.0,0.0,0.0,0.0,0.0,0.0,0.0,0.0,0.0,0.0,0.0,0.0,0.0,0.0,0.0,0.0,0.0,0.0,0.0,0.0,0.0,0.0,0.0,0.0,0.0,0.0,0.0,0.0,0.0,0.0,0.0,0.0,0.0,0.0,0.0,0.0,0.0,0.0,0.0,0.0,0.0,0.0,0.0,0.0,0.0,0.0,0.0,0.0,0.0,0.0,0.0,0.0,0.0,0.0,0.0,0.0,0.0,0.0,0.0,0.0,0.0,0.0,0.0,0.0,0.0,0.0,0.0,0.0,0.0,0.0,0.0,0.0,0.0,0.0,0.0,0.0,0.0,0.0,0.0,0.0,0.0,0.0,0.0,0.0,0.0,0.0,0.0,0.0,0.0,0.0853,0.0716,0.0845,0.0,0.083,0.0,0.0,0.0,0.0,0.0,0.0,0.0,0.0,0.0,0.0,0.0,0.0,0.0,0.0,0.0,0.0,0.0,0.0,0.0,0.0,0.0,0.0,0.0,0.0,0.0,0.0,0.0,0.0,0.0,0.0,0.0,0.0,0.0,0.0,0.0,0.0,0.0,0.0,0.0,0.0,0.0,0.0,0.0,0.0,0.0,0.0,0.0,0.0,0.0,0.0,0.0,0.0,0.0,0.0,0.0,0.0,0.0,0.0,0.0,0.0,0.0,0.0,0.0,0.0,0.0,0.0,0.0,0.0,0.0,0.0,0.0,0.0,0.0,0.0,0.0,0.0,0.0,0.0,0.0,0.0,0.0,0.0,0.0,0.0,0.0,0.0,0.0,0.0,0.0,0.0,0.0,0.0,0.0,0.0,0.0,0.0,0.0,0.0,0.0,0.0,0.0,0.0,0.0,0.0,0.0,0.0,0.0,0.0,0.0,0.0,0.0845,0.0824,0.0952,0.101,0.0,0.0,0.0,0.0,0.0,0.0,0.0,0.0,0.0,0.0,0.0,0.0,0.0,0.0,0.0,0.0,0.0,0.0,0.0,0.0,0.0,0.0,0.0,0.0,0.0,0.0,0.0,0.0,0.0,0.0,0.0,0.0,0.0,0.0,0.0,0.0,0.0,0.0,0.0,0.0,0.0,0.0,0.0,0.0,0.0,0.0,0.0,0.0,0.0,0.0,0.0,0.0,0.0,0.0,0.0,0.0,0.0,0.0,0.0,0.0,0.0,0.0,0.0,0.0,0.0,0.0,0.0,0.0,0.0,0.0,0.0,0.0,0.0,0.0,0.0,0.0,0.0,0.0,0.0,0.0,0.0,0.0,0.0,0.0,0.0,0.0,0.0,0.0,0.0,0.0,0.0,0.0,0.0,0.0,0.0,0.0,0.0,0.0,0.0,0.0,0.0,0.0,0.0,0.0,0.0,0.0,0.0,0.0,0.0,0.0,0.0623,0.0709,0.073,0.0806,0.083,0.0762,0.0,0.0,0.0,0.0,0.0,0.0,0.0,0.0,0.0,0.0,0.0,0.0,0.0,0.0,0.0,0.0,0.0,0.0,0.0,0.0,0.0,0.0,0.0,0.0,0.0,0.0,0.0,0.0,0.0,0.0,0.0,0.0,0.0,0.0,0.0,0.0,0.0,0.0,0.0,0.0,0.0,0.0,0.0,0.0,0.0,0.0,0.0,0.0,0.0,0.0,0.0,0.0,0.0,0.0,0.0,0.0,0.0,0.0,0.0,0.0,0.0,0.0,0.0,0.0,0.0,0.0,0.0,0.0,0.0,0.0,0.0,0.0,0.0,0.0,0.0,0.0,0.0,0.0,0.0,0.0,0.0,0.0,0.0,0.0,0.0,0.0,0.0,0.0,0.0,0.0,0.0,0.0,0.0,0.0,0.0,0.0,0.0,0.0,0.0,0.0,0.0,0.0,0.0,0.0,0.0,0.0,0.0,0.0,-0.0331,0.0229,0.0404,0.0268,0.0258,0.021,0.0,0.0,0.0,0.0,0.0,0.0,0.0,0.0,0.0,0.0,0.0,0.0,0.0,0.0,0.0,0.0,0.0,0.0,0.0,0.0,0.0,0.0,0.0,0.0,0.0,0.0,0.0,0.0,0.0,0.0,0.0,0.0,0.0,0.0,0.0,0.0,0.0,0.0,0.0,0.0,0.0,0.0,0.0,0.0,0.0,0.0,0.0,0.0,0.0,0.0,0.0,0.0,0.0,0.0,0.0,0.0,0.0,0.0,0.0,0.0,0.0,0.0,0.0,0.0,0.0,0.0,0.0,0.0,0.0,0.0,0.0,0.0,0.0,0.0,0.0,0.0,0.0,0.0,0.0,0.0,0.0,0.0,0.0,0.0,0.0,0.0,0.0,0.0,0.0,0.0,0.0,0.0,0.0,0.0,0.0,0.0,0.0,0.0,0.0,0.0,0.0,0.0,0.0,0.0,0.0,0.0,0.0,0.0,0.0,-0.0138,0.0362,0.054,0.0314,-0.0133,-0.0263,0.0,0.0,0.0,0.0,0.0,0.0,0.0,0.0,0.0,0.0,0.0,0.0,0.0,0.0,0.0,0.0,0.0,0.0,0.0,0.0,0.0,0.0,0.0,0.0,0.0,0.0,0.0,0.0,0.0,0.0,0.0,0.0,0.0,0.0,0.0,0.0,0.0,0.0,0.0,0.0,0.0,0.0,0.0,0.0,0.0,0.0,0.0,0.0,0.0,0.0,0.0,0.0,0.0,0.0,0.0,0.0,0.0,0.0,0.0,0.0,0.0,0.0,0.0,0.0,0.0,0.0,0.0,0.0,0.0,0.0,0.0,0.0,0.0,0.0,0.0,0.0,0.0,0.0,0.0,0.0,0.0,0.0,0.0,0.0,0.0,0.0,0.0,0.0,0.0,0.0,0.0,0.0,0.0,0.0,0.0,0.0,0.0,0.0,0.0,0.0,0.0,0.0,0.0,0.0,0.0,0.0,0.0,0.0,0.0,-0.0135,0.0,0.0314,0.0269,-0.0222,-0.0397,0.0,0.0,0.0,0.0,0.0,0.0,0.0,0.0,0.0,0.0,0.0,0.0,0.0,0.0,0.0,0.0,0.0,0.0,0.0,0.0,0.0,0.0,0.0,0.0,0.0,0.0,0.0,0.0,0.0,0.0,0.0,0.0,0.0,0.0,0.0,0.0,0.0,0.0,0.0,0.0,0.0,0.0,0.0,0.0,0.0,0.0,0.0,0.0,0.0,0.0,0.0,0.0,0.0,0.0,0.0,0.0,0.0,0.0,0.0,0.0,0.0,0.0,0.0,0.0,0.0,0.0,0.0,0.0,0.0,0.0,0.0,0.0,0.0,0.0,0.0,0.0,0.0,0.0,0.0,0.0,0.0,0.0,0.0,0.0,0.0,0.0,0.0,0.0,0.0,0.0,0.0,0.0,0.0,0.0,0.0,0.0,0.0,0.0,0.0,0.0,0.0,0.0,0.0,0.0,0.0,0.0,0.0,0.0,-0.0655,-0.0406,-0.0359,-0.0225,-0.0045,-0.0043,-0.0254,0.0,0.0,0.0,0.0,0.0,0.0,0.0,0.0,0.0,0.0,0.0,0.0,0.0,0.0,0.0,0.0,0.0,0.0,0.0,0.0,0.0,0.0,0.0,0.0,0.0,0.0,0.0,0.0,0.0,0.0,0.0,0.0,0.0,0.0,0.0,0.0,0.0,0.0,0.0,0.0,0.0,0.0,0.0,0.0,0.0,0.0,0.0,0.0,0.0,0.0,0.0,0.0,0.0,0.0,0.0,0.0,0.0,0.0,0.0,0.0,0.0,0.0,0.0,0.0,0.0,0.0,0.0,0.0,0.0,0.0,0.0,0.0,0.0,0.0,0.0,0.0,0.0,0.0,0.0,0.0,0.0,0.0,0.0,0.0,0.0,0.0,0.0,0.0,0.0,0.0,0.0,0.0,0.0,0.0,0.0,0.0,0.0,0.0,0.0,0.0,0.0,0.0,0.0,0.0,0.0,0.0,0.0,0.0,0.0,-0.0585,0.0045,0.0046,-0.0561,-0.0451,-0.0491,0.0,0.0,0.0,0.0,0.0,0.0,0.0,0.0,0.0,0.0,0.0,0.0,0.0,0.0,0.0,0.0,0.0,0.0,0.0,0.0,0.0,0.0,0.0,0.0,0.0,0.0,0.0,0.0,0.0,0.0,0.0,0.0,0.0,0.0,0.0,0.0,0.0,0.0,0.0,0.0,0.0,0.0,0.0,0.0,0.0,0.0,0.0,0.0,0.0,0.0,0.0,0.0,0.0,0.0,0.0,0.0,0.0,0.0,0.0,0.0,0.0,0.0,0.0,0.0,0.0,0.0,0.0,0.0,0.0,0.0,0.0,0.0,0.0,0.0,0.0,0.0,0.0,0.0,0.0,0.0,0.0,0.0,0.0,0.0,0.0,0.0,0.0,0.0,0.0,0.0,0.0,0.0,0.0,0.0,0.0,0.0,0.0,0.0,0.0,0.0,0.0,0.0,0.0,0.0,0.0,0.0,0.0,0.0,0.0,-0.0883,-0.029,-0.0146,-0.0547,-0.0672,-0.0744,-0.0822,0.0,0.0,0.0,0.0,0.0,0.0,0.0,0.0,0.0,0.0,0.0,0.0,0.0,0.0,0.0,0.0,0.0,0.0,0.0,0.0,0.0,0.0,0.0,0.0,0.0,0.0,0.0,0.0,0.0,0.0,0.0,0.0,0.0,0.0,0.0,0.0,0.0,0.0,0.0,0.0,0.0,0.0,0.0,0.0,0.0,0.0,0.0,0.0,0.0,0.0,0.0,0.0,0.0,0.0,0.0,0.0,0.0,0.0,0.0,0.0,0.0,0.0,0.0,0.0,0.0,0.0,0.0,0.0,0.0,0.0,0.0,0.0,0.0,0.0,0.0,0.0,0.0,0.0,0.0,0.0,0.0,0.0,0.0,0.0,0.0,0.0,0.0,0.0,0.0,0.0,0.0,0.0,0.0,0.0,0.0,0.0,0.0,0.0,0.0,0.0,0.0,0.0,0.0,0.0,0.0,0.0,0.0,0.0,-0.1252,-0.1165,-0.0818,-0.0162,-0.0832,-0.1063,0.0,0.0,0.0,0.0,0.0,0.0,0.0,0.0,0.0,0.0,0.0,0.0,0.0,0.0,0.0,0.0,0.0,0.0,0.0,0.0,0.0,0.0,0.0,0.0,0.0,0.0,0.0,0.0,0.0,0.0,0.0,0.0,0.0,0.0,0.0,0.0,0.0,0.0,0.0,0.0,0.0,0.0,0.0,0.0,0.0,0.0,0.0,0.0,0.0,0.0,0.0,0.0,0.0,0.0,0.0,0.0,0.0,0.0,0.0,0.0,0.0,0.0,0.0,0.0,0.0,0.0,0.0,0.0,0.0,0.0,0.0,0.0,0.0,0.0,0.0,0.0,0.0,0.0,0.0,0.0,0.0,0.0,0.0,0.0,0.0,0.0,0.0,0.0,0.0,0.0,0.0,0.0,0.0,0.0,0.0,0.0,0.0,0.0,0.0,0.0,0.0,0.0,0.0,0.0,0.0,0.0,0.0,0.0,0.0,-0.1588,-0.1541,-0.1524,-0.1529,-0.1386,-0.1296,0.0,0.0,0.0,0.0,0.0,0.0,0.0,0.0,0.0,0.0,0.0,0.0,0.0,0.0,0.0,0.0,0.0,0.0,0.0,0.0,0.0,0.0,0.0,0.0,0.0,0.0,0.0,0.0,0.0,0.0,0.0,0.0,0.0,0.0,0.0,0.0,0.0,0.0,0.0,0.0,0.0,0.0,0.0,0.0,0.0,0.0,0.0,0.0,0.0,0.0,0.0,0.0,0.0,0.0,0.0,0.0,0.0,0.0,0.0,0.0,0.0,0.0,0.0,0.0,0.0,0.0,0.0,0.0,0.0,0.0,0.0,0.0,0.0,0.0,0.0,0.0,0.0,0.0,0.0,0.0,0.0,0.0,0.0,0.0,0.0,0.0,0.0,0.0,0.0,0.0,0.0,0.0,0.0,0.0,0.0,0.0,0.0,0.0,0.0,0.0,0.0,0.0,0.0,0.0,0.0,0.0,0.0,0.0,-0.1887,-0.1925,-0.2157,-0.2306,-0.2493,-0.1847,-0.1472,0.0,0.0,0.0,0.0,0.0,0.0,0.0,0.0,0.0,0.0,0.0,0.0,0.0,0.0,0.0,0.0,0.0,0.0,0.0,0.0,0.0,0.0,0.0,0.0,0.0,0.0,0.0,0.0,0.0,0.0,0.0,0.0,0.0,0.0,0.0,0.0,0.0,0.0,0.0,0.0,0.0,0.0,0.0,0.0,0.0,0.0,0.0,0.0,0.0,0.0,0.0,0.0,0.0,0.0,0.0,0.0,0.0,0.0,0.0,0.0,0.0,0.0,0.0,0.0,0.0,0.0,0.0,0.0,0.0,0.0,0.0,0.0,0.0,0.0,0.0,0.0,0.0,0.0,0.0,0.0,0.0,0.0,0.0,0.0,0.0,0.0,0.0,0.0,0.0,0.0,0.0,0.0,0.0,0.0,0.0,0.0,0.0,0.0,0.0,0.0,0.0,0.0,0.0,0.0,0.0,0.0,0.0,0.0,-0.244,-0.2235,-0.2685,-0.2976,-0.2965,-0.2159,-0.1654,0.0,0.0,0.0,0.0,0.0,0.0,0.0,0.0,0.0,0.0,0.0,0.0,0.0,0.0,0.0,0.0,0.0,0.0,0.0,0.0,0.0,0.0,0.0,0.0,0.0,0.0,0.0,0.0,0.0,0.0,0.0,0.0,0.0,0.0,0.0,0.0,0.0,0.0,0.0,0.0,0.0,0.0,0.0,0.0,0.0,0.0,0.0,0.0,0.0,0.0,0.0,0.0,0.0,0.0,0.0,0.0,0.0,0.0,0.0,0.0,0.0,0.0,0.0,0.0,0.0,0.0,0.0,0.0,0.0,0.0,0.0,0.0,0.0,0.0,0.0,0.0,0.0,0.0,0.0,0.0,0.0,0.0,0.0,0.0,0.0,0.0,0.0,0.0,0.0,0.0,0.0,0.0,0.0,0.0,0.0,0.0,0.0,0.0,0.0,0.0,0.0,0.0,0.0,0.0,0.0,0.0,0.0,0.0,-0.2509,-0.26,-0.2587,-0.2518,-0.2516,-0.2356,-0.2281,0.0,0.0,0.0,0.0,0.0,0.0,0.0,0.0,0.0,0.0,0.0,0.0,0.0,0.0,0.0,0.0,0.0,0.0,0.0,0.0,0.0,0.0,0.0,0.0,0.0,0.0,0.0,0.0,0.0,0.0,0.0,0.0,0.0,0.0,0.0,0.0,0.0,0.0,0.0,0.0,0.0,0.0,0.0,0.0,0.0,0.0,0.0,0.0,-0.157,0.0,0.0,0.0,0.0,0.0,0.0,0.0,0.0,0.0,0.0,0.0,0.0,0.0,0.0,0.0,0.0,0.0,0.0,0.0,0.0,0.0,0.0,0.0,0.0,0.0,0.0,0.0,0.0,0.0,0.0,0.0,0.0,0.0,0.0,0.0,0.0,0.0,0.0,0.0,0.0,0.0,0.0,0.0,0.0,0.0,0.0,0.0,0.0,0.0,0.0,0.0,0.0,0.0,0.0,0.0,0.0,0.0,0.0,0.0,-0.2613,-0.2779,-0.2734,-0.2757,-0.2769,-0.2679,-0.2554,0.0,0.0,0.0,0.0,0.0,0.0,0.0,0.0,0.0,0.0,0.0,0.0,0.0,0.0,0.0,0.0,0.0,0.0,0.0,0.0,0.0,0.0,0.0,0.0,0.0,0.0,0.0,0.0,0.0,0.0,0.0,0.0,0.0,0.0,0.0,0.0,0.0,0.0,0.0,0.0,0.0,0.0,0.0,0.0,0.0,0.0,0.0,0.0,0.0,0.0,0.0,0.0,0.0,0.0,0.0,0.0,0.0,0.0,0.0,0.0,0.0,0.0,0.0,0.0,0.0,0.0,0.0,0.0,0.0,0.0,0.0,0.0,0.0,0.0,0.0,0.0,0.0,0.0,0.0,0.0,0.0,0.0,0.0,0.0,0.0,0.0,0.0,0.0,0.0,0.0,0.0,0.0,0.0,0.0,0.0,0.0,0.0,0.0,0.0,0.0,0.0,0.0,0.0,0.0,0.0,0.0,0.0,-0.2691,-0.2873,-0.2922,-0.3046,-0.3177,-0.3224,-0.2948,-0.26,-0.2218,0.0,0.0,0.0,0.0,0.0,0.0,0.0,0.0,0.0,0.0,0.0,0.0,0.0,0.0,0.0,0.0,0.0,0.0,0.0,0.0,0.0,0.0,0.0,0.0,0.0,0.0,0.0,0.0,0.0,0.0,0.0,0.0,0.0,0.0,0.0,0.0,0.0,0.0,-0.1491,-0.1237,0.0,0.0,0.0,0.0,0.0,0.0,0.0,0.0,-0.2463,0.0,0.0,0.0,0.0,0.0,0.0,0.0,0.0,0.0,0.0,0.0,0.0,0.0,0.0,0.0,0.0,0.0,0.0,0.0,0.0,0.0,0.0,0.0,0.0,0.0,0.0,0.0,0.0,0.0,0.0,0.0,0.0,0.0,0.0,0.0,0.0,0.0,0.0,0.0,0.0,0.0,0.0,0.0,0.0,0.0,0.0,0.0,0.0,0.0,0.0,0.0,0.0,0.0,0.0,0.0,0.0,-0.2968,-0.317,-0.3346,-0.3361,-0.3268,-0.3221,-0.3224,-0.2989,-0.2747,-0.2423,0.0,0.0,0.0,0.0,0.0,0.0,0.0,0.0,0.0,0.0,0.0,0.0,0.0,0.0,0.0,0.0,0.0,0.0,0.0,0.0,0.0,0.0,0.0,0.0,0.0,0.0,0.0,0.0,0.0,0.0,0.0,0.0,0.0,0.0,0.0,0.0,0.0,0.0,0.0,-0.1499,-0.1666,0.0,0.0,0.0,0.0,0.0,0.0,0.0,0.0,-0.2888,0.0,0.0,0.0,0.0,0.0,0.0,0.0,0.0,0.0,0.0,0.0,0.0,0.0,0.0,0.0,0.0,0.0,0.0,0.0,0.0,0.0,0.0,0.0,0.0,0.0,0.0,0.0,0.0,0.0,0.0,0.0,0.0,0.0,0.0,0.0,0.0,0.0,0.0,0.0,0.0,0.0,0.0,0.0,0.0,0.0,0.0,0.0,0.0,0.0,0.0,0.0,0.0,0.0,0.0,0.0,-0.3193,-0.317,-0.3228,-0.3274,-0.3153,-0.3169,-0.3134,-0.2965,-0.2846,0.0,0.0,0.0,0.0,0.0,0.0,0.0,0.0,0.0,0.0,0.0,0.0,0.0,0.0,0.0,0.0,0.0,0.0,0.0,0.0,0.0,0.0,0.0,0.0,0.0,0.0,0.0,0.0,0.0,0.0,0.0,0.0,0.0,0.0,0.0,0.0,0.0,0.0,0.0,0.0,-0.1862,-0.1871,-0.2114,0.0,0.0,0.0,0.0,0.0,0.0,-0.2956,-0.2931,0.0,0.0,0.0,0.0,0.0,0.0,0.0,0.0,0.0,0.0,0.0,0.0,0.0,0.0,0.0,0.0,0.0,0.0,0.0,0.0,0.0,0.0,0.0,0.0,0.0,0.0,0.0,0.0,0.0,0.0,0.0,0.0,0.0,0.0,0.0,0.0,0.0,0.0,0.0,0.0,0.0,0.0,0.0,0.0,0.0,0.0,0.0,0.0,0.0,0.0,0.0,0.0,0.0,0.0,0.0,-0.3385,-0.3323,-0.3288,-0.3265,-0.3231,-0.3226,-0.3161,-0.3009,-0.2906,0.0,0.0,0.0,0.0,0.0,0.0,0.0,0.0,0.0,0.0,0.0,0.0,0.0,0.0,0.0,0.0,0.0,0.0,0.0,0.0,0.0,0.0,0.0,0.0,0.0,0.0,0.0,0.0,0.0,0.0,0.0,0.0,0.0,0.0,0.0,0.0,0.0,0.0,0.0,0.0,0.0,-0.2173,-0.2193,-0.2302,0.0,0.0,0.0,0.0,-0.3138,-0.3006,0.0,0.0,0.0,0.0,0.0,0.0,0.0,0.0,0.0,0.0,0.0,0.0,0.0,0.0,0.0,0.0,0.0,0.0,0.0,0.0,0.0,0.0,0.0,0.0,0.0,0.0,0.0,0.0,0.0,0.0,0.0,0.0,0.0,0.0,0.0,0.0,0.0,0.0,0.0,0.0,0.0,0.0,0.0,0.0,0.0,0.0,0.0,0.0,0.0,0.0,0.0,0.0,0.0,0.0,0.0,0.0,-0.3794,-0.3964,-0.3981,-0.3891,-0.3717,-0.3492,-0.3421,-0.3129,-0.2814,0.0,0.0,0.0,0.0,0.0,0.0,0.0,0.0,0.0,0.0,0.0,0.0,0.0,0.0,0.0,0.0,0.0,0.0,0.0,0.0,0.0,0.0,0.0,0.0,0.0,0.0,0.0,0.0,0.0,0.0,0.0,0.0,0.0,0.0,0.0,0.0,0.0,0.0,0.0,0.0,0.0,-0.2613,-0.2588,-0.2954,-0.3353,0.0,0.0,-0.3364,-0.3234,-0.3074,0.0,0.0,0.0,0.0,0.0,0.0,0.0,0.0,0.0,0.0,0.0,0.0,0.0,0.0,0.0,0.0,0.0,0.0,0.0,0.0,0.0,0.0,0.0,0.0,0.0,0.0,0.0,0.0,0.0,0.0,0.0,0.0,0.0,0.0,0.0,0.0,0.0,0.0,0.0,0.0,0.0,0.0,0.0,0.0,0.0,0.0,0.0,0.0,0.0,0.0,0.0,0.0,0.0,0.0,0.0,-0.4422,-0.4376,-0.4446,-0.4451,-0.435,-0.4267,-0.4204,-0.4084,-0.3692,-0.3374,0.0,0.0,0.0,0.0,0.0,0.0,0.0,0.0,0.0,0.0,0.0,0.0,0.0,0.0,0.0,0.0,0.0,0.0,0.0,0.0,0.0,0.0,0.0,0.0,0.0,0.0,0.0,0.0,0.0,0.0,0.0,0.0,0.0,0.0,0.0,0.0,0.0,0.0,0.0,0.0,0.0,0.0,-0.2828,-0.3121,0.0,0.0,0.0,-0.3366,-0.3472,0.0,0.0,0.0,0.0,0.0,0.0,0.0,0.0,0.0,0.0,0.0,0.0,0.0,0.0,0.0,0.0,0.0,0.0,0.0,0.0,0.0,0.0,0.0,0.0,0.0,0.0,0.0,0.0,0.0,0.0,0.0,0.0,0.0,0.0,0.0,0.0,0.0,0.0,0.0,0.0,0.0,0.0,0.0,0.0,0.0,0.0,0.0,0.0,0.0,0.0,0.0,0.0,0.0,0.0,0.0,0.0,0.0,-0.5063,-0.5058,-0.5134,-0.521,-0.5125,-0.4949,-0.4877,-0.4418,0.0,0.0,0.0,0.0,0.0,0.0,0.0,0.0,0.0,0.0,0.0,0.0,0.0,0.0,0.0,0.0,0.0,0.0,0.0,0.0,0.0,0.0,0.0,0.0,0.0,0.0,0.0,-0.3607,0.0,0.0,0.0,0.0,0.0,0.0,0.0,0.0,0.0,0.0,0.0,0.0,0.0,0.0,-0.2953,-0.2977,-0.3181,-0.332,0.0,0.0,-0.3387,-0.3598,-0.3371,-0.3203,0.0,0.0,0.0,0.0,0.0,0.0,0.0,0.0,0.0,0.0,0.0,0.0,0.0,0.0,0.0,0.0,0.0,0.0,0.0,0.0,0.0,0.0,0.0,0.0,0.0,0.0,0.0,0.0,0.0,0.0,0.0,0.0,0.0,0.0,0.0,0.0,0.0,0.0,0.0,0.0,0.0,0.0,0.0,0.0,0.0,0.0,0.0,0.0,0.0,0.0,0.0,0.0,0.0,0.0,-0.5618,-0.5792,-0.615,-0.6362,-0.6603,-0.6126,-0.5877,-0.5848,-0.5339,-0.4889,0.0,0.0,0.0,0.0,0.0,0.0,0.0,0.0,0.0,0.0,0.0,0.0,0.0,0.0,0.0,0.0,0.0,0.0,0.0,0.0,0.0,0.0,0.0,0.0,0.0,0.0,0.0,0.0,0.0,0.0,0.0,0.0,0.0,0.0,0.0,0.0,0.0,0.0,0.0,0.0,0.0,-0.3554,-0.3129,-0.3474,-0.3652,0.0,-0.3565,-0.3721,-0.3339,-0.3193,-0.3136,-0.3432,0.0,0.0,0.0,0.0,0.0,0.0,0.0,0.0,0.0,0.0,0.0,0.0,0.0,0.0,0.0,0.0,0.0,0.0,0.0,0.0,0.0,0.0,0.0,0.0,0.0,0.0,0.0,0.0,0.0,0.0,0.0,0.0,0.0,0.0,0.0,0.0,0.0,0.0,0.0,0.0,0.0,0.0,0.0,0.0,0.0,0.0,0.0,0.0,0.0,0.0,0.0,0.0,0.0,-0.6542,-0.6662,-0.6995,-0.7248,-0.7521,-0.7341,-0.7174,-0.7136,-0.6368,-0.5872,0.0,0.0,0.0,0.0,0.0,0.0,0.0,0.0,0.0,0.0,0.0,0.0,0.0,0.0,0.0,0.0,0.0,0.0,0.0,0.0,0.0,0.0,0.0,0.0,0.0,0.0,0.0,0.0,-0.4935,-0.5142,-0.5687,0.0,0.0,0.0,0.0,0.0,0.0,0.0,0.0,0.0,0.0,-0.3859,-0.3963,-0.3833,0.0,0.0,-0.3454,-0.3603,-0.3616,-0.3479,-0.34,-0.3671,-0.3824,0.0,0.0,0.0,0.0,0.0,0.0,0.0,0.0,0.0,0.0,0.0,0.0,0.0,0.0,0.0,0.0,0.0,0.0,0.0,0.0,0.0,0.0,0.0,0.0,0.0,0.0,0.0,0.0,0.0,0.0,0.0,0.0,0.0,0.0,0.0,0.0,0.0,0.0,0.0,0.0,0.0,0.0,0.0,0.0,0.0,0.0,0.0,0.0,0.0,0.0,0.0,0.0,-0.721,-0.7332,-0.7788,-0.8165,-0.8329,-0.8428,-0.8378,-0.8167,-0.7389,-0.6982,0.0,0.0,0.0,0.0,0.0,0.0,0.0,0.0,0.0,0.0,0.0,0.0,0.0,0.0,0.0,0.0,0.0,0.0,0.0,0.0,0.0,0.0,0.0,0.0,0.0,0.0,0.0,0.0,-0.559,-0.5826,-0.6218,0.0,0.0,0.0,0.0,0.0,0.0,0.0,0.0,0.0,0.0,-0.4844,-0.4805,-0.4347,-0.4,-0.3794,-0.3922,-0.4048,-0.4023,-0.3922,-0.3915,-0.4085,0.0,0.0,0.0,0.0,0.0,0.0,0.0,0.0,0.0,0.0,0.0,0.0,0.0,0.0,0.0,0.0,0.0,0.0,0.0,0.0,0.0,0.0,0.0,0.0,0.0,0.0,0.0,-0.634,0.0,0.0,-0.5825,0.0,0.0,0.0,0.0,0.0,0.0,0.0,0.0,0.0,0.0,0.0,0.0,0.0,0.0,0.0,0.0,0.0,0.0,0.0,0.0,0.0,0.0,-0.7436,-0.7577,-0.852,-0.9057,-0.9145,-0.9256,-0.916,-0.884,-0.8322,-0.8097,-0.7996,0.0,0.0,0.0,0.0,0.0,0.0,0.0,0.0,0.0,0.0,0.0,0.0,0.0,0.0,0.0,0.0,0.0,0.0,0.0,0.0,0.0,0.0,0.0,0.0,0.0,0.0,-0.6345,-0.6396,-0.635,0.0,0.0,0.0,0.0,0.0,0.0,0.0,0.0,0.0,-0.5587,-0.6409,-0.6637,-0.5275,-0.5178,-0.5044,-0.483,-0.5035,-0.5005,-0.443,-0.4512,-0.4671,0.0,0.0,0.0,0.0,0.0,0.0,0.0,0.0,0.0,0.0,0.0,0.0,0.0,0.0,0.0,0.0,0.0,0.0,0.0,0.0,0.0,0.0,0.0,0.0,0.0,0.0,0.0,-0.7168,-0.6957,0.0,0.0,0.0,0.0,0.0,0.0,0.0,0.0,0.0,0.0,0.0,-0.6874,-0.7085,0.0,0.0,0.0,0.0,0.0,0.0,0.0,0.0,0.0,0.0,0.0,0.0,-0.8105,-0.8635,-0.9132,-0.9581,-0.9871,-0.9896,-0.9896,-0.9776,-0.9152,-0.8705,-0.82,0.0,0.0,0.0,0.0,0.0,0.0,0.0,0.0,0.0,0.0,0.0,0.0,0.0,0.0,0.0,0.0,0.0,0.0,0.0,0.0,0.0,0.0,0.0,0.0,0.0,-0.6426,0.0,0.0,0.0,0.0,0.0,0.0,0.0,0.0,0.0,0.0,0.0,-0.7015,-0.7051,-0.693,-0.6668,-0.648,-0.598,-0.5611,0.0,0.0,0.0,0.0,0.0,0.0,0.0,0.0,0.0,0.0,0.0,0.0,0.0,0.0,-0.4706,-0.3806,-0.3543,-0.3394,-0.3658,0.0,0.0,0.0,0.0,0.0,0.0,0.0,0.0,0.0,0.0,0.0,0.0,0.0,0.0,-0.7985,-0.7724,-0.7663,0.0,0.0,0.0,0.0,0.0,0.0,0.0,0.0,-0.7095,-0.7423,-0.772,-0.7943,-0.8051,-0.7964,-0.791,-0.7421,0.0,0.0,0.0,0.0,0.0,0.0,0.0,0.0,-0.8556,-0.8997,-0.9501,-0.9925,-1.0152,-1.0282,-1.029,-1.016,-0.9774,-0.9233,-0.855,-0.8223,-0.7968,0.0,0.0,0.0,0.0,0.0,0.0,0.0,0.0,0.0,0.0,0.0,0.0,0.0,0.0,0.0,0.0,0.0,0.0,0.0,0.0,0.0,0.0,0.0,-0.7026,0.0,0.0,0.0,0.0,0.0,0.0,0.0,0.0,0.0,-0.7318,-0.7403,-0.7489,-0.7677,-0.7211,-0.6936,-0.7214,0.0,0.0,0.0,0.0,0.0,0.0,0.0,-0.6813,-0.7001,-0.7055,-0.6829,-0.6419,-0.6114,-0.5929,-0.6141,0.0,0.0,-0.4482,-0.4079,-0.4,-0.4075,-0.3954,-0.4055,-0.4515,-0.4275,-0.395,0.0,0.0,0.0,0.0,-0.9332,0.0,0.0,0.0,-0.9094,-0.8874,0.0,-0.8746,0.0,0.0,0.0,0.0,-0.6832,-0.7604,0.0,0.0,-0.8663,-0.9091,-0.8726,-0.9052,-0.9107,-0.9083,-0.8918,-0.8644,-0.8268,-0.7897,0.0,0.0,0.0,0.0,0.0,0.0,-0.8838,-0.881,-0.9697,-1.0176,-1.0193,-1.0517,-1.0526,-1.0184,-0.9998,-0.9718,-0.9236,-0.9013,-0.8824,-0.8707,-0.7959,0.0,0.0,0.0,0.0,0.0,0.0,0.0,0.0,0.0,0.0,0.0,0.0,0.0,0.0,0.0,0.0,0.0,0.0,0.0,0.0,-0.7912,0.0,0.0,0.0,0.0,0.0,0.0,0.0,0.0,0.0,-0.7942,-0.7606,-0.7493,-0.7495,-0.7504,0.0,0.0,0.0,0.0,-0.7613,-0.7744,-0.7768,-0.7663,-0.744,-0.7545,-0.7657,-0.7452,0.0,0.0,-0.6758,-0.7111,-0.7374,-0.726,-0.7027,-0.6439,-0.5173,-0.5235,-0.5307,-0.4497,-0.4534,-0.4794,-0.5014,-0.4486,-0.4269,-1.1606,0.0,0.0,0.0,0.0,-1.0218,-1.0485,-1.0572,-1.0395,-1.0117,-0.9777,-0.9662,0.0,0.0,0.0,0.0,0.0,0.0,-0.8146,-0.8368,-0.9037,-0.9525,-0.9795,-1.004,-1.0072,-0.9933,-0.9884,-0.9598,-0.9204,-0.9147,-0.8726,-0.7982,0.0,0.0,0.0,0.0,-0.9315,-0.9546,-1.004,-1.042,-1.0542,-1.0639,-1.0582,-1.0363,-1.0306,-1.0024,-0.9726,-0.9614,-0.9339,-0.8909,-0.8714,0.0,0.0,0.0,0.0,0.0,0.0,0.0,0.0,0.0,0.0,0.0,0.0,0.0,0.0,0.0,0.0,0.0,0.0,0.0,-0.7672,-0.8102,-0.8382,0.0,0.0,0.0,0.0,0.0,0.0,0.0,0.0,0.0,-0.8703,-0.8394,-0.8379,0.0,0.0,-0.8751,-0.8962,-0.8793,-0.8701,-0.8749,-0.8845,0.0,-0.8655,-0.8855,-0.9105,-0.911,-0.8464,-0.7932,-0.8194,-0.7955,-0.7838,-0.7961,-0.7668,-0.7453,-0.7547,-0.6497,-0.5613,-0.5468,-0.4993,-0.4657,-0.4935,-0.4722,-0.4511,-1.3153,-1.2061,-1.1532,-1.1116,-1.0881,-1.1172,-1.1375,-1.1444,-1.1406,-1.1128,-1.0761,-1.0798,-1.0075,-0.8905,-0.8776,0.0,0.0,0.0,-0.9019,-0.9478,-0.9839,-1.0168,-1.0493,-1.0769,-1.0794,-1.059,-1.0582,-1.0436,-1.0152,-1.0014,-0.9662,-0.9212,0.0,-0.8895,-0.8973,-0.9514,-0.9832,-1.0104,-1.0458,-1.0802,-1.0899,-1.0834,-1.0753,-1.0647,-1.0574,-1.0396,-1.0111,-1.0103,-0.9871,-0.949,-0.9312,-0.9127,0.0,0.0,0.0,0.0,0.0,0.0,0.0,0.0,0.0,0.0,0.0,-0.8197,-0.7857,0.0,0.0,0.0,-0.7679,-0.8014,-0.8154,-0.8555,0.0,0.0,0.0,0.0,0.0,0.0,0.0,-0.9677,-0.9503,-0.9413,-0.949,-0.9299,-0.916,-0.8947,-0.8866,-0.896,-0.9212,0.0,-0.9269,-0.9226,-0.9478,-0.9632,-0.9479,-0.961,-0.9794,-0.9669,-0.9231,-0.8831,-0.9057,-0.8928,-0.8916,-0.9039,-0.8722,-0.8634,-0.9181,-0.7954,-0.6759,-0.6604,-0.6198,-0.5842,-0.5899,-0.5788,-0.5693,-1.4728,-1.4422,-1.3176,-1.2398,-1.2006,-1.2394,-1.2346,-1.1983,-1.2181,-1.203,-1.168,-1.203,-1.1438,-1.0219,-0.956,0.0,-0.9721,-0.9892,-1.0152,-1.0509,-1.0867,-1.1037,-1.1062,-1.1216,-1.1281,-1.1265,-1.1256,-1.1159,-1.0972,-1.0655,-1.0574,-1.0712,-1.0063,-0.9501,-0.9233,-1.0071,-1.0425,-1.0366,-1.0908,-1.1208,-1.1216,-1.1053,-1.0972,-1.0964,-1.0785,-1.0607,-1.0444,-1.0436,-1.0355,-1.0272,-0.9792,-0.9705,-0.9994,0.0,0.0,0.0,0.0,0.0,0.0,0.0,0.0,0.0,0.0,0.0,0.0,0.0,0.0,0.0,-0.8375,0.0,-0.8968,-0.9033,0.0,0.0,0.0,-0.8983,-0.9621,-1.009,-1.018,-0.9782,0.0,0.0,-0.9908,-1.0079,-0.9766,-0.8723,-0.8611,-0.8659,-0.8817,-0.9162,-0.932,-0.9457,-0.9839,-1.0107,-0.9868,-1.007,-1.0175,-0.9957,-0.9851,-0.9831,-0.9717,-0.9933,-1.0256,-1.0357,-1.0051,-0.9937,-1.0308,-0.9573,-0.8622,-0.8026,-0.7746,-0.7502,-0.7173,-0.7051,-0.7057,-1.5679,-1.5176,-1.4781,-1.4229,-1.3399,-1.3487,-1.349,-1.3249,-1.3296,-1.3088,-1.2701,-1.2644,-1.2082,-1.1212,-1.0706,-1.0435,-1.0444,-1.0631,-1.0826,-1.1053,-1.1411,-1.1654,-1.1776,-1.1817,-1.1768,-1.1638,-1.15,-1.1338,-1.1159,-1.1078,-1.1053,-1.1078,-1.0794,-1.0534,-1.011,-1.0417,-1.0647,-1.0586,-1.0915,-1.1094,-1.1208,-1.1053,-1.0972,-1.0972,-1.0785,-1.0607,-1.0444,-1.0436,-1.0453,-1.0481,-1.0431,-1.0509,-1.0707,-1.0281,0.0,0.0,0.0,0.0,0.0,0.0,0.0,0.0,0.0,-0.9392,-0.9165,0.0,-0.952,0.0,-0.9332,-0.9493,-0.9426,-0.9526,0.0,0.0,-0.9185,-0.9067,-0.9854,-1.0334,-1.0536,-1.0371,-1.0433,-1.0414,-1.0282,-1.0347,-1.0099,-0.9566,-0.9808,-1.0,-1.0163,-1.0085,-0.9991,-1.0044,-1.0301,-1.0385,-1.037,-1.0705,-1.0922,-1.0815,-1.093,-1.0854,-1.0578,-1.0472,-1.0569,-1.0733,-1.0343,-1.0286,-1.1163,-1.0755,-1.0236,-1.018,-0.8934,-0.7652,-0.7504,-0.7644,-0.7671,-1.6947,-1.6097,-1.6003,-1.567,-1.5034,-1.4479,-1.4338,-1.4446,-1.4089,-1.3956,-1.3836,-1.3306,-1.2763,-1.2293,-1.1784,-1.1475,-1.1396,-1.1504,-1.1577,-1.1711,-1.1922,-1.2184,-1.2391,-1.2399,-1.2341,-1.225,-1.2068,-1.1927,-1.1819,-1.1653,-1.162,-1.1686,-1.1636,-1.1444,-1.0923,-1.0923,-1.0923,-1.0932,-1.1191,-1.1378,-1.1459,-1.1216,-1.1078,-1.107,-1.0834,-1.0688,-1.0672,-1.0699,-1.0758,-1.0733,-1.0971,-1.0928,-1.0928,-1.0749,-1.0604,0.0,0.0,0.0,0.0,0.0,0.0,0.0,0.0,0.0,0.0,0.0,-1.0009,-0.9723,-0.9764,-0.9884,-0.9884,-0.9921,-1.0069,-1.0113,-0.9819,-0.9774,-1.0364,-1.0746,-1.0898,-1.0814,-1.0782,-1.0741,-1.055,-1.0623,-1.0562,-1.0257,-1.046,-1.0594,-1.0453,-1.0373,-1.0397,-1.0475,-1.0744,-1.0978,-1.0978,-1.1093,-1.1248,-1.133,-1.1346,-1.137,-1.1224,-1.1193,-1.1144,-1.1272,-1.0846,-1.0657,-1.1405,-1.1156,-1.0914,-1.0884,-1.0165,-0.9255,-0.8954,-0.9093,-0.9359,-1.808,-1.7163,-1.6968,-1.6722,-1.6462,-1.5433,-1.5147,-1.5388,-1.4741,-1.4461,-1.4673,-1.3807,-1.3407,-1.3259,-1.2687,-1.236,-1.2302,-1.231,-1.2381,-1.2455,-1.2471,-1.2598,-1.2733,-1.2834,-1.2826,-1.2826,-1.2648,-1.2687,-1.2547,-1.2354,-1.2277,-1.2414,-1.249,-1.2285,-1.1684,-1.152,-1.1421,-1.1265,-1.1717,-1.1897,-1.1889,-1.1435,-1.1256,-1.124,-1.0932,-1.0834,-1.1101,-1.1176,-1.1167,-1.1214,-1.1492,-1.1507,-1.1084,-1.125,-1.1147,0.0,-1.0983,0.0,0.0,0.0,0.0,0.0,0.0,0.0,0.0,-1.0054,-1.0171,-1.0096,-1.0035,-1.003,-1.0252,-1.0323,-1.0416,-1.0461,-1.0625,-1.0765,-1.0964,-1.1135,-1.1167,-1.1013,-1.0997,-1.094,-1.0794,-1.0907,-1.0932,-1.0826,-1.0899,-1.0884,-1.0455,-1.0424,-1.0552,-1.0854,-1.1261,-1.1468,-1.15,-1.1403,-1.1362,-1.1382,-1.1414,-1.1589,-1.1736,-1.176,-1.1768,-1.1768,-1.1398,-1.1269,-1.139,-1.1277,-1.1163,-1.1035,-1.114,-1.1012,-1.0528,-1.077,-1.1277,-1.9287,-1.8211,-1.8165,-1.7662,-1.6872,-1.641,-1.6111,-1.5832,-1.5268,-1.4711,-1.4433,-1.4222,-1.3936,-1.3688,-1.3615,-1.3367,-1.3065,-1.3065,-1.3061,-1.29,-1.3294,-1.3113,-1.2849,-1.2967,-1.3029,-1.3012,-1.2834,-1.2867,-1.3251,-1.3181,-1.3154,-1.3189,-1.3005,-1.2917,-1.2786,0.0,0.0,0.0,-1.2005,-1.2122,-1.2113,-1.1676,-1.1443,-1.1443,-1.1232,0.0,-1.1519,-1.16,-1.1819,-1.2311,-1.2244,0.0,0.0,0.0,0.0,0.0,0.0,0.0,0.0,0.0,0.0,0.0,-1.1809,-1.1566,-1.1353,-1.1478,-1.1414,-1.0806,-1.0957,-1.104,-1.0731,-1.094,-1.1068,-1.1053,-1.0826,-1.0866,-1.1167,-1.1454,-1.1569,-1.1183,-1.1175,-1.1159,-1.1118,-1.1159,-1.1159,-1.111,-1.1151,-1.1232,-1.1253,-1.0914,-1.081,-1.1085,-1.1403,-1.1557,-1.1703,-1.1679,-1.1646,-1.1719,-1.1719,-1.1736,-1.1768,-1.1776,-1.1776,-1.1776,-1.1776,-1.1647,-1.1647,-1.1647,-1.1647,-1.1655,-1.1655,-1.1526,-1.1156,-1.1398,-1.1631,-1.9966,-1.9066,-1.8806,-1.8547,0.0,-1.7787,-1.7658,-1.7389,-1.5982,-1.4971,-1.461,-1.4515,-1.4341,-1.4205,-1.4103,-1.3861,-1.3444,-1.358,-1.3422,-1.2954,-1.3353,-1.3404,-1.335,-1.3396,-1.3604,-1.3725,-1.3541,-1.3571,-1.3698,-1.36,-1.3555,-1.3555,-1.3706,-1.3536,-1.3163,-1.3412,-1.319,-1.2751,-1.2716,-1.2716,-1.2621,-1.232,-1.2065,-1.1972,-1.1786,0.0,0.0,0.0,0.0,0.0,0.0,0.0,0.0,-1.2511,0.0,-1.2343,-1.223,-1.2343,-1.2456,-1.2456,-1.257,-1.2683,-1.2683,-1.2441,-1.1818,-1.1629,-1.1439,-1.1086,-1.1208,-1.1282,-1.1097,-1.1165,-1.1256,-1.1338,-1.1837,-1.2078,-1.172,-1.203,-1.229,-1.1962,-1.1828,-1.1794,-1.1463,-1.1537,-1.1429,-1.1248,-1.1305,-1.1395,-1.1459,-1.1229,-1.1173,-1.1468,-1.1565,-1.1663,-1.1752,-1.1776,-1.1776,-1.1776,-1.1776,-1.1776,-1.1776,-1.1776,-1.1776,-1.1776,-1.1776,-1.1897,-1.201,-1.201,-1.213,-1.2251,-1.2371,-1.2492,-1.2242,-1.2122,-1.2113,-2.0762,-1.9793,-1.9609,-1.9358,-1.9145,-1.9193,-1.9181,-1.8875,-1.6893,0.0,0.0,-1.5138,-1.4942,-1.4804,-1.4623,-1.4388,-1.4033,-1.43,-1.3882,-1.3269,-1.3515,-1.3779,-1.3928,-1.4024,-1.4137,-1.4399,-1.4244,-1.4162,-1.4162,-1.4125,-1.4033,-1.4033,-1.4295,-1.4159,-1.3654,-1.3906,-1.3906,-1.3654,-1.3456,-1.3332,-1.3023,-1.2986,-1.2689,-1.2495,-1.2337,-1.2445,-1.2604,-1.2687,-1.2669,-1.2713,-1.3008,-1.2906,-1.2481,-1.2675,-1.2694,-1.2525,-1.2767,-1.2975,-1.3177,-1.3433,-1.3532,-1.3504,-1.3495,-1.2984,-1.2152,-1.1693,-1.1554,-1.1429,-1.1429,-1.1495,-1.1643,-1.1403,-1.137,-1.1643,-1.2649,-1.3013,-1.2268,-1.2636,-1.2773,-1.253,-1.2377,-1.2216,-1.1879,-1.1871,-1.1921,-1.1468,-1.1549,-1.1573,-1.1557,-1.1549,-1.1573,-1.1711,-1.1744,-1.1768,-1.1776,-1.1776,-1.1776,-1.1776,-1.1776,-1.1776,-1.1776,-1.1776,-1.1776,-1.1776,-1.1776,-1.1889,-1.2122,-1.2242,-1.25,-1.2768,-1.2991,-1.3093,-1.325,-1.2741,-1.2603,-2.188,-2.0762,-2.0965,-2.0497,-1.9434,-1.9652,-1.9484,-1.8983,-1.8383,-1.7518,-1.6742,-1.6711,-1.6312,-1.5794,-1.5764,-1.5764,-1.5664,-1.5414,-1.5138,-1.4911,-1.4753,-1.4499,-1.4121,-1.4227,-1.4399,-1.4399,-1.4371,-1.4493,-1.4754,-1.4725,-1.4716,-1.4707,-1.4846,-1.4707,-1.4716,-1.4716,-1.4716,-1.4707,-1.3979,-1.3581,-1.34,-1.3119,-1.2882,-1.2697,-1.2653,-1.2773,-1.3039,-1.3131,-1.3251,-1.3517,-1.3457,-1.3419,-1.3461,-1.332,-1.3386,-1.3723,-1.3761,-1.3845,-1.4042,-1.4185,-1.4109,-1.3948,-1.3676,-1.3332,-1.2985,-1.2985,-1.2764,-1.2516,-1.2508,-1.2525,-1.2431,-1.203,-1.1902,-1.2423,-1.2303,-1.2183,-1.2569,-1.2733,-1.2741,-1.2689,-1.2209,-1.2155,-1.2352,-1.2159,-1.211,-1.2077,-1.1979,-1.1898,-1.1768,-1.1736,-1.1744,-1.1768,-1.1776,-1.1776,-1.1776,-1.1776,-1.1776,-1.1776,-1.1776,-1.1776,-1.1776,-1.1776,-1.1897,-1.1776,-1.1897,-1.1889,-1.2242,-1.2234,-1.2544,-1.29,-1.2968,-1.3036,-1.3423,-1.3229,-1.3232,-2.2324,-2.1831,-2.1805,-2.1369,-2.0874,-2.1002,-2.0844,-2.0585,-2.0459,-1.9326,-1.754,-1.7261,-1.7,-1.6514,-1.6359,-1.6267,-1.5893,-1.6022,-1.5854,-1.5385,-1.5186,-1.5016,-1.4815,-1.4499,-1.453,-1.467,-1.467,-1.48,-1.4931,-1.4931,-1.4931,-1.4941,-1.5035,-1.5092,-1.5101,-1.5215,-1.5271,-1.5262,-1.4725,-1.4298,-1.4103,-1.3968,-1.3688,-1.3387,-1.3377,-1.3435,-1.3453,-1.3444,-1.3564,-1.3693,-1.3599,-1.3646,-1.3844,-1.3778,-1.3863,-1.4147,-1.4175,-1.4213,-1.4307,-1.4317,-1.427,-1.4175,-1.4051,-1.389,-1.3788,-1.3211,-1.2888,-1.2864,-1.2882,-1.2838,-1.2741,-1.2561,-1.2621,-1.2882,-1.2873,-1.2917,-1.326,-1.3409,-1.3496,-1.3405,-1.3233,-1.3163,-1.3023,-1.2986,-1.294,-1.2909,-1.2591,-1.2349,-1.1939,-1.1914,-1.1874,-1.1792,-1.1889,-1.1889,-1.1897,-1.1776,-1.1776,-1.1776,-1.1776,-1.1776,-1.1776,-1.1897,-1.201,-1.2001,-1.213,-1.2371,-1.2724,-1.2724,-1.2933,-1.3328,-1.345,-1.3582,-1.3843,-1.3834,-1.3836,-2.2472,-2.2392,-2.2245,-2.2191,-2.2178,-2.2191,-2.2151,-2.2084,-2.2084,-2.0861,-1.903,-1.8353,-1.7904,-1.7521,-1.7342,-1.717,-1.6809,-1.7089,-1.7037,-1.6466,-1.6181,-1.5968,-1.5825,-1.5404,-1.5195,-1.5336,-1.5336,-1.5336,-1.5336,-1.5336,-1.5176,-1.5157,-1.5423,-1.55,-1.5243,-1.5856,-1.5963,-1.5808,-1.5643,-1.5211,-1.4714,-1.4657,-1.4449,-1.4109,-1.4081,-1.3996,-1.3844,-1.3825,-1.3835,-1.3825,-1.3825,-1.3901,-1.4062,-1.4081,-1.4166,-1.4355,-1.4383,-1.4402,-1.4449,-1.4449,-1.443,-1.4383,-1.4383,-1.4383,-1.4355,-1.3542,-1.3161,-1.3304,-1.3331,-1.3269,-1.3161,-1.3233,-1.3208,-1.3331,-1.3711,-1.389,-1.3904,-1.4182,-1.426,-1.4128,-1.4088,-1.3876,-1.3706,-1.3653,-1.3618,-1.3374,-1.3113,-1.2783,-1.225,-1.2333,-1.2398,-1.2175,-1.2214,-1.2051,-1.1913,-1.1987,-1.2004,-1.1849,-1.2004,-1.2159,-1.2281,-1.2386,-1.2491,-1.2508,-1.2578,-1.2812,-1.3156,-1.3277,-1.3471,-1.3854,-1.3873,-1.4033,-1.409,-1.4222,-1.4203,-2.2659,-2.2472,-2.2659,-2.2779,-2.2766,-2.2766,-2.2619,-2.2392,-2.2378,-2.2071,-2.149,-2.0615,-1.9862,-1.9304,-1.9245,-1.9255,-1.9421,-1.9311,-1.9067,-1.8933,-1.863,-1.8217,-1.7545,-1.7513,-1.7099,-1.656,-1.656,-1.654,-1.654,-1.656,-1.6335,-1.5909,-1.643,-1.6175,-1.5529,-1.6799,-1.7328,-1.6641,-1.7276,-1.6635,-1.4922,-1.4723,-1.4525,-1.4298,-1.4279,-1.427,-1.4356,-1.4251,-1.4251,-1.4251,-1.4241,-1.4251,-1.4279,-1.4288,-1.4383,-1.4581,-1.46,-1.4685,-1.4846,-1.4874,-1.478,-1.4629,-1.461,-1.46,-1.4591,-1.4266,-1.4135,-1.4163,-1.4163,-1.4135,-1.4126,-1.401,-1.4029,-1.4029,-1.4423,-1.4692,-1.4336,-1.4596,-1.4712,-1.4298,-1.395,-1.3609,-1.3998,-1.3925,-1.3696,-1.3696,-1.3567,-1.3369,-1.3195,-1.3277,-1.3385,-1.3082,-1.2614,-1.2078,-1.1996,-1.23,-1.2349,-1.2028,-1.2623,-1.2923,-1.3039,-1.3047,-1.3233,-1.3066,-1.304,-1.3188,-1.3337,-1.3487,-1.36,-1.3873,-1.4014,-1.3986,-1.3863,-1.4062,-1.4232,-2.3065,-2.2699,-2.2819,-2.2859,-2.2859,-2.2859,-2.2792,-2.2686,-2.2686,-2.2512,-2.2245,-2.1846,-2.1172,-2.0385,-2.0294,-2.0158,-2.011,-2.0119,-2.0191,-2.0042,-1.9628,-1.9287,-1.8993,-1.8575,-1.8239,-1.7981,-1.7981,-1.7981,-1.7981,-1.7981,-1.7669,-1.7057,-1.7438,-1.7502,-1.6953,-1.7601,-1.7855,-1.7707,-1.7855,-1.7559,-1.6809,-1.647,-1.6053,-1.5711,-1.5443,-1.5312,-1.5202,-1.5182,-1.5182,-1.4932,-1.5307,-1.5242,-1.4496,-1.4886,-1.4974,-1.4789,-1.5197,-1.5624,-1.6094,-1.6094,-1.6063,-1.5971,-1.5584,-1.5584,-1.5961,-1.5238,-1.4804,-1.5179,-1.4827,-1.4459,-1.4355,-1.4295,-1.437,-1.4506,-1.4633,-1.468,-1.4676,-1.4814,-1.4785,-1.4534,-1.4354,-1.4263,-1.44,-1.4346,-1.428,-1.4159,-1.403,-1.394,-1.3642,-1.3607,-1.3554,-1.3465,-1.3069,-1.2775,-1.2499,-1.2549,-1.2482,-1.2324,-1.2724,-1.3277,-1.3439,-1.3394,-1.3509,-1.366,-1.3496,-1.3554,-1.3741,-1.376,-1.3892,-1.4033,-1.4147,-1.4185,-1.4232,-1.4279,-1.4317,-2.3133,-2.2859,-2.2859,-2.2859,-2.2859,-2.2859,-2.2859,-2.2859,-2.2859,-2.2739,-2.2552,-2.2539,-2.2163,-2.1507,-2.1245,-2.1158,-2.1084,-2.1258,-2.1308,-2.1096,-2.0823,-2.0464,-2.0243,-1.9876,-1.9534,-1.9399,-1.9411,-1.9411,-1.9387,-1.9306,-1.889,-1.8496,-1.8766,-1.8846,-1.8457,-1.8798,-1.9037,-1.8827,-1.8969,-1.8857,-1.8733,-1.8372,-1.7664,-1.6838,-1.6679,-1.6477,-1.6265,-1.6244,-1.6118,-1.573,-1.6233,-1.6192,-1.5337,-1.5741,-1.5941,-1.5564,-1.6025,-1.6577,-1.7098,-1.7032,-1.6912,-1.6848,-1.6186,-1.5904,-1.6114,-1.5453,-1.5192,-1.5434,-1.5058,-1.4638,-1.4534,-1.4619,-1.4704,-1.4714,-1.4585,-1.4651,-1.4903,-1.4931,-1.4865,-1.4752,-1.4688,-1.4884,-1.477,-1.4837,-1.4782,-1.452,-1.453,-1.4502,-1.4105,-1.3931,-1.4015,-1.387,-1.385,-1.355,-1.3113,-1.3173,-1.3029,-1.2876,-1.3282,-1.3816,-1.3742,-1.3821,-1.3812,-1.4085,-1.3873,-1.3873,-1.3939,-1.409,-1.4071,-1.4099,-1.4175,-1.427,-1.4298,-1.4326,-1.4288,-2.3133,-2.2859,-2.2859,-2.2859,-2.2859,-2.2859,-2.2859,-2.2859,-2.2859,-2.2846,-2.2819,-2.2832,-2.2832,-2.2779,-2.2334,-2.2457,-2.2669,-2.2709,-2.2453,-2.2255,-2.2576,-2.2141,-2.1243,-2.1457,-2.1296,-2.0695,-2.0695,-2.0569,-2.0569,-2.0352,-2.0095,-1.9835,-2.0367,-2.0243,-1.9609,-2.061,-2.1046,-2.0191,-2.07,-2.0834,-2.0318,-2.0035,-1.9101,-1.7719,-1.7313,-1.7293,-1.7001,-1.6969,-1.6969,-1.6969,-1.6958,-1.698,-1.6861,-1.6861,-1.6872,-1.6904,-1.7217,-1.7335,-1.7346,-1.7107,-1.6882,-1.6451,-1.6012,-1.5281,-1.5672,-1.5381,-1.524,-1.5071,-1.5071,-1.4903,-1.4865,-1.4995,-1.4893,-1.4903,-1.4903,-1.4912,-1.4922,-1.5062,-1.4931,-1.5043,-1.5043,-1.5173,-1.5033,-1.4931,-1.4931,-1.4931,-1.4931,-1.4782,-1.4772,-1.4772,-1.4744,-1.4605,-1.4456,-1.4123,-1.3562,-1.3678,-1.394,-1.3913,-1.4033,-1.466,-1.4566,-1.4482,-1.4454,-1.4496,-1.4194,-1.409,-1.4194,-1.4232,-1.4203,-1.4175,-1.4099,-1.4156,-1.4326,-1.4288,-1.4251,-2.3406,-2.301,-2.3133,-2.3133,-2.2859,-2.2859,-2.2859,-2.2859,-2.2859,-2.2859,-2.2859,-2.2859,-2.2859,-2.2859,-2.2966,-2.2939,-2.2873,-2.2859,-2.2806,-2.2712,-2.2819,-2.2669,-2.2453,-2.2408,-2.2448,-2.2173,-2.2173,-2.2035,-2.176,-2.1919,-2.1607,-2.1171,-2.1429,-2.1293,-2.1021,-2.1258,-2.1382,-2.132,-2.147,-2.148,-2.1078,-2.0831,-2.0352,-1.9483,-1.8652,-1.8216,-1.8285,-1.8285,-1.8154,-1.7882,-1.8273,-1.8143,-1.7358,-1.7227,-1.7489,-1.7882,-1.796,-1.8279,-1.8684,-1.8622,-1.8513,-1.8301,-1.7906,-1.7561,-1.7884,-1.7321,-1.6747,-1.6481,-1.6054,-1.561,-1.509,-1.5323,-1.5453,-1.5062,-1.5714,-1.5974,-1.5984,-1.6104,-1.6224,-1.6224,-1.6234,-1.6224,-1.6094,-1.5954,-1.5814,-1.5574,-1.5163,-1.5033,-1.4931,-1.4931,-1.4931,-1.4931,-1.48,-1.4623,-1.4503,-1.428,-1.4371,-1.4344,-1.4465,-1.466,-1.4714,-1.4648,-1.46,-1.4487,-1.426,-1.4213,-1.4279,-1.4279,-1.4279,-1.4477,-1.4383,-1.4194,-1.4364,-1.427,-1.4213,-2.3679,-2.327,-2.3406,-2.327,-2.2996,-2.2996,-2.2859,-2.2859,-2.2859,-2.2859,-2.2859,-2.2859,-2.2859,-2.2913,-2.318,-2.3153,-2.2899,-2.2953,-2.2953,-2.2873,-2.2859,-2.2859,-2.2859,-2.2859,-2.2859,-2.2886,-2.2966,-2.2828,-2.2611,-2.2828,-2.2691,-2.216,-2.2251,-2.2251,-2.2108,-2.1978,-2.1965,-2.2043,-2.2043,-2.1765,-2.1385,-2.1347,-2.1219,-2.0674,-1.9862,-1.9374,-1.9483,-1.9555,-1.9424,-1.909,-1.9543,-1.9328,-1.8404,-1.8139,-1.8404,-1.88,-1.9014,-1.9193,-1.9615,-1.953,-1.9421,-1.9338,-1.8944,-1.8766,-1.9101,-1.8396,-1.7771,-1.7518,-1.7209,-1.6471,-1.6237,-1.646,-1.6388,-1.5361,-1.5704,-1.6234,-1.5984,-1.6104,-1.6364,-1.6494,-1.6753,-1.6872,-1.7001,-1.6721,-1.6462,-1.6353,-1.5814,-1.5544,-1.5574,-1.5583,-1.5453,-1.5323,-1.5323,-1.5183,-1.4865,-1.4633,-1.467,-1.4642,-1.4633,-1.4818,-1.4871,-1.4676,-1.46,-1.4585,-1.4499,-1.4336,-1.4317,-1.4317,-1.4487,-1.4752,-1.4534,-1.4251,-1.427,-1.4079,-1.407,-2.3966,-2.3966,-2.3543,-2.3406,-2.3406,-2.2996,-2.2859,-2.2996,-2.2873,-2.2859,-2.2859,-2.2859,-2.2859,-2.2926,-2.3193,-2.3153,-2.2953,-2.314,-2.3126,-2.2873,-2.2859,-2.2859,-2.2859,-2.2859,-2.2859,-2.2873,-2.3153,-2.314,-2.2886,-2.3086,-2.31,-2.2899,-2.2846,-2.2819,-2.2859,-2.2682,-2.2712,-2.2417,-2.2377,-2.207,-2.1647,-2.1528,-2.1486,-2.1347,-2.1035,-2.0806,-2.0577,-2.0806,-2.0567,-2.0092,-2.0265,-2.0269,-1.9857,-1.9869,-1.9893,-1.9917,-2.011,-2.0231,-2.0255,-1.9863,-1.9553,-1.9289,-1.8605,-1.8402,-1.8405,-1.8215,-1.8047,-1.7868,-1.7857,-1.7712,-1.768,-1.805,-1.7496,-1.5551,-1.5531,-1.5793,-1.5512,-1.5081,-1.5323,-1.6234,-1.6872,-1.7012,-1.7001,-1.713,-1.713,-1.7001,-1.6732,-1.6602,-1.6483,-1.6353,-1.6494,-1.6104,-1.5714,-1.5583,-1.5192,-1.4931,-1.4931,-1.4931,-1.4922,-1.4874,-1.4789,-1.4714,-1.4685,-1.4572,-1.4468,-1.443,-1.4515,-1.4515,-1.4544,-1.4676,-1.443,-1.4364,-1.4392,-1.4266,-1.4126,-2.451,-2.3952,-2.3816,-2.3816,-2.3679,-2.3133,-2.2996,-2.327,-2.2996,-2.2859,-2.2859,-2.2859,-2.2859,-2.2939,-2.318,-2.3153,-2.2899,-2.3166,-2.3153,-2.2899,-2.2859,-2.2859,-2.2859,-2.2859,-2.2859,-2.2873,-2.2953,-2.2966,-2.2899,-2.2966,-2.2939,-2.2873,-2.2859,-2.2859,-2.2859,-2.2859,-2.2806,-2.2739,-2.2726,-2.2579,-2.2178,-2.2151,-2.1978,-2.1885,-2.1951,-2.1831,-2.1765,-2.1443,-2.1175,-2.0939,-2.104,-2.1015,-2.0755,-2.0856,-2.0956,-2.0969,-2.0761,-2.0675,-2.0551,-2.034,-2.0102,-1.9918,-1.9875,-1.9945,-1.9749,-1.9714,-1.9495,-1.8959,-1.8778,-1.8597,-1.7901,-1.7556,-1.7212,-1.6265,-1.7486,-1.8161,-1.8017,-1.8016,-1.8097,-1.8068,-1.8291,-1.8431,-1.8431,-1.8431,-1.8162,-1.7647,-1.7109,-1.6592,-1.6353,-1.6234,-1.5583,-1.5323,-1.5583,-1.5974,-1.5453,-1.5323,-1.5453,-1.5323,-1.5192,-1.4922,-1.4837,-1.4789,-1.4752,-1.4695,-1.4591,-1.4581,-1.4666,-1.4714,-1.4733,-1.4723,-1.4648,-1.4648,-1.4695,-1.46,-1.4421,-2.4781,-2.4374,-2.4224,-2.4224,-2.4102,-2.3543,-2.327,-2.3406,-2.3133,-2.2996,-2.2859,-2.2859,-2.2859,-2.2926,-2.318,-2.314,-2.2913,-2.318,-2.3166,-2.2899,-2.2859,-2.2859,-2.2859,-2.2859,-2.2859,-2.2899,-2.2979,-2.2966,-2.2873,-2.2966,-2.2979,-2.2886,-2.2859,-2.2859,-2.2859,-2.2859,-2.2859,-2.2859,-2.2859,-2.2766,-2.2619,-2.2579,-2.2498,-2.2365,-2.2485,-2.2579,-2.2592,-2.2185,-2.1862,-2.1649,-2.1488,-2.1302,-2.1264,-2.1416,-2.1505,-2.1505,-2.1369,-2.1245,-2.1096,-2.0984,-2.0835,-2.086,-2.0983,-2.1069,-2.1069,-2.1081,-2.0569,-2.0036,-1.9863,-1.953,-1.8982,-1.8505,-1.8211,-1.8211,-1.889,-1.9405,-1.9381,-1.9229,-1.9184,-1.8888,-1.9042,-1.9241,-1.9217,-1.9108,-1.8956,-1.8419,-1.7765,-1.7367,-1.713,-1.6872,-1.6353,-1.5974,-1.6104,-1.6104,-1.5714,-1.5714,-1.5834,-1.5714,-1.5463,-1.5192,-1.5024,-1.4884,-1.4855,-1.4827,-1.4752,-1.4752,-1.4827,-1.4855,-1.4874,-1.4855,-1.4818,-1.478,-1.4742,-1.4676,-1.4553,-2.5052,-2.5052,-2.4645,-2.451,-2.451,-2.4088,-2.3816,-2.3543,-2.3406,-2.327,-2.2996,-2.2996,-2.2996,-2.3063,-2.3278,-2.3238,-2.2953,-2.3113,-2.3126,-2.2926,-2.2859,-2.2859,-2.2859,-2.2859,-2.2886,-2.2966,-2.314,-2.314,-2.3033,-2.3126,-2.3166,-2.2953,-2.2899,-2.2886,-2.2926,-2.2899,-2.2926,-2.2939,-2.2913,-2.2899,-2.2846,-2.2832,-2.2832,-2.2806,-2.2819,-2.2832,-2.2819,-2.2819,-2.2576,-2.1958,-2.1823,-2.1778,-2.1821,-2.1897,-2.1872,-2.1872,-2.1897,-2.1747,-2.176,-2.1721,-2.1596,-2.1584,-2.1609,-2.176,-2.1634,-2.1346,-2.1195,-2.1032,-2.0906,-2.078,-2.0605,-2.0443,-2.0443,-2.0455,-1.9746,-1.8981,-1.8306,-1.8698,-1.9043,-1.9131,-1.9243,-1.9495,-1.9483,-1.9301,-1.9217,-1.9052,-1.8923,-1.877,-1.8477,-1.8102,-1.8056,-1.7658,-1.6882,-1.6742,-1.6483,-1.6608,-1.6739,-1.6357,-1.5954,-1.5652,-1.5211,-1.4931,-1.5062,-1.5033,-1.4893,-1.4912,-1.4931,-1.4931,-1.5062,-1.5043,-1.4995,-1.4818,-1.478,-1.4862,-1.4842,-2.5322,-2.5052,-2.4645,-2.4645,-2.4781,-2.4238,-2.4088,-2.4224,-2.3952,-2.3816,-2.3693,-2.3679,-2.3693,-2.3693,-2.3488,-2.3338,-2.3311,-2.309,-2.2966,-2.2873,-2.2859,-2.2859,-2.2859,-2.2873,-2.2979,-2.314,-2.3086,-2.3166,-2.3474,-2.3193,-2.3086,-2.3193,-2.2979,-2.2993,-2.3166,-2.318,-2.3207,-2.3207,-2.3207,-2.3086,-2.2899,-2.2873,-2.2859,-2.2859,-2.2859,-2.2859,-2.2859,-2.2859,-2.2846,-2.2629,-2.2603,-2.2506,-2.2572,-2.2585,-2.2585,-2.2585,-2.231,-2.2173,-2.2173,-2.1897,-2.176,-2.176,-2.191,-2.176,-2.176,-2.176,-2.1622,-2.1622,-2.1496,-2.1496,-2.1346,-2.1032,-2.0743,-2.0605,-2.0359,-2.0102,-1.9823,-1.9899,-1.984,-1.9649,-1.9699,-1.9784,-1.9748,-1.9688,-1.9484,-1.9603,-1.9376,-1.9125,-1.896,-1.8335,-1.8041,-1.768,-1.7271,-1.7389,-1.7433,-1.7587,-1.7413,-1.7039,-1.6612,-1.6034,-1.5551,-1.5062,-1.5192,-1.5192,-1.5173,-1.5192,-1.5192,-1.5202,-1.5202,-1.5202,-1.5313,-1.5135,-1.5284,-1.5265,-1.5115,-2.5457,-2.5322,-2.4916,-2.4916,-2.5066,-2.4645,-2.451,-2.451,-2.436,-2.4088,-2.3966,-2.3966,-2.3966,-2.3966,-2.3543,-2.3543,-2.3543,-2.3133,-2.2996,-2.3133,-2.3133,-2.2996,-2.2996,-2.2873,-2.2966,-2.3113,-2.31,-2.326,-2.35,-2.3327,-2.3313,-2.3273,-2.3153,-2.31,-2.3086,-2.3273,-2.3327,-2.334,-2.342,-2.3367,-2.3086,-2.306,-2.2966,-2.2899,-2.2859,-2.2859,-2.2859,-2.2859,-2.2859,-2.2859,-2.2859,-2.2859,-2.2859,-2.2859,-2.2859,-2.2859,-2.2722,-2.2585,-2.2585,-2.231,-2.231,-2.231,-2.231,-2.231,-2.2173,-2.2173,-2.2035,-2.2035,-2.1897,-2.176,-2.176,-2.1296,-2.1308,-2.1496,-2.1207,-2.0869,-2.0747,-2.0448,-2.0376,-2.0243,-2.0122,-2.005,-2.005,-1.9819,-1.9759,-1.9845,-1.9603,-1.9411,-1.9099,-1.8422,-1.8057,-1.7893,-1.7904,-1.7949,-1.7806,-1.7774,-1.7807,-1.7432,-1.7023,-1.644,-1.6186,-1.5531,-1.5502,-1.5633,-1.5473,-1.5342,-1.5381,-1.5381,-1.5332,-1.5463,-1.5463,-1.5593,-1.5593,-1.5773,-1.5623,-2.5592,-2.5457,-2.5202,-2.5066,-2.5066,-2.5052,-2.4916,-2.4645,-2.4645,-2.436,-2.4238,-2.4088,-2.4238,-2.4102,-2.3885,-2.3749,-2.4022,-2.3571,-2.3419,-2.3571,-2.3584,-2.3584,-2.3336,-2.3131,-2.3157,-2.3113,-2.3273,-2.3447,-2.3621,-2.3741,-2.3634,-2.35,-2.3394,-2.3207,-2.318,-2.3287,-2.334,-2.338,-2.3594,-2.3514,-2.326,-2.322,-2.314,-2.2899,-2.2859,-2.2913,-2.2913,-2.2899,-2.2859,-2.2859,-2.2859,-2.2859,-2.2859,-2.2859,-2.2859,-2.2859,-2.2859,-2.2859,-2.2859,-2.2859,-2.2859,-2.2859,-2.2859,-2.2859,-2.2722,-2.2585,-2.231,-2.231,-2.2035,-2.2035,-2.2035,-2.1734,-2.1897,-2.2212,-2.176,-2.1333,-2.0931,-2.0804,-2.0804,-2.0804,-2.0573,-2.0476,-2.0391,-2.0269,-1.9989,-2.0294,-2.0038,-1.9807,-1.9614,-1.9362,-1.9049,-1.8916,-1.8818,-1.8608,-1.8284,-1.7973,-1.7828,-1.7684,-1.7294,-1.684,-1.6981,-1.6602,-1.6257,-1.6095,-1.5751,-1.5639,-1.5781,-1.5741,-1.5652,-1.5803,-1.5974,-1.6045,-1.5994,-1.6075,-1.5964,-2.5457,-2.5187,-2.5052,-2.5066,-2.5066,-2.5066,-2.5066,-2.4916,-2.4916,-2.4946,-2.4931,-2.4931,-2.481,-2.4824,-2.463,-2.4744,-2.4773,-2.4526,-2.4539,-2.4539,-2.4539,-2.4539,-2.433,-2.4011,-2.362,-2.3628,-2.3621,-2.3888,-2.4155,-2.3941,-2.3861,-2.3941,-2.3594,-2.3407,-2.3554,-2.3567,-2.3541,-2.3434,-2.3634,-2.3527,-2.322,-2.3287,-2.3233,-2.2953,-2.2899,-2.3006,-2.3126,-2.2993,-2.2873,-2.2859,-2.2859,-2.2859,-2.2859,-2.2859,-2.2859,-2.2873,-2.2873,-2.2873,-2.2873,-2.2899,-2.2873,-2.2926,-2.2939,-2.2859,-2.2859,-2.2899,-2.2749,-2.2735,-2.2722,-2.2611,-2.2625,-2.2598,-2.2487,-2.2362,-2.2048,-2.1734,-2.1622,-2.1484,-2.1496,-2.1471,-2.1433,-2.1533,-2.1396,-2.0909,-2.0698,-2.0723,-2.0625,-2.0219,-2.0122,-2.0184,-1.9903,-1.9646,-1.9499,-1.9399,-1.9229,-1.889,-1.8586,-1.8418,-1.7992,-1.7912,-1.7916,-1.7572,-1.7272,-1.6665,-1.5938,-1.6082,-1.6471,-1.6074,-1.5984,-1.6308,-1.6501,-1.645,-1.6561,-1.6592,-1.6612,-2.5592,-2.5322,-2.5187,-2.5066,-2.5081,-2.5213,-2.5198,-2.511,-2.5227,-2.5271,-2.5286,-2.5271,-2.5359,-2.552,-2.5403,-2.5336,-2.5365,-2.5214,-2.5017,-2.5003,-2.5003,-2.5017,-2.4862,-2.4722,-2.4413,-2.4045,-2.4133,-2.4246,-2.4142,-2.4222,-2.4195,-2.4195,-2.3861,-2.3754,-2.3768,-2.3781,-2.3781,-2.3794,-2.3875,-2.3794,-2.3581,-2.3634,-2.3594,-2.33,-2.3166,-2.318,-2.3273,-2.302,-2.2886,-2.2859,-2.2873,-2.2873,-2.2873,-2.2859,-2.2873,-2.2873,-2.302,-2.3073,-2.3086,-2.3207,-2.33,-2.3121,-2.3273,-2.3287,-2.3287,-2.3273,-2.3287,-2.326,-2.318,-2.3073,-2.2921,-2.2928,-2.2763,-2.2506,-2.2341,-2.2289,-2.2349,-2.2048,-2.191,-2.1772,-2.176,-2.1747,-2.1622,-2.1346,-2.1333,-2.1396,-2.1383,-2.0984,-2.0997,-2.0922,-2.0761,-2.0476,-2.0315,-2.0167,-2.0155,-1.9835,-1.9516,-1.9333,-1.9163,-1.9266,-1.9437,-1.8971,-1.8391,-1.7684,-1.6954,-1.7191,-1.7427,-1.6869,-1.6552,-1.6932,-1.7251,-1.7055,-1.7044,-1.7097,-1.7107,-2.6145,-2.5876,-2.5637,-2.5531,-2.5576,-2.5736,-2.5736,-2.5559,-2.5614,-2.5746,-2.5608,-2.5608,-2.574,-2.5959,-2.578,-2.5823,-2.6037,-2.591,-2.5698,-2.5556,-2.5712,-2.5712,-2.5541,-2.5499,-2.5215,-2.4371,-2.463,-2.4651,-2.4444,-2.4475,-2.4728,-2.458,-2.4485,-2.4336,-2.4161,-2.4133,-2.4174,-2.4125,-2.4233,-2.4233,-2.4035,-2.4075,-2.4008,-2.3915,-2.346,-2.3354,-2.3327,-2.31,-2.2886,-2.2926,-2.2939,-2.2953,-2.2993,-2.2939,-2.2979,-2.3006,-2.3273,-2.338,-2.342,-2.3581,-2.3701,-2.3456,-2.3599,-2.3741,-2.3572,-2.3674,-2.3674,-2.3634,-2.3527,-2.3253,-2.31,-2.3051,-2.309,-2.2986,-2.2933,-2.2955,-2.2935,-2.2592,-2.2354,-2.2048,-2.2186,-2.2199,-2.2087,-2.1974,-2.1961,-2.1949,-2.1936,-2.1785,-2.1798,-2.1634,-2.1283,-2.1233,-2.1034,-2.1021,-2.0872,-2.086,-2.0537,-2.0227,-2.0054,-2.0275,-2.0557,-2.0071,-1.9393,-1.8959,-1.8541,-1.8372,-1.8182,-1.7803,-1.7669,-1.789,-1.789,-1.7836,-1.7847,-1.7744,-1.7723,-2.6934,-2.6965,-2.7233,-2.7191,-2.7254,-2.7292,-2.7262,-2.7093,-2.6568,-2.6489,-2.6334,-2.607,-2.5974,-2.6105,-2.6325,-2.6559,-2.6691,-2.6576,-2.6605,-2.646,-2.6605,-2.646,-2.6431,-2.6344,-2.6128,-2.5712,-2.5468,-2.5235,-2.5257,-2.5597,-2.5465,-2.5368,-2.5202,-2.5036,-2.5008,-2.511,-2.4726,-2.4583,-2.4548,-2.4535,-2.4192,-2.426,-2.438,-2.438,-2.3829,-2.3655,-2.3655,-2.3193,-2.2979,-2.3207,-2.3247,-2.338,-2.3487,-2.338,-2.3394,-2.3514,-2.3634,-2.3701,-2.3714,-2.3768,-2.3781,-2.3612,-2.3678,-2.3821,-2.3821,-2.3808,-2.3861,-2.3808,-2.3781,-2.3701,-2.3688,-2.3483,-2.3443,-2.3532,-2.3364,-2.3169,-2.3439,-2.3346,-2.3187,-2.273,-2.2664,-2.2704,-2.2684,-2.261,-2.261,-2.2471,-2.2445,-2.2267,-2.2241,-2.2051,-2.1849,-2.1785,-2.1596,-2.1596,-2.1584,-2.1571,-2.1408,-2.1233,-2.1071,-2.0921,-2.1158,-2.0882,-2.0371,-1.9941,-1.9335,-1.8776,-1.8709,-1.8619,-1.8755,-1.8948,-1.8789,-1.863,-1.8494,-1.8358,-1.8178,-2.7429,-2.7471,-2.7629,-2.7668,-2.7736,-2.7911,-2.7679,-2.7432,-2.7305,-2.71,-2.6818,-2.6691,-2.6511,-2.6515,-2.6661,-2.6866,-2.6954,-2.6998,-2.6998,-2.6998,-2.6998,-2.6998,-2.6954,-2.6837,-2.6648,-2.6388,-2.6171,-2.5696,-2.5562,-2.573,-2.5786,-2.5758,-2.5632,-2.5576,-2.5534,-2.5408,-2.5366,-2.5036,-2.5049,-2.5063,-2.4747,-2.4815,-2.4815,-2.4597,-2.4405,-2.4214,-2.4214,-2.4104,-2.3954,-2.4077,-2.3963,-2.3985,-2.4133,-2.4018,-2.3781,-2.3808,-2.3915,-2.3995,-2.4035,-2.4115,-2.4235,-2.4077,-2.4195,-2.4222,-2.4222,-2.4235,-2.4128,-2.4062,-2.4168,-2.4142,-2.3864,-2.3957,-2.397,-2.3864,-2.3811,-2.3758,-2.3781,-2.3789,-2.3547,-2.3319,-2.33,-2.3394,-2.3474,-2.336,-2.3179,-2.3139,-2.2946,-2.2894,-2.2701,-2.2549,-2.251,-2.2357,-2.2331,-2.2128,-2.2102,-2.2203,-2.219,-2.2025,-2.1849,-2.1836,-2.1647,-2.1521,-2.1358,-2.0995,-2.0269,-1.9531,-1.9945,-2.0275,-2.0012,-1.9863,-1.9725,-1.9565,-1.9267,-1.8969,-1.8787,-2.8626,-2.8603,-2.8549,-2.8607,-2.8622,-2.8694,-2.8569,-2.799,-2.791,-2.7733,-2.7432,-2.7304,-2.7311,-2.7215,-2.7114,-2.7129,-2.6998,-2.6998,-2.6998,-2.6998,-2.6998,-2.6998,-2.691,-2.6808,-2.6749,-2.6881,-2.6619,-2.6301,-2.5983,-2.5994,-2.6078,-2.6093,-2.6093,-2.6093,-2.6022,-2.6011,-2.5923,-2.5777,-2.5735,-2.5721,-2.559,-2.552,-2.5268,-2.4988,-2.496,-2.4974,-2.5002,-2.472,-2.4876,-2.479,-2.4703,-2.4671,-2.4933,-2.4711,-2.4471,-2.4323,-2.4313,-2.4262,-2.4342,-2.4449,-2.4543,-2.4529,-2.4596,-2.4623,-2.4596,-2.4516,-2.4502,-2.4382,-2.4436,-2.4516,-2.4196,-2.4329,-2.4436,-2.4407,-2.4471,-2.4562,-2.4249,-2.4059,-2.3977,-2.3923,-2.3958,-2.3931,-2.3877,-2.3687,-2.3413,-2.3923,-2.3755,-2.3655,-2.3474,-2.3426,-2.3285,-2.3156,-2.2975,-2.273,-2.2665,-2.2714,-2.2714,-2.2728,-2.2688,-2.2523,-2.2419,-2.219,-2.2013,-2.1836,-2.1333,-2.0743,-2.1207,-2.1496,-2.0995,-2.0707,-2.0629,-2.0352,-2.0119,-1.983,-1.9681,-3.164,-3.1577,-3.1524,-3.158,-3.1392,-3.0899,-3.0626,-3.0277,-2.9155,-2.8644,-2.8598,-2.8197,-2.8068,-2.7985,-2.7695,-2.742,-2.7129,-2.7129,-2.7129,-2.7129,-2.7144,-2.6998,-2.6998,-2.6983,-2.691,-2.6998,-2.6954,-2.6939,-2.675,-2.6663,-2.6838,-2.6692,-2.6692,-2.6838,-2.6677,-2.6663,-2.6663,-2.6385,-2.6342,-2.6068,-2.5622,-2.5735,-2.5492,-2.531,-2.5383,-2.5397,-2.5355,-2.5228,-2.5214,-2.5411,-2.5296,-2.5436,-2.5674,-2.5597,-2.5583,-2.5409,-2.4997,-2.4583,-2.4569,-2.4743,-2.4623,-2.4623,-2.4636,-2.4636,-2.4636,-2.4636,-2.4609,-2.4609,-2.4623,-2.4609,-2.4543,-2.4596,-2.4622,-2.4793,-2.4829,-2.4966,-2.4703,-2.4534,-2.4424,-2.451,-2.4492,-2.4313,-2.4176,-2.3803,-2.3653,-2.4219,-2.4595,-2.4368,-2.4167,-2.4161,-2.3928,-2.3811,-2.3562,-2.3314,-2.3222,-2.313,-2.3219,-2.3386,-2.336,-2.3179,-2.3227,-2.3107,-2.2988,-2.2658,-2.2151,-2.1823,-2.2125,-2.2112,-2.1785,-2.1484,-2.1346,-2.1207,-2.1057,-2.0804,-2.0388,-3.3206,-3.2394,-3.2165,-3.2085,-3.2018,-3.1772,-3.1559,-3.1277,-3.0693,-3.0266,-2.9981,-2.9838,-2.9409,-2.8835,-2.8547,-2.8274,-2.771,-2.7565,-2.7565,-2.742,-2.7274,-2.7274,-2.6998,-2.6998,-2.6998,-2.7071,-2.7144,-2.7115,-2.7071,-2.7013,-2.6998,-2.6998,-2.6998,-2.6998,-2.7027,-2.7188,-2.6983,-2.6896,-2.6663,-2.6518,-2.6186,-2.6027,-2.5984,-2.5684,-2.5841,-2.5927,-2.5927,-2.6171,-2.6171,-2.6185,-2.6185,-2.6082,-2.605,-2.5946,-2.5786,-2.5786,-2.5492,-2.5359,-2.5359,-2.5212,-2.5051,-2.473,-2.4743,-2.4784,-2.4636,-2.4636,-2.4784,-2.4931,-2.4931,-2.4918,-2.4891,-2.4716,-2.4688,-2.487,-2.5319,-2.5194,-2.5184,-2.5184,-2.5128,-2.5072,-2.4988,-2.482,-2.4736,-2.475,-2.4609,-2.5002,-2.5212,-2.5138,-2.4788,-2.462,-2.4488,-2.4315,-2.4182,-2.4022,-2.3785,-2.3692,-2.3701,-2.3843,-2.3971,-2.3931,-2.4172,-2.4063,-2.3827,-2.3732,-2.3539,-2.3332,-2.3113,-2.2553,-2.2186,-2.2035,-2.2035,-2.1897,-2.176,-2.1496,-2.122,-3.3932,-3.3075,-3.2755,-3.2556,-3.2526,-3.2386,-3.2105,-3.1841,-3.1559,-3.1418,-3.126,-3.1118,-3.0534,-2.9838,-2.9409,-2.8979,-2.8418,-2.813,-2.7985,-2.784,-2.7565,-2.7479,-2.7363,-2.7217,-2.7086,-2.7217,-2.7349,-2.7393,-2.7335,-2.7247,-2.7217,-2.7013,-2.6998,-2.6998,-2.7071,-2.7261,-2.7335,-2.7174,-2.7042,-2.6881,-2.6705,-2.6647,-2.653,-2.6442,-2.6486,-2.6617,-2.6661,-2.6808,-2.6954,-2.6823,-2.6663,-2.6517,-2.6546,-2.6385,-2.6239,-2.6239,-2.6093,-2.6093,-2.5946,-2.58,-2.5465,-2.5157,-2.5157,-2.5226,-2.5079,-2.4931,-2.4918,-2.5373,-2.5373,-2.5359,-2.5318,-2.513,-2.5139,-2.5361,-2.5636,-2.5552,-2.5453,-2.5526,-2.5427,-2.53,-2.5243,-2.53,-2.5286,-2.547,-2.564,-2.5852,-2.5848,-2.573,-2.5465,-2.5051,-2.4864,-2.4796,-2.4436,-2.4434,-2.4671,-2.4562,-2.4426,-2.4344,-2.4473,-2.4589,-2.4731,-2.4832,-2.4748,-2.4651,-2.468,-2.4316,-2.3967,-2.3252,-2.2572,-2.2722,-2.2859,-2.2722,-2.2448,-2.2186,-2.2048,-3.3937,-3.4218,-3.4147,-3.39,-3.3539,-3.2963,-3.2666,-3.2526,-3.1982,-3.17,-3.17,-3.1559,-3.1401,-3.0835,-3.0266,-2.9838,-2.9266,-2.8418,-2.8449,-2.816,-2.7855,-2.8006,-2.7936,-2.7673,-2.7423,-2.7656,-2.77,-2.773,-2.7803,-2.7773,-2.7481,-2.7086,-2.7174,-2.7056,-2.71,-2.732,-2.7495,-2.7378,-2.7247,-2.7115,-2.7027,-2.7013,-2.6969,-2.6954,-2.6939,-2.6954,-2.6969,-2.6983,-2.6998,-2.6998,-2.6983,-2.6838,-2.6838,-2.6838,-2.6692,-2.6692,-2.6692,-2.6692,-2.6692,-2.6239,-2.5946,-2.5786,-2.5639,-2.5653,-2.5506,-2.5653,-2.5653,-2.5653,-2.58,-2.58,-2.5786,-2.5758,-2.5777,-2.5795,-2.5883,-2.5798,-2.5698,-2.577,-2.5669,-2.5512,-2.5569,-2.5741,-2.5955,-2.6143,-2.6186,-2.6373,-2.6242,-2.6125,-2.5772,-2.5359,-2.5212,-2.5185,-2.4757,-2.485,-2.5437,-2.5326,-2.5056,-2.5029,-2.5174,-2.5119,-2.5049,-2.5152,-2.554,-2.5385,-2.5272,-2.5045,-2.4778,-2.4066,-2.3666,-2.3762,-2.3721,-2.3447,-2.3282,-2.3117,-2.2939,-3.35,-3.3161,-3.3573,-3.3768,-3.3817,-3.3521,-3.3381,-3.3381,-3.3103,-3.2963,-3.2963,-3.2963,-3.2684,-3.2105,-3.1824,-3.126,-3.0693,-3.0409,-3.0255,-3.0176,-2.9889,-2.9504,-2.9179,-2.8719,-2.8293,-2.8148,-2.8012,-2.7964,-2.7934,-2.8154,-2.7993,-2.77,-2.7583,-2.7437,-2.7452,-2.7437,-2.7569,-2.7715,-2.7656,-2.7583,-2.7583,-2.7583,-2.7583,-2.7583,-2.7349,-2.7305,-2.7261,-2.7071,-2.7027,-2.6998,-2.6998,-2.6998,-2.6998,-2.6998,-2.6998,-2.6998,-2.6998,-2.6998,-2.6998,-2.6692,-2.6399,-2.6239,-2.6078,-2.5946,-2.5974,-2.5814,-2.5946,-2.6093,-2.6282,-2.6324,-2.656,-2.6531,-2.6445,-2.6402,-2.6301,-2.6099,-2.6056,-2.6042,-2.6042,-2.6013,-2.6272,-2.6576,-2.6619,-2.6663,-2.6822,-2.6837,-2.6532,-2.6387,-2.6036,-2.5667,-2.5506,-2.5506,-2.5226,-2.5373,-2.58,-2.5653,-2.5506,-2.5667,-2.5814,-2.5702,-2.5721,-2.6228,-2.6446,-2.6143,-2.5984,-2.5883,-2.5569,-2.5031,-2.4665,-2.4454,-2.4344,-2.4331,-2.4108,-2.3942,-2.3694,-3.3043,-3.2674,-3.2823,-3.3095,-3.3431,-3.3578,-3.3633,-3.3651,-3.3762,-3.3817,-3.3817,-3.3817,-3.3521,-3.3103,-3.2666,-3.2386,-3.1824,-3.1576,-3.1657,-3.1456,-3.1186,-3.1015,-3.0665,-3.0208,-2.9665,-2.9076,-2.9018,-2.9048,-2.8482,-2.8644,-2.8571,-2.83,-2.8212,-2.8008,-2.7686,-2.7642,-2.7773,-2.8008,-2.7993,-2.8037,-2.8052,-2.7964,-2.8008,-2.7949,-2.7686,-2.7452,-2.7349,-2.7159,-2.7013,-2.6998,-2.6998,-2.6998,-2.6998,-2.6998,-2.6998,-2.6998,-2.6998,-2.6998,-2.6998,-2.6998,-2.6838,-2.6546,-2.669,-2.6528,-2.6528,-2.66,-2.7054,-2.7187,-2.7158,-2.71,-2.7247,-2.701,-2.7025,-2.6923,-2.6589,-2.6371,-2.6459,-2.643,-2.6576,-2.6576,-2.6648,-2.6619,-2.6765,-2.6765,-2.691,-2.691,-2.6605,-2.6459,-2.6502,-2.6107,-2.5814,-2.5667,-2.5667,-2.5814,-2.6093,-2.58,-2.58,-2.5946,-2.6107,-2.6253,-2.6502,-2.6838,-2.6896,-2.6474,-2.6357,-2.6673,-2.6398,-2.5739,-2.5383,-2.5029,-2.5086,-2.5003,-2.4762,-2.4578,-2.4313,-3.2668,-3.2879,-3.2263,-3.2258,-3.2661,-3.3065,-3.3248,-3.3358,-3.3651,-3.3817,-3.3817,-3.3817,-3.3817,-3.3539,-3.3103,-3.2841,-3.2772,-3.221,-3.2152,-3.2446,-3.2337,-3.2261,-3.2187,-3.1861,-3.1251,-3.1213,-3.0788,-2.9977,-2.9419,-2.9404,-2.9249,-2.8939,-2.8666,-2.8476,-2.7993,-2.7949,-2.811,-2.833,-2.811,-2.8227,-2.8315,-2.8198,-2.8256,-2.8242,-2.7934,-2.7671,-2.7598,-2.7349,-2.7188,-2.71,-2.7217,-2.7188,-2.7144,-2.7129,-2.7129,-2.7129,-2.7129,-2.7129,-2.6983,-2.6998,-2.7129,-2.7173,-2.7335,-2.7511,-2.7925,-2.8238,-2.8238,-2.8119,-2.8357,-2.8118,-2.7832,-2.7337,-2.743,-2.7536,-2.7332,-2.7172,-2.7247,-2.7012,-2.713,-2.7013,-2.6692,-2.6531,-2.6546,-2.6692,-2.6983,-2.6838,-2.6531,-2.6546,-2.6546,-2.6399,-2.6107,-2.596,-2.596,-2.6253,-2.6399,-2.6093,-2.5946,-2.6239,-2.6546,-2.6546,-2.6692,-2.6838,-2.6837,-2.6632,-2.6632,-2.682,-2.6603,-2.65,-2.604,-2.591,-2.5765,-2.5848,-2.5586,-2.5259,-2.5034,-3.2497,-3.2501,-3.1838,-3.1653,-3.1891,-3.2514,-3.2955,-3.3266,-3.3615,-3.3817,-3.3817,-3.3817,-3.3817,-3.3678,-3.3575,-3.3526,-3.3726,-3.3798,-3.3767,-3.4233,-3.3928,-3.3833,-3.3804,-3.3334,-3.2608,-3.1755,-3.1197,-3.0882,-2.9804,-2.9989,-2.9679,-2.9368,-2.9027,-2.8666,-2.8373,-2.8271,-2.8359,-2.8447,-2.8505,-2.8637,-2.871,-2.8622,-2.8593,-2.8695,-2.8286,-2.8066,-2.8022,-2.77,-2.7481,-2.7467,-2.7438,-2.7467,-2.7494,-2.758,-2.771,-2.771,-2.7725,-2.771,-2.771,-2.771,-2.7695,-2.783,-2.8026,-2.8384,-2.8547,-2.8805,-2.8941,-2.9017,-2.9078,-2.8913,-2.8642,-2.7968,-2.8088,-2.8957,-2.8984,-2.8668,-2.8414,-2.7984,-2.7585,-2.7378,-2.7129,-2.6838,-2.6983,-2.6983,-2.7129,-2.7173,-2.7027,-2.6706,-2.6546,-2.6546,-2.6253,-2.6239,-2.6399,-2.6546,-2.6692,-2.6399,-2.6428,-2.6764,-2.6881,-2.6838,-2.6983,-2.6896,-2.691,-2.6764,-2.6793,-2.6822,-2.6735,-2.6676,-2.6749,-2.6676,-2.6471,-2.631,-2.5993,-2.579,-2.56,-3.2422,-3.2294,-3.1635,-3.1377,-3.1488,-3.2111,-3.2625,-3.3028,-3.3413,-3.3615,-3.3633,-3.3743,-3.3817,-3.3853,-3.3982,-3.4092,-3.4403,-3.4587,-3.488,-3.554,-3.5375,-3.5084,-3.4971,-3.4765,-3.4075,-3.291,-3.2574,-3.2113,-3.0917,-3.0747,-3.0299,-2.9679,-2.9212,-2.8939,-2.8622,-2.8593,-2.8593,-2.8666,-2.8739,-2.8827,-2.8856,-2.8856,-2.8856,-2.8783,-2.8593,-2.8403,-2.8344,-2.8139,-2.7861,-2.797,-2.794,-2.7954,-2.8067,-2.8061,-2.8221,-2.8267,-2.8435,-2.8481,-2.8673,-2.8688,-2.8719,-2.9012,-2.8872,-2.8949,-2.9072,-2.9606,-2.9791,-2.9837,-2.976,-2.9609,-2.9427,-2.8716,-2.9215,-3.0124,-2.9833,-2.9513,-2.921,-2.8641,-2.8191,-2.7966,-2.764,-2.7479,-2.7319,-2.742,-2.7565,-2.7479,-2.7524,-2.7217,-2.6896,-2.6735,-2.6706,-2.6692,-2.6677,-2.6838,-2.6983,-2.6983,-2.7042,-2.7276,-2.7261,-2.7086,-2.6998,-2.6923,-2.691,-2.6881,-2.6778,-2.672,-2.6793,-2.6822,-2.7011,-2.7026,-2.6923,-2.6647,-2.653,-2.6296,-2.6047,-3.2422,-3.2294,-3.1635,-3.1377,-3.1451,-3.1818,-3.2203,-3.2625,-3.3028,-3.3211,-3.3266,-3.3633,-3.3762,-3.389,-3.4165,-3.433,-3.4477,-3.4788,-3.5155,-3.5504,-3.5559,-3.5687,-3.5851,-3.5812,-3.5181,-3.4936,-3.4556,-3.3348,-3.2146,-3.1977,-3.1055,-2.9989,-2.9679,-2.9323,-2.8983,-2.8812,-2.8812,-2.8827,-2.8842,-2.8886,-2.8886,-2.8886,-2.8886,-2.8812,-2.8666,-2.8549,-2.8447,-2.8271,-2.8384,-2.8342,-2.8268,-2.8429,-2.8395,-2.8328,-2.8435,-2.878,-2.9087,-2.9431,-2.961,-2.9579,-2.9743,-2.9828,-2.9539,-2.9601,-2.9756,-3.0249,-3.0467,-3.056,-3.0545,-3.0453,-3.0176,-3.0161,-3.0315,-3.0391,-3.0252,-2.9945,-2.9775,-2.9379,-2.8877,-2.8633,-2.8289,-2.8228,-2.8097,-2.8197,-2.8112,-2.8188,-2.8263,-2.8101,-2.7747,-2.7583,-2.7539,-2.7129,-2.7274,-2.7274,-2.7274,-2.742,-2.745,-2.767,-2.7408,-2.7291,-2.7201,-2.7201,-2.7041,-2.6983,-2.6691,-2.6632,-2.6938,-2.7186,-2.7245,-2.723,-2.7331,-2.7127,-2.6979,-2.653,-2.6296,-3.2804,-3.2657,-3.2038,-3.1782,-3.1672,-3.1653,-3.1799,-3.2203,-3.2606,-3.2918,-3.323,-3.334,-3.356,-3.3817,-3.3927,-3.4165,-3.4477,-3.4788,-3.5009,-3.532,-3.5705,-3.5815,-3.5944,-3.6054,-3.57,-3.5306,-3.4857,-3.4556,-3.35,-3.3044,-3.213,-3.1055,-3.0593,-2.9974,-2.9353,-2.8886,-2.8886,-2.8886,-2.8886,-2.8886,-2.8886,-2.8886,-2.8886,-2.8827,-2.8798,-2.871,-2.8666,-2.8946,-2.8951,-2.8866,-2.9167,-2.9236,-2.9059,-2.9143,-2.9529,-2.9828,-2.997,-3.0017,-3.0166,-3.0182,-3.0229,-3.0473,-3.0285,-3.0545,-3.0688,-3.0925,-3.1241,-3.1087,-3.1087,-3.0917,-3.0763,-3.0933,-3.0948,-3.0854,-3.0745,-3.0651,-3.0327,-3.0109,-2.9601,-2.9338,-2.8989,-2.8989,-2.8842,-2.8888,-2.8949,-2.901,-2.9026,-2.8862,-2.8786,-2.8456,-2.8188,-2.7936,-2.78,-2.7815,-2.7885,-2.787,-2.7901,-2.7946,-2.7688,-2.7703,-2.7911,-2.7866,-2.7453,-2.7261,-2.7156,-2.7097,-2.7316,-2.7375,-2.7565,-2.771,-2.781,-2.7635,-2.7286,-2.6979,-2.6702,-3.265,-3.2657,-3.2166,-3.1782,-3.1653,-3.1506,-3.1543,-3.1818,-3.2184,-3.2588,-3.2973,-3.3156,-3.3431,-3.3798,-3.4,-3.422,-3.4422,-3.4807,-3.5045,-3.521,-3.5669,-3.5724,-3.5797,-3.5962,-3.5867,-3.5605,-3.5306,-3.5157,-3.4406,-3.3651,-3.2892,-3.213,-3.1654,-3.0886,-3.0268,-2.9819,-2.9353,-2.9353,-2.9197,-2.8886,-2.8886,-2.8886,-2.8886,-2.8886,-2.8886,-2.8886,-2.8886,-2.9368,-2.9404,-2.9363,-2.9822,-2.9875,-2.979,-3.0103,-3.0283,-3.0553,-3.0728,-3.0791,-3.0823,-3.0791,-3.0759,-3.0775,-3.0918,-3.1029,-3.1109,-3.1268,-3.1363,-3.1395,-3.1395,-3.1395,-3.1395,-3.1395,-3.1395,-3.1379,-3.1331,-3.13,-3.0972,-3.0798,-3.0379,-3.0096,-2.9837,-2.9672,-2.9688,-2.9586,-2.9586,-2.9704,-2.9868,-2.9915,-2.9672,-2.9369,-2.8964,-2.8592,-2.8395,-2.8404,-2.8328,-2.8427,-2.8458,-2.8374,-2.8011,-2.8161,-2.8562,-2.871,-2.8587,-2.8127,-2.764,-2.7725,-2.7665,-2.7825,-2.784,-2.813,-2.8274,-2.8099,-2.7924,-2.7719,-2.747,-3.2363,-3.2365,-3.2038,-3.1653,-3.1377,-3.1377,-3.1396,-3.1414,-3.1799,-3.2203,-3.2625,-3.2991,-3.3376,-3.378,-3.4055,-3.4202,-3.4385,-3.4678,-3.4788,-3.4972,-3.5357,-3.5467,-3.5522,-3.5907,-3.5869,-3.6109,-3.6052,-3.5605,-3.5157,-3.4556,-3.3954,-3.3348,-3.2892,-3.2283,-3.1501,-3.0593,-3.0129,-2.9819,-2.9353,-2.9197,-2.8886,-2.8886,-2.8886,-2.8886,-2.8886,-2.8886,-2.9042,-2.9368,-2.9679,-2.9868,-3.0145,-3.0369,-3.0624,-3.0759,-3.0791,-3.0934,-3.1109,-3.1172,-3.1204,-3.1204,-3.1252,-3.1284,-3.1379,-3.1379,-3.1427,-3.1474,-3.1538,-3.1458,-3.1443,-3.1443,-3.1443,-3.1411,-3.1395,-3.1395,-3.1363,-3.1347,-3.1268,-3.0972,-3.0814,-3.0593,-3.0545,-3.0379,-3.0379,-3.0426,-3.0458,-3.0466,-3.0482,-3.0561,-3.0498,-3.0056,-2.975,-2.9374,-2.9159,-2.9121,-2.9074,-2.919,-2.8981,-2.885,-2.8603,-2.874,-2.922,-2.9439,-2.9577,-2.8742,-2.7901,-2.8015,-2.813,-2.813,-2.8274,-2.8563,-2.8707,-2.8563,-2.8403,-2.8228,-2.8068,-3.2312,-3.2363,-3.2053,-3.1653,-3.1377,-3.1377,-3.1377,-3.1377,-3.1469,-3.1946,-3.2514,-3.2735,-3.3138,-3.3743,-3.3872,-3.3963,-3.4092,-3.4348,-3.433,-3.4495,-3.4844,-3.5082,-3.4972,-3.554,-3.576,-3.587,-3.5999,-3.6052,-3.5754,-3.5456,-3.5007,-3.4255,-3.3802,-3.3196,-3.2419,-3.1501,-3.0901,-3.0438,-3.0035,-2.9412,-2.8944,-2.8915,-2.8886,-2.89,-2.89,-2.893,-2.9086,-2.9412,-2.9553,-2.9619,-2.9962,-3.0432,-3.0855,-3.0871,-3.1014,-3.122,-3.1331,-3.1395,-3.1443,-3.1458,-3.1474,-3.1458,-3.1474,-3.1601,-3.1681,-3.1744,-3.1729,-3.1617,-3.1522,-3.1522,-3.149,-3.1458,-3.1427,-3.1427,-3.1411,-3.1411,-3.1411,-3.13,-3.1188,-3.1141,-3.1093,-3.1077,-3.1061,-3.1093,-3.1141,-3.1157,-3.1188,-3.1204,-3.1157,-3.0877,-3.0561,-3.0119,-3.0049,-2.9891,-2.986,-2.9765,-2.954,-2.9508,-2.926,-2.9548,-2.9853,-2.9907,-2.975,-2.8857,-2.8145,-2.8335,-2.864,-2.8563,-2.8707,-2.8995,-2.8995,-2.8851,-2.8851,-2.8835,-2.8547,-3.1886,-3.1941,-3.1715,-3.1487,-3.1359,-3.1377,-3.1377,-3.1377,-3.1377,-3.1726,-3.2276,-3.2386,-3.279,-3.3468,-3.356,-3.3725,-3.3817,-3.4018,-3.4037,-3.411,-3.4385,-3.4697,-3.4935,-3.5284,-3.5705,-3.5907,-3.6054,-3.6201,-3.6201,-3.6052,-3.5605,-3.5157,-3.4707,-3.4238,-3.3331,-3.2892,-3.1977,-3.104,-3.0717,-3.0156,-2.9203,-2.9003,-2.8915,-2.89,-2.9017,-2.9061,-2.9336,-2.9537,-2.9972,-3.0039,-3.0312,-3.033,-3.056,-3.0667,-3.0898,-3.1162,-3.1257,-3.1458,-3.1554,-3.1617,-3.1665,-3.1729,-3.1824,-3.2046,-3.2142,-3.2189,-3.211,-3.1983,-3.1776,-3.1744,-3.1557,-3.1526,-3.1681,-3.1681,-3.1478,-3.1447,-3.1336,-3.1347,-3.13,-3.1284,-3.1268,-3.1268,-3.1252,-3.1252,-3.1284,-3.1284,-3.1379,-3.1379,-3.1395,-3.1395,-3.1109,-3.0886,-3.0664,-3.0553,-3.0537,-3.0245,-3.0071,-3.0071,-2.9954,-2.9976,-2.9992,-2.9986,-2.9759,-2.9221,-2.8826,-2.8972,-2.9101,-2.8945,-2.901,-2.9154,-2.9154,-2.9298,-2.9298,-2.9298,-2.901,-3.1479,-3.1455,-3.1396,-3.1283,-3.1341,-3.1377,-3.1377,-3.1377,-3.1377,-3.1616,-3.2001,-3.2038,-3.2496,-3.2991,-3.3321,-3.356,-3.3743,-3.3872,-3.3835,-3.3927,-3.4238,-3.4513,-3.4917,-3.5357,-3.576,-3.6036,-3.6182,-3.6201,-3.6201,-3.6201,-3.6201,-3.6052,-3.5903,-3.5605,-3.5306,-3.4556,-3.3348,-3.2397,-3.1772,-3.0839,-3.0009,-2.9164,-2.912,-2.9164,-2.9266,-2.9412,-2.9704,-2.9981,-3.0319,-3.0505,-3.0408,-3.0449,-3.0546,-3.0747,-3.087,-3.1087,-3.1241,-3.157,-3.176,-3.184,-3.2046,-3.2253,-3.238,-3.2459,-3.2523,-3.2539,-3.2459,-3.2348,-3.2158,-3.203,-3.1842,-3.181,-3.1967,-3.1763,-3.1543,-3.1449,-3.1447,-3.1443,-3.1395,-3.1395,-3.1395,-3.1395,-3.1395,-3.1395,-3.1395,-3.1395,-3.1395,-3.1395,-3.1395,-3.1395,-3.1268,-3.1141,-3.1029,-3.095,-3.0918,-3.0791,-3.0601,-3.0569,-3.0569,-3.0351,-3.016,-3.0235,-3.015,-2.9992,-2.9802,-2.9628,-2.9439,-2.9265,-2.9361,-2.9298,-2.9298,-2.9298,-2.9298,-2.9298,-2.9298,-3.1107,-3.121,-3.1271,-3.1283,-3.1341,-3.1377,-3.1377,-3.1377,-3.1377,-3.1616,-3.1909,-3.2074,-3.2459,-3.323,-3.3578,-3.378,-3.378,-3.3817,-3.3817,-3.389,-3.4165,-3.4385,-3.4752,-3.532,-3.5797,-3.6054,-3.6201,-3.6201,-3.6201,-3.6201,-3.6219,-3.6237,-3.5754,-3.5605,-3.5474,-3.491,-3.4394,-3.3585,-3.2698,-3.1868,-3.0851,-3.0265,-2.9836,-2.972,-2.9734,-2.9778,-2.9807,-2.9983,-3.0013,-3.0085,-3.0355,-3.0617,-3.0762,-3.0919,-3.1166,-3.115,-3.1288,-3.1697,-3.1903,-3.2046,-3.2269,-3.2523,-3.2618,-3.2682,-3.2761,-3.2888,-3.2825,-3.2825,-3.2666,-3.2507,-3.2459,-3.2539,-3.2507,-3.2047,-3.1795,-3.1794,-3.1792,-3.1586,-3.1443,-3.1427,-3.1395,-3.1395,-3.1395,-3.1395,-3.1395,-3.1395,-3.1395,-3.1395,-3.1395,-3.1395,-3.1395,-3.1347,-3.1284,-3.1315,-3.1284,-3.1204,-3.1077,-3.1181,-3.1054,-3.075,-3.0675,-3.0447,-3.0447,-3.0378,-3.0092,-2.9822,-2.9631,-2.9568,-2.9377,-2.9329,-2.9298,-2.9298,-2.9298,-2.9298,-2.9298]},{"header":{"parameterUnit":"m.s-1","parameterCategory":1,"la1":31.0,"la2":29.5877,"lo1":-88.7671,"lo2":-86.6584,"dy":0.0162,"dx":0.0185,"nx":115,"ny":88,"refTime":"2023-06-14T06:00:00:Z","depth":0,"parameterNumber":3,"parameterNumberName":"V-component_of_WINDS"},"data":[0.0,0.0,0.0,0.0,0.0,0.0,0.0,0.0,0.0,0.0,0.0,0.0,0.0,0.0,0.0,0.0,0.0,0.0,0.0,0.0,0.0,0.0,0.0,0.0,0.0,0.0,0.0,0.0,0.0,0.0,0.0,0.0,0.0,0.0,0.0,0.0,0.0,0.0,0.0,0.0,0.0,0.0,0.0,0.0,0.0,0.0,0.0,0.0,0.0,0.0,0.0,0.0,0.0,0.0,0.0,0.0,0.0,0.0,0.0,0.0,0.0,0.0,0.0,0.0,0.0,0.0,0.0,0.0,0.0,0.0,0.0,0.0,0.0,0.0,0.0,0.0,0.0,0.0,0.0,0.0,0.0,0.0,0.0,0.0,0.0,0.0,0.0,0.0,0.0,0.0,0.0,0.0,0.0,0.0,0.0,0.0,0.0,0.0,0.0,0.0,0.0,0.0,0.0,0.0,0.0,0.0,0.0,0.0,0.0,0.0,0.0,0.0,0.0,0.0,0.0,0.0,0.0,0.0,0.0,0.0,0.0,0.0,0.0,0.0,0.0,0.0,0.0,0.0,0.0,0.0,0.0,0.0,0.0,0.0,0.0,0.0,0.0,0.0,0.0,0.0,0.0,0.0,0.0,0.0,0.0,0.0,0.0,0.0,0.0,0.0,0.0,0.0,0.0,0.0,0.0,0.0,0.0,0.0,0.0,0.0,0.0,0.0,0.0,0.0,0.0,0.0,0.0,0.0,0.0,0.0,0.0,0.0,0.0,0.0,0.0,0.0,0.0,0.0,0.0,0.0,0.0,0.0,0.0,0.0,0.0,0.0,0.0,0.0,0.0,0.0,0.0,0.0,0.0,0.0,0.0,0.0,0.0,0.0,0.0,0.0,0.0,0.0,0.0,0.0,0.0,0.0,0.0,0.0,0.0,0.0,0.0,0.0,0.0,0.0,0.0,0.0,0.0,0.0,0.0,0.0,0.0,0.0,0.0,0.0,0.0,0.0,0.0,0.0,0.0,0.0,0.0,0.0,0.0,0.0,0.0,0.0,0.0,0.0,0.0,0.0,0.0,0.0,0.0,0.0,0.0,0.0,0.0,0.0,0.0,0.0,0.0,0.0,0.0,0.0,0.0,0.0,0.0,0.0,0.0,0.0,0.0,0.0,0.0,0.0,0.0,0.0,0.0,0.0,0.0,0.0,0.0,0.0,0.0,0.0,0.0,0.0,0.0,0.0,0.0,0.0,0.0,0.0,0.0,0.0,0.0,0.0,0.0,0.0,0.0,0.0,0.0,0.0,0.0,0.0,0.0,0.0,0.0,0.0,0.0,0.0,0.0,0.0,0.0,0.0,0.0,0.0,0.0,0.0,0.0,0.0,0.0,0.0,0.0,0.0,0.0,0.0,0.0,0.0,0.0,0.0,0.0,0.0,0.0,0.0,0.0,0.0,0.0,0.0,0.0,0.0,0.0,0.0,0.0,0.0,0.0,0.0,0.0,0.0,0.0,0.0,0.0,0.0,0.0,0.0,0.0,0.0,0.0,0.0,0.0,0.0,0.0,0.0,0.0,0.0,0.0,0.0,0.0,0.0,0.0,0.0,0.0,0.0,0.0,0.0,0.0,0.0,0.0,0.0,0.0,0.0,0.0,0.0,0.0,0.0,0.0,0.0,0.0,0.0,0.0,0.0,0.0,0.0,0.0,0.0,0.0,0.0,0.0,0.0,0.0,0.0,0.0,0.0,0.0,0.0,0.0,0.0,0.0,0.0,0.0,0.0,0.0,0.0,0.0,0.0,0.0,0.0,0.0,0.0,0.0,0.0,0.0,0.0,0.0,0.0,0.0,0.0,0.0,0.0,0.0,0.0,0.0,0.0,0.0,0.0,0.0,0.0,0.0,0.0,0.0,0.0,0.0,0.0,0.0,0.0,0.0,0.0,0.0,0.0,0.0,0.0,0.0,0.0,0.0,0.0,0.0,0.0,0.0,0.0,0.0,0.0,0.0,0.0,0.0,0.0,0.0,0.0,0.0,0.0,0.0,0.0,0.0,0.0,0.0,0.0,0.0,0.0,0.0,0.0,0.0,0.0,0.0,0.0,0.0,0.0,0.0,0.0,0.0,0.0,0.0,0.0,0.0,0.0,0.0,0.0,0.0,0.0,0.0,0.0,0.0,0.0,0.0,0.0,0.0,0.0,0.0,0.0,0.0,0.0,0.0,0.0,0.0,0.0,0.0,0.0,0.0,0.0,0.0,0.0,0.0,0.0,0.0,0.0,0.0,0.0,0.0,0.0,0.0,0.0,0.0,0.0,0.0,0.0,0.0,0.0,0.0,0.0,0.0,0.0,0.0,0.0,0.0,0.0,0.0,0.0,0.0,0.0,0.0,0.0,0.0,0.0,0.0,0.0,0.0,0.0,0.0,0.0,0.0,0.0,0.0,0.0,0.0,0.0,0.0,0.0,0.0,0.0,0.0,0.0,0.0,0.0,0.0,0.0,0.0,0.0,0.0,0.0,0.0,0.0,0.0,0.0,0.0,0.0,0.0,0.0,0.0,0.0,0.0,0.0,0.0,0.0,0.0,0.0,0.0,0.0,0.0,0.0,0.0,0.0,0.0,0.0,0.0,0.0,0.0,0.0,0.0,0.0,0.0,0.0,0.0,0.0,0.0,0.0,0.0,0.0,0.0,0.0,0.0,0.0,0.0,0.0,0.0,0.0,0.0,0.0,0.0,0.0,0.0,0.0,0.0,0.0,0.0,0.0,0.0,0.0,0.0,0.0,0.0,0.0,0.0,0.0,0.0,0.0,0.0,0.0,0.0,0.0,0.0,0.0,0.0,0.0,0.0,0.0,0.0,0.0,0.0,0.0,0.0,0.0,0.0,0.0,0.0,0.0,0.0,0.0,0.0,0.0,0.0,0.0,0.0,0.0,0.0,0.0,0.0,0.0,0.0,0.0,0.0,0.0,0.0,0.0,0.0,0.0,0.0,0.0,0.0,0.0,0.0,0.0,0.0,0.0,0.0,0.0,0.0,0.0,0.0,0.0,0.0,0.0,0.0,0.0,0.0,0.0,0.0,0.0,0.0,0.0,0.0,0.0,0.0,0.0,0.0,0.0,0.0,0.0,0.0,0.0,0.0,0.0,0.0,0.0,0.0,0.0,0.0,0.0,0.0,0.0,0.0,0.0,0.0,0.0,0.0,0.0,0.0,0.0,0.0,0.0,0.0,0.0,0.0,0.0,0.0,0.0,0.0,0.0,0.0,0.0,0.0,0.0,0.0,0.0,0.0,0.0,0.0,0.0,0.0,0.0,0.0,0.0,0.0,0.0,0.0,0.0,0.0,0.0,0.0,0.0,0.0,0.0,0.0,0.0,0.0,0.0,0.0,0.0,0.0,0.0,0.0,0.0,0.0,0.0,0.0,0.0,0.0,0.0,0.0,0.0,0.0,0.0,0.0,0.0,0.0,0.0,0.0,0.0,0.0,0.0,0.0,0.0,0.0,0.0,0.0,0.0,0.0,0.0,0.0,0.0,0.0,0.0,0.0,0.0,0.0,0.0,0.0,0.0,0.0,0.0,0.0,0.0,0.0,0.0,0.0,0.0,0.0,0.0,0.0,0.0,0.0,0.0,0.0,0.0,0.0,0.0,0.0,0.0,0.0,0.0,0.0,0.0,0.0,0.0,0.0,0.0,0.0,0.0,0.0,0.0,0.0,0.0,0.0,0.0,0.0,0.0,0.0,0.0,0.0,0.0,0.0,0.0,0.0,0.0,0.0,0.0,0.0,0.0,0.0,0.0,0.0,0.0,0.0,0.0,0.0,0.0,0.0,0.0,0.0,0.0,0.0,0.0,0.0,0.0,0.0,0.0,0.0,0.0,0.0,0.0,0.0,0.0,0.0,0.0,0.0,0.0,0.0,0.0,0.0,0.0,0.0,0.0,0.0,0.0,0.0,0.0,0.0,0.0,0.0,0.0,0.0,0.0,0.0,0.0,0.0,0.0,0.0,0.0,0.0,0.0,0.0,0.0,0.0,0.0,0.0,0.0,0.0,0.0,0.0,0.0,0.0,0.0,0.0,0.0,0.0,0.0,0.0,0.0,0.0,0.0,0.0,0.0,0.0,0.0,0.0,0.0,0.0,0.0,0.0,0.0,0.0,0.0,0.0,0.0,0.0,0.0,0.0,0.0,0.0,0.0,0.0,0.0,0.0,0.0,0.0,0.0,0.0,0.0,0.0,0.0,0.0,0.0,0.0,0.0,0.0,0.0,0.0,0.0,0.0,0.0,-1.6731,0.0,0.0,0.0,0.0,0.0,0.0,0.0,0.0,0.0,0.0,0.0,0.0,0.0,0.0,0.0,0.0,0.0,0.0,0.0,0.0,0.0,0.0,0.0,0.0,0.0,0.0,0.0,0.0,0.0,0.0,0.0,0.0,0.0,0.0,0.0,0.0,0.0,0.0,0.0,0.0,0.0,0.0,0.0,0.0,0.0,0.0,0.0,0.0,0.0,0.0,0.0,0.0,0.0,0.0,0.0,0.0,0.0,0.0,0.0,0.0,0.0,0.0,0.0,0.0,0.0,0.0,0.0,0.0,0.0,0.0,0.0,0.0,0.0,0.0,0.0,0.0,0.0,0.0,0.0,0.0,0.0,0.0,0.0,0.0,0.0,0.0,0.0,0.0,0.0,0.0,0.0,0.0,0.0,0.0,0.0,0.0,0.0,0.0,0.0,0.0,0.0,0.0,0.0,0.0,0.0,0.0,0.0,0.0,0.0,0.0,-1.9594,-1.873,-1.8223,-1.7827,-1.7389,0.0,0.0,0.0,0.0,0.0,0.0,0.0,0.0,0.0,0.0,0.0,0.0,0.0,0.0,0.0,0.0,0.0,0.0,0.0,0.0,0.0,0.0,0.0,0.0,0.0,0.0,0.0,0.0,0.0,0.0,0.0,0.0,0.0,0.0,0.0,0.0,0.0,0.0,0.0,0.0,0.0,0.0,0.0,0.0,0.0,0.0,0.0,0.0,0.0,0.0,0.0,0.0,0.0,0.0,0.0,0.0,0.0,0.0,0.0,0.0,0.0,0.0,0.0,0.0,0.0,0.0,0.0,0.0,0.0,0.0,0.0,0.0,0.0,0.0,0.0,0.0,0.0,0.0,0.0,0.0,0.0,0.0,0.0,0.0,0.0,0.0,0.0,0.0,0.0,0.0,0.0,0.0,0.0,0.0,0.0,0.0,0.0,0.0,0.0,0.0,0.0,0.0,0.0,0.0,0.0,0.0,0.0,0.0,0.0,0.0,0.0,0.0,-1.8927,-1.8375,-1.7974,0.0,0.0,0.0,0.0,0.0,0.0,0.0,0.0,0.0,0.0,0.0,0.0,0.0,0.0,0.0,0.0,0.0,0.0,0.0,0.0,0.0,0.0,0.0,0.0,0.0,0.0,0.0,0.0,0.0,0.0,0.0,0.0,0.0,0.0,0.0,0.0,0.0,0.0,0.0,0.0,0.0,0.0,0.0,0.0,0.0,0.0,0.0,0.0,0.0,0.0,0.0,0.0,0.0,0.0,0.0,0.0,0.0,0.0,0.0,0.0,0.0,0.0,0.0,0.0,0.0,0.0,0.0,0.0,0.0,0.0,0.0,0.0,0.0,0.0,0.0,0.0,0.0,0.0,0.0,0.0,0.0,0.0,0.0,0.0,0.0,0.0,0.0,0.0,0.0,0.0,0.0,0.0,0.0,0.0,0.0,0.0,0.0,0.0,0.0,0.0,0.0,0.0,0.0,0.0,0.0,0.0,0.0,0.0,0.0,0.0,-2.0568,-2.0495,-2.0373,0.0,-1.8106,0.0,0.0,0.0,0.0,0.0,0.0,0.0,0.0,0.0,0.0,0.0,0.0,0.0,0.0,0.0,0.0,0.0,0.0,0.0,0.0,0.0,0.0,0.0,0.0,0.0,0.0,0.0,0.0,0.0,0.0,0.0,0.0,0.0,0.0,0.0,0.0,0.0,0.0,0.0,0.0,0.0,0.0,0.0,0.0,0.0,0.0,0.0,0.0,0.0,0.0,0.0,0.0,0.0,0.0,0.0,0.0,0.0,0.0,0.0,0.0,0.0,0.0,0.0,0.0,0.0,0.0,0.0,0.0,0.0,0.0,0.0,0.0,0.0,0.0,0.0,0.0,0.0,0.0,0.0,0.0,0.0,0.0,0.0,0.0,0.0,0.0,0.0,0.0,0.0,0.0,0.0,0.0,0.0,0.0,0.0,0.0,0.0,0.0,0.0,0.0,0.0,0.0,0.0,0.0,0.0,0.0,0.0,0.0,0.0,0.0,-2.0373,-1.9866,-1.9821,-1.927,0.0,0.0,0.0,0.0,0.0,0.0,0.0,0.0,0.0,0.0,0.0,0.0,0.0,0.0,0.0,0.0,0.0,0.0,0.0,0.0,0.0,0.0,0.0,0.0,0.0,0.0,0.0,0.0,0.0,0.0,0.0,0.0,0.0,0.0,0.0,0.0,0.0,0.0,0.0,0.0,0.0,0.0,0.0,0.0,0.0,0.0,0.0,0.0,0.0,0.0,0.0,0.0,0.0,0.0,0.0,0.0,0.0,0.0,0.0,0.0,0.0,0.0,0.0,0.0,0.0,0.0,0.0,0.0,0.0,0.0,0.0,0.0,0.0,0.0,0.0,0.0,0.0,0.0,0.0,0.0,0.0,0.0,0.0,0.0,0.0,0.0,0.0,0.0,0.0,0.0,0.0,0.0,0.0,0.0,0.0,0.0,0.0,0.0,0.0,0.0,0.0,0.0,0.0,0.0,0.0,0.0,0.0,0.0,0.0,0.0,-2.0381,-2.03,-1.9674,-1.9436,-1.9005,-1.8383,0.0,0.0,0.0,0.0,0.0,0.0,0.0,0.0,0.0,0.0,0.0,0.0,0.0,0.0,0.0,0.0,0.0,0.0,0.0,0.0,0.0,0.0,0.0,0.0,0.0,0.0,0.0,0.0,0.0,0.0,0.0,0.0,0.0,0.0,0.0,0.0,0.0,0.0,0.0,0.0,0.0,0.0,0.0,0.0,0.0,0.0,0.0,0.0,0.0,0.0,0.0,0.0,0.0,0.0,0.0,0.0,0.0,0.0,0.0,0.0,0.0,0.0,0.0,0.0,0.0,0.0,0.0,0.0,0.0,0.0,0.0,0.0,0.0,0.0,0.0,0.0,0.0,0.0,0.0,0.0,0.0,0.0,0.0,0.0,0.0,0.0,0.0,0.0,0.0,0.0,0.0,0.0,0.0,0.0,0.0,0.0,0.0,0.0,0.0,0.0,0.0,0.0,0.0,0.0,0.0,0.0,0.0,0.0,-2.1677,-2.1014,-2.0582,-2.0506,-1.9725,-1.9296,0.0,0.0,0.0,0.0,0.0,0.0,0.0,0.0,0.0,0.0,0.0,0.0,0.0,0.0,0.0,0.0,0.0,0.0,0.0,0.0,0.0,0.0,0.0,0.0,0.0,0.0,0.0,0.0,0.0,0.0,0.0,0.0,0.0,0.0,0.0,0.0,0.0,0.0,0.0,0.0,0.0,0.0,0.0,0.0,0.0,0.0,0.0,0.0,0.0,0.0,0.0,0.0,0.0,0.0,0.0,0.0,0.0,0.0,0.0,0.0,0.0,0.0,0.0,0.0,0.0,0.0,0.0,0.0,0.0,0.0,0.0,0.0,0.0,0.0,0.0,0.0,0.0,0.0,0.0,0.0,0.0,0.0,0.0,0.0,0.0,0.0,0.0,0.0,0.0,0.0,0.0,0.0,0.0,0.0,0.0,0.0,0.0,0.0,0.0,0.0,0.0,0.0,0.0,0.0,0.0,0.0,0.0,0.0,0.0,-2.1015,-2.0739,-2.0618,-2.0583,-2.0312,-2.0115,0.0,0.0,0.0,0.0,0.0,0.0,0.0,0.0,0.0,0.0,0.0,0.0,0.0,0.0,0.0,0.0,0.0,0.0,0.0,0.0,0.0,0.0,0.0,0.0,0.0,0.0,0.0,0.0,0.0,0.0,0.0,0.0,0.0,0.0,0.0,0.0,0.0,0.0,0.0,0.0,0.0,0.0,0.0,0.0,0.0,0.0,0.0,0.0,0.0,0.0,0.0,0.0,0.0,0.0,0.0,0.0,0.0,0.0,0.0,0.0,0.0,0.0,0.0,0.0,0.0,0.0,0.0,0.0,0.0,0.0,0.0,0.0,0.0,0.0,0.0,0.0,0.0,0.0,0.0,0.0,0.0,0.0,0.0,0.0,0.0,0.0,0.0,0.0,0.0,0.0,0.0,0.0,0.0,0.0,0.0,0.0,0.0,0.0,0.0,0.0,0.0,0.0,0.0,0.0,0.0,0.0,0.0,0.0,0.0,-2.0625,0.0,-2.0583,-2.0584,-2.0311,-2.0191,0.0,0.0,0.0,0.0,0.0,0.0,0.0,0.0,0.0,0.0,0.0,0.0,0.0,0.0,0.0,0.0,0.0,0.0,0.0,0.0,0.0,0.0,0.0,0.0,0.0,0.0,0.0,0.0,0.0,0.0,0.0,0.0,0.0,0.0,0.0,0.0,0.0,0.0,0.0,0.0,0.0,0.0,0.0,0.0,0.0,0.0,0.0,0.0,0.0,0.0,0.0,0.0,0.0,0.0,0.0,0.0,0.0,0.0,0.0,0.0,0.0,0.0,0.0,0.0,0.0,0.0,0.0,0.0,0.0,0.0,0.0,0.0,0.0,0.0,0.0,0.0,0.0,0.0,0.0,0.0,0.0,0.0,0.0,0.0,0.0,0.0,0.0,0.0,0.0,0.0,0.0,0.0,0.0,0.0,0.0,0.0,0.0,0.0,0.0,0.0,0.0,0.0,0.0,0.0,0.0,0.0,0.0,0.0,-2.1435,-2.066,-2.0583,-2.0624,-2.0586,-1.9844,-1.9373,0.0,0.0,0.0,0.0,0.0,0.0,0.0,0.0,0.0,0.0,0.0,0.0,0.0,0.0,0.0,0.0,0.0,0.0,0.0,0.0,0.0,0.0,0.0,0.0,0.0,0.0,0.0,0.0,0.0,0.0,0.0,0.0,0.0,0.0,0.0,0.0,0.0,0.0,0.0,0.0,0.0,0.0,0.0,0.0,0.0,0.0,0.0,0.0,0.0,0.0,0.0,0.0,0.0,0.0,0.0,0.0,0.0,0.0,0.0,0.0,0.0,0.0,0.0,0.0,0.0,0.0,0.0,0.0,0.0,0.0,0.0,0.0,0.0,0.0,0.0,0.0,0.0,0.0,0.0,0.0,0.0,0.0,0.0,0.0,0.0,0.0,0.0,0.0,0.0,0.0,0.0,0.0,0.0,0.0,0.0,0.0,0.0,0.0,0.0,0.0,0.0,0.0,0.0,0.0,0.0,0.0,0.0,0.0,0.0,-2.0617,-2.0586,-2.0898,-2.1438,-2.0659,-2.0463,0.0,0.0,0.0,0.0,0.0,0.0,0.0,0.0,0.0,0.0,0.0,0.0,0.0,0.0,0.0,0.0,0.0,0.0,0.0,0.0,0.0,0.0,0.0,0.0,0.0,0.0,0.0,0.0,0.0,0.0,0.0,0.0,0.0,0.0,0.0,0.0,0.0,0.0,0.0,0.0,0.0,0.0,0.0,0.0,0.0,0.0,0.0,0.0,0.0,0.0,0.0,0.0,0.0,0.0,0.0,0.0,0.0,0.0,0.0,0.0,0.0,0.0,0.0,0.0,0.0,0.0,0.0,0.0,0.0,0.0,0.0,0.0,0.0,0.0,0.0,0.0,0.0,0.0,0.0,0.0,0.0,0.0,0.0,0.0,0.0,0.0,0.0,0.0,0.0,0.0,0.0,0.0,0.0,0.0,0.0,0.0,0.0,0.0,0.0,0.0,0.0,0.0,0.0,0.0,0.0,0.0,0.0,0.0,0.0,-2.2483,-2.2186,-2.2265,-2.2806,-2.1982,-2.1315,-2.0921,0.0,0.0,0.0,0.0,0.0,0.0,0.0,0.0,0.0,0.0,0.0,0.0,0.0,0.0,0.0,0.0,0.0,0.0,0.0,0.0,0.0,0.0,0.0,0.0,0.0,0.0,0.0,0.0,0.0,0.0,0.0,0.0,0.0,0.0,0.0,0.0,0.0,0.0,0.0,0.0,0.0,0.0,0.0,0.0,0.0,0.0,0.0,0.0,0.0,0.0,0.0,0.0,0.0,0.0,0.0,0.0,0.0,0.0,0.0,0.0,0.0,0.0,0.0,0.0,0.0,0.0,0.0,0.0,0.0,0.0,0.0,0.0,0.0,0.0,0.0,0.0,0.0,0.0,0.0,0.0,0.0,0.0,0.0,0.0,0.0,0.0,0.0,0.0,0.0,0.0,0.0,0.0,0.0,0.0,0.0,0.0,0.0,0.0,0.0,0.0,0.0,0.0,0.0,0.0,0.0,0.0,0.0,0.0,-2.6064,-2.5403,-2.4987,-2.4804,-2.3814,-2.2123,0.0,0.0,0.0,0.0,0.0,0.0,0.0,0.0,0.0,0.0,0.0,0.0,0.0,0.0,0.0,0.0,0.0,0.0,0.0,0.0,0.0,0.0,0.0,0.0,0.0,0.0,0.0,0.0,0.0,0.0,0.0,0.0,0.0,0.0,0.0,0.0,0.0,0.0,0.0,0.0,0.0,0.0,0.0,0.0,0.0,0.0,0.0,0.0,0.0,0.0,0.0,0.0,0.0,0.0,0.0,0.0,0.0,0.0,0.0,0.0,0.0,0.0,0.0,0.0,0.0,0.0,0.0,0.0,0.0,0.0,0.0,0.0,0.0,0.0,0.0,0.0,0.0,0.0,0.0,0.0,0.0,0.0,0.0,0.0,0.0,0.0,0.0,0.0,0.0,0.0,0.0,0.0,0.0,0.0,0.0,0.0,0.0,0.0,0.0,0.0,0.0,0.0,0.0,0.0,0.0,0.0,0.0,0.0,0.0,-3.031,-3.2072,-3.1721,-2.9179,-2.6448,-2.4732,0.0,0.0,0.0,0.0,0.0,0.0,0.0,0.0,0.0,0.0,0.0,0.0,0.0,0.0,0.0,0.0,0.0,0.0,0.0,0.0,0.0,0.0,0.0,0.0,0.0,0.0,0.0,0.0,0.0,0.0,0.0,0.0,0.0,0.0,0.0,0.0,0.0,0.0,0.0,0.0,0.0,0.0,0.0,0.0,0.0,0.0,0.0,0.0,0.0,0.0,0.0,0.0,0.0,0.0,0.0,0.0,0.0,0.0,0.0,0.0,0.0,0.0,0.0,0.0,0.0,0.0,0.0,0.0,0.0,0.0,0.0,0.0,0.0,0.0,0.0,0.0,0.0,0.0,0.0,0.0,0.0,0.0,0.0,0.0,0.0,0.0,0.0,0.0,0.0,0.0,0.0,0.0,0.0,0.0,0.0,0.0,0.0,0.0,0.0,0.0,0.0,0.0,0.0,0.0,0.0,0.0,0.0,0.0,-2.9784,-3.2639,-3.6577,-3.7703,-3.5655,-3.1313,-2.8086,0.0,0.0,0.0,0.0,0.0,0.0,0.0,0.0,0.0,0.0,0.0,0.0,0.0,0.0,0.0,0.0,0.0,0.0,0.0,0.0,0.0,0.0,0.0,0.0,0.0,0.0,0.0,0.0,0.0,0.0,0.0,0.0,0.0,0.0,0.0,0.0,0.0,0.0,0.0,0.0,0.0,0.0,0.0,0.0,0.0,0.0,0.0,0.0,0.0,0.0,0.0,0.0,0.0,0.0,0.0,0.0,0.0,0.0,0.0,0.0,0.0,0.0,0.0,0.0,0.0,0.0,0.0,0.0,0.0,0.0,0.0,0.0,0.0,0.0,0.0,0.0,0.0,0.0,0.0,0.0,0.0,0.0,0.0,0.0,0.0,0.0,0.0,0.0,0.0,0.0,0.0,0.0,0.0,0.0,0.0,0.0,0.0,0.0,0.0,0.0,0.0,0.0,0.0,0.0,0.0,0.0,0.0,0.0,-3.2839,-3.4106,-3.9636,-4.2552,-4.2396,-3.6616,-3.1558,0.0,0.0,0.0,0.0,0.0,0.0,0.0,0.0,0.0,0.0,0.0,0.0,0.0,0.0,0.0,0.0,0.0,0.0,0.0,0.0,0.0,0.0,0.0,0.0,0.0,0.0,0.0,0.0,0.0,0.0,0.0,0.0,0.0,0.0,0.0,0.0,0.0,0.0,0.0,0.0,0.0,0.0,0.0,0.0,0.0,0.0,0.0,0.0,0.0,0.0,0.0,0.0,0.0,0.0,0.0,0.0,0.0,0.0,0.0,0.0,0.0,0.0,0.0,0.0,0.0,0.0,0.0,0.0,0.0,0.0,0.0,0.0,0.0,0.0,0.0,0.0,0.0,0.0,0.0,0.0,0.0,0.0,0.0,0.0,0.0,0.0,0.0,0.0,0.0,0.0,0.0,0.0,0.0,0.0,0.0,0.0,0.0,0.0,0.0,0.0,0.0,0.0,0.0,0.0,0.0,0.0,0.0,0.0,-3.4792,-3.8389,-4.2304,-4.4343,-4.4304,-3.7191,-3.2616,0.0,0.0,0.0,0.0,0.0,0.0,0.0,0.0,0.0,0.0,0.0,0.0,0.0,0.0,0.0,0.0,0.0,0.0,0.0,0.0,0.0,0.0,0.0,0.0,0.0,0.0,0.0,0.0,0.0,0.0,0.0,0.0,0.0,0.0,0.0,0.0,0.0,0.0,0.0,0.0,0.0,0.0,0.0,0.0,0.0,0.0,0.0,0.0,-2.7651,0.0,0.0,0.0,0.0,0.0,0.0,0.0,0.0,0.0,0.0,0.0,0.0,0.0,0.0,0.0,0.0,0.0,0.0,0.0,0.0,0.0,0.0,0.0,0.0,0.0,0.0,0.0,0.0,0.0,0.0,0.0,0.0,0.0,0.0,0.0,0.0,0.0,0.0,0.0,0.0,0.0,0.0,0.0,0.0,0.0,0.0,0.0,0.0,0.0,0.0,0.0,0.0,0.0,0.0,0.0,0.0,0.0,0.0,0.0,-3.6234,-3.9747,-4.3156,-4.5072,-4.5267,-3.9558,-3.5416,0.0,0.0,0.0,0.0,0.0,0.0,0.0,0.0,0.0,0.0,0.0,0.0,0.0,0.0,0.0,0.0,0.0,0.0,0.0,0.0,0.0,0.0,0.0,0.0,0.0,0.0,0.0,0.0,0.0,0.0,0.0,0.0,0.0,0.0,0.0,0.0,0.0,0.0,0.0,0.0,0.0,0.0,0.0,0.0,0.0,0.0,0.0,0.0,0.0,0.0,0.0,0.0,0.0,0.0,0.0,0.0,0.0,0.0,0.0,0.0,0.0,0.0,0.0,0.0,0.0,0.0,0.0,0.0,0.0,0.0,0.0,0.0,0.0,0.0,0.0,0.0,0.0,0.0,0.0,0.0,0.0,0.0,0.0,0.0,0.0,0.0,0.0,0.0,0.0,0.0,0.0,0.0,0.0,0.0,0.0,0.0,0.0,0.0,0.0,0.0,0.0,0.0,0.0,0.0,0.0,0.0,0.0,-3.4191,-3.7546,-4.052,-4.3565,-4.5436,-4.6098,-4.2163,-3.8389,-3.5008,0.0,0.0,0.0,0.0,0.0,0.0,0.0,0.0,0.0,0.0,0.0,0.0,0.0,0.0,0.0,0.0,0.0,0.0,0.0,0.0,0.0,0.0,0.0,0.0,0.0,0.0,0.0,0.0,0.0,0.0,0.0,0.0,0.0,0.0,0.0,0.0,0.0,0.0,-2.9689,-2.9818,0.0,0.0,0.0,0.0,0.0,0.0,0.0,0.0,-2.8879,0.0,0.0,0.0,0.0,0.0,0.0,0.0,0.0,0.0,0.0,0.0,0.0,0.0,0.0,0.0,0.0,0.0,0.0,0.0,0.0,0.0,0.0,0.0,0.0,0.0,0.0,0.0,0.0,0.0,0.0,0.0,0.0,0.0,0.0,0.0,0.0,0.0,0.0,0.0,0.0,0.0,0.0,0.0,0.0,0.0,0.0,0.0,0.0,0.0,0.0,0.0,0.0,0.0,0.0,0.0,0.0,-3.4795,-3.6229,-3.9232,-4.3934,-4.5312,-4.6059,-4.6098,-4.2747,-3.9279,-3.5777,0.0,0.0,0.0,0.0,0.0,0.0,0.0,0.0,0.0,0.0,0.0,0.0,0.0,0.0,0.0,0.0,0.0,0.0,0.0,0.0,0.0,0.0,0.0,0.0,0.0,0.0,0.0,0.0,0.0,0.0,0.0,0.0,0.0,0.0,0.0,0.0,0.0,0.0,0.0,-3.1214,-3.1792,0.0,0.0,0.0,0.0,0.0,0.0,0.0,0.0,-3.143,0.0,0.0,0.0,0.0,0.0,0.0,0.0,0.0,0.0,0.0,0.0,0.0,0.0,0.0,0.0,0.0,0.0,0.0,0.0,0.0,0.0,0.0,0.0,0.0,0.0,0.0,0.0,0.0,0.0,0.0,0.0,0.0,0.0,0.0,0.0,0.0,0.0,0.0,0.0,0.0,0.0,0.0,0.0,0.0,0.0,0.0,0.0,0.0,0.0,0.0,0.0,0.0,0.0,0.0,0.0,-3.5599,-3.717,-3.9909,-4.4058,-4.5085,-4.5319,-4.4812,-4.2396,-3.9468,0.0,0.0,0.0,0.0,0.0,0.0,0.0,0.0,0.0,0.0,0.0,0.0,0.0,0.0,0.0,0.0,0.0,0.0,0.0,0.0,0.0,0.0,0.0,0.0,0.0,0.0,0.0,0.0,0.0,0.0,0.0,0.0,0.0,0.0,0.0,0.0,0.0,0.0,0.0,0.0,-3.2799,-3.2955,-3.3371,0.0,0.0,0.0,0.0,0.0,0.0,-3.2954,-3.2681,0.0,0.0,0.0,0.0,0.0,0.0,0.0,0.0,0.0,0.0,0.0,0.0,0.0,0.0,0.0,0.0,0.0,0.0,0.0,0.0,0.0,0.0,0.0,0.0,0.0,0.0,0.0,0.0,0.0,0.0,0.0,0.0,0.0,0.0,0.0,0.0,0.0,0.0,0.0,0.0,0.0,0.0,0.0,0.0,0.0,0.0,0.0,0.0,0.0,0.0,0.0,0.0,0.0,0.0,0.0,-3.5974,-3.798,-4.0648,-4.3941,-4.4805,-4.4727,-4.3831,-4.1727,-3.9111,0.0,0.0,0.0,0.0,0.0,0.0,0.0,0.0,0.0,0.0,0.0,0.0,0.0,0.0,0.0,0.0,0.0,0.0,0.0,0.0,0.0,0.0,0.0,0.0,0.0,0.0,0.0,0.0,0.0,0.0,0.0,0.0,0.0,0.0,0.0,0.0,0.0,0.0,0.0,0.0,0.0,-3.4306,-3.4618,-3.512,0.0,0.0,0.0,0.0,-3.4153,-3.4361,0.0,0.0,0.0,0.0,0.0,0.0,0.0,0.0,0.0,0.0,0.0,0.0,0.0,0.0,0.0,0.0,0.0,0.0,0.0,0.0,0.0,0.0,0.0,0.0,0.0,0.0,0.0,0.0,0.0,0.0,0.0,0.0,0.0,0.0,0.0,0.0,0.0,0.0,0.0,0.0,0.0,0.0,0.0,0.0,0.0,0.0,0.0,0.0,0.0,0.0,0.0,0.0,0.0,0.0,0.0,0.0,-3.6876,-3.9371,-4.2313,-4.5616,-4.5944,-4.5648,-4.4713,-4.0896,-3.7864,0.0,0.0,0.0,0.0,0.0,0.0,0.0,0.0,0.0,0.0,0.0,0.0,0.0,0.0,0.0,0.0,0.0,0.0,0.0,0.0,0.0,0.0,0.0,0.0,0.0,0.0,0.0,0.0,0.0,0.0,0.0,0.0,0.0,0.0,0.0,0.0,0.0,0.0,0.0,0.0,0.0,-3.6234,-3.4826,-3.6521,-3.7389,0.0,0.0,-3.8447,-3.6968,-3.8001,0.0,0.0,0.0,0.0,0.0,0.0,0.0,0.0,0.0,0.0,0.0,0.0,0.0,0.0,0.0,0.0,0.0,0.0,0.0,0.0,0.0,0.0,0.0,0.0,0.0,0.0,0.0,0.0,0.0,0.0,0.0,0.0,0.0,0.0,0.0,0.0,0.0,0.0,0.0,0.0,0.0,0.0,0.0,0.0,0.0,0.0,0.0,0.0,0.0,0.0,0.0,0.0,0.0,0.0,0.0,-3.4759,-3.7676,-3.9791,-4.2345,-4.5182,-4.5346,-4.4685,-4.3402,-4.0182,-3.7622,0.0,0.0,0.0,0.0,0.0,0.0,0.0,0.0,0.0,0.0,0.0,0.0,0.0,0.0,0.0,0.0,0.0,0.0,0.0,0.0,0.0,0.0,0.0,0.0,0.0,0.0,0.0,0.0,0.0,0.0,0.0,0.0,0.0,0.0,0.0,0.0,0.0,0.0,0.0,0.0,0.0,0.0,-3.6962,-3.8585,0.0,0.0,0.0,-3.9466,-3.8712,0.0,0.0,0.0,0.0,0.0,0.0,0.0,0.0,0.0,0.0,0.0,0.0,0.0,0.0,0.0,0.0,0.0,0.0,0.0,0.0,0.0,0.0,0.0,0.0,0.0,0.0,0.0,0.0,0.0,0.0,0.0,0.0,0.0,0.0,0.0,0.0,0.0,0.0,0.0,0.0,0.0,0.0,0.0,0.0,0.0,0.0,0.0,0.0,0.0,0.0,0.0,0.0,0.0,0.0,0.0,0.0,0.0,-3.8457,-4.0466,-4.2582,-4.4855,-4.4982,-4.4295,-4.2809,-4.0345,0.0,0.0,0.0,0.0,0.0,0.0,0.0,0.0,0.0,0.0,0.0,0.0,0.0,0.0,0.0,0.0,0.0,0.0,0.0,0.0,0.0,0.0,0.0,0.0,0.0,0.0,0.0,-2.4501,0.0,0.0,0.0,0.0,0.0,0.0,0.0,0.0,0.0,0.0,0.0,0.0,0.0,0.0,-3.9734,-3.891,-4.0422,-4.1038,0.0,0.0,-4.0758,-4.0112,-4.0563,-4.0694,0.0,0.0,0.0,0.0,0.0,0.0,0.0,0.0,0.0,0.0,0.0,0.0,0.0,0.0,0.0,0.0,0.0,0.0,0.0,0.0,0.0,0.0,0.0,0.0,0.0,0.0,0.0,0.0,0.0,0.0,0.0,0.0,0.0,0.0,0.0,0.0,0.0,0.0,0.0,0.0,0.0,0.0,0.0,0.0,0.0,0.0,0.0,0.0,0.0,0.0,0.0,0.0,0.0,0.0,-3.759,-3.9341,-4.1776,-4.3877,-4.5539,-4.5764,-4.5402,-4.4421,-4.1966,-3.9818,0.0,0.0,0.0,0.0,0.0,0.0,0.0,0.0,0.0,0.0,0.0,0.0,0.0,0.0,0.0,0.0,0.0,0.0,0.0,0.0,0.0,0.0,0.0,0.0,0.0,0.0,0.0,0.0,0.0,0.0,0.0,0.0,0.0,0.0,0.0,0.0,0.0,0.0,0.0,0.0,0.0,-4.0626,-3.976,-4.1809,-4.2813,0.0,-4.2899,-4.3631,-4.1271,-4.2967,-4.3481,-4.0244,0.0,0.0,0.0,0.0,0.0,0.0,0.0,0.0,0.0,0.0,0.0,0.0,0.0,0.0,0.0,0.0,0.0,0.0,0.0,0.0,0.0,0.0,0.0,0.0,0.0,0.0,0.0,0.0,0.0,0.0,0.0,0.0,0.0,0.0,0.0,0.0,0.0,0.0,0.0,0.0,0.0,0.0,0.0,0.0,0.0,0.0,0.0,0.0,0.0,0.0,0.0,0.0,0.0,-3.8075,-3.9283,-4.1801,-4.3898,-4.5555,-4.5703,-4.5295,-4.443,-4.1981,-3.9883,0.0,0.0,0.0,0.0,0.0,0.0,0.0,0.0,0.0,0.0,0.0,0.0,0.0,0.0,0.0,0.0,0.0,0.0,0.0,0.0,0.0,0.0,0.0,0.0,0.0,0.0,0.0,0.0,-2.7292,-2.8088,-2.9257,0.0,0.0,0.0,0.0,0.0,0.0,0.0,0.0,0.0,0.0,-4.303,-4.2119,-4.3817,0.0,0.0,-4.3888,-4.4542,-4.3522,-4.4199,-4.444,-4.3047,-4.2641,0.0,0.0,0.0,0.0,0.0,0.0,0.0,0.0,0.0,0.0,0.0,0.0,0.0,0.0,0.0,0.0,0.0,0.0,0.0,0.0,0.0,0.0,0.0,0.0,0.0,0.0,0.0,0.0,0.0,0.0,0.0,0.0,0.0,0.0,0.0,0.0,0.0,0.0,0.0,0.0,0.0,0.0,0.0,0.0,0.0,0.0,0.0,0.0,0.0,0.0,0.0,0.0,-3.8431,-3.9561,-4.2019,-4.4054,-4.5494,-4.6032,-4.5763,-4.461,-4.3002,-4.117,0.0,0.0,0.0,0.0,0.0,0.0,0.0,0.0,0.0,0.0,0.0,0.0,0.0,0.0,0.0,0.0,0.0,0.0,0.0,0.0,0.0,0.0,0.0,0.0,0.0,0.0,0.0,0.0,-2.8759,-2.9628,-3.0226,0.0,0.0,0.0,0.0,0.0,0.0,0.0,0.0,0.0,0.0,-4.4228,-4.3878,-4.5143,-4.5724,-4.4487,-4.4829,-4.5131,-4.4859,-4.4829,-4.4751,-4.4461,0.0,0.0,0.0,0.0,0.0,0.0,0.0,0.0,0.0,0.0,0.0,0.0,0.0,0.0,0.0,0.0,0.0,0.0,0.0,0.0,0.0,0.0,0.0,0.0,0.0,0.0,0.0,-2.6157,0.0,0.0,-2.6276,0.0,0.0,0.0,0.0,0.0,0.0,0.0,0.0,0.0,0.0,0.0,0.0,0.0,0.0,0.0,0.0,0.0,0.0,0.0,0.0,0.0,0.0,-3.8706,-4.0389,-4.2833,-4.4518,-4.5456,-4.7067,-4.7126,-4.5477,-4.5455,-4.4226,-4.1622,0.0,0.0,0.0,0.0,0.0,0.0,0.0,0.0,0.0,0.0,0.0,0.0,0.0,0.0,0.0,0.0,0.0,0.0,0.0,0.0,0.0,0.0,0.0,0.0,0.0,0.0,-2.7761,-2.915,-3.0199,0.0,0.0,0.0,0.0,0.0,0.0,0.0,0.0,0.0,-4.1737,-4.2883,-4.3757,-4.4572,-4.5448,-4.6053,-4.5958,-4.5975,-4.5703,-4.4978,-4.4812,-4.4443,0.0,0.0,0.0,0.0,0.0,0.0,0.0,0.0,0.0,0.0,0.0,0.0,0.0,0.0,0.0,0.0,0.0,0.0,0.0,0.0,0.0,0.0,0.0,0.0,0.0,0.0,0.0,-2.9573,-2.9544,0.0,0.0,0.0,0.0,0.0,0.0,0.0,0.0,0.0,0.0,0.0,-3.4955,-3.6029,0.0,0.0,0.0,0.0,0.0,0.0,0.0,0.0,0.0,0.0,0.0,0.0,-4.0286,-4.1972,-4.3904,-4.5566,-4.6942,-4.7575,-4.7575,-4.7002,-4.6013,-4.4269,-4.1701,0.0,0.0,0.0,0.0,0.0,0.0,0.0,0.0,0.0,0.0,0.0,0.0,0.0,0.0,0.0,0.0,0.0,0.0,0.0,0.0,0.0,0.0,0.0,0.0,0.0,-2.8984,0.0,0.0,0.0,0.0,0.0,0.0,0.0,0.0,0.0,0.0,0.0,-4.1362,-4.3297,-4.4384,-4.5293,-4.6109,-4.7004,-4.7403,0.0,0.0,0.0,0.0,0.0,0.0,0.0,0.0,0.0,0.0,0.0,0.0,0.0,0.0,-4.5735,-4.3506,-4.3802,-4.4362,-4.4028,0.0,0.0,0.0,0.0,0.0,0.0,0.0,0.0,0.0,0.0,0.0,0.0,0.0,0.0,-3.2631,-3.2172,-3.2226,0.0,0.0,0.0,0.0,0.0,0.0,0.0,0.0,-3.5668,-3.7316,-3.8372,-3.9482,-4.0018,-4.0036,-3.9768,-3.8629,0.0,0.0,0.0,0.0,0.0,0.0,0.0,0.0,-4.159,-4.3254,-4.5184,-4.6691,-4.7761,-4.8372,-4.8411,-4.7799,-4.6483,-4.488,-4.2986,-4.1816,-4.0991,0.0,0.0,0.0,0.0,0.0,0.0,0.0,0.0,0.0,0.0,0.0,0.0,0.0,0.0,0.0,0.0,0.0,0.0,0.0,0.0,0.0,0.0,0.0,-3.1051,0.0,0.0,0.0,0.0,0.0,0.0,0.0,0.0,0.0,-3.9484,-4.0938,-4.247,-4.4102,-4.4893,-4.5727,-4.687,0.0,0.0,0.0,0.0,0.0,0.0,0.0,-4.7719,-4.8284,-4.7921,-4.7835,-4.8759,-4.8916,-4.9175,-5.0015,0.0,0.0,-4.6542,-4.6619,-4.69,-4.658,-4.6355,-4.6346,-4.6892,-4.6523,-4.6316,0.0,0.0,0.0,0.0,-3.3936,0.0,0.0,0.0,-3.6139,-3.559,0.0,-3.5742,0.0,0.0,0.0,0.0,-3.3211,-3.6162,0.0,0.0,-4.1648,-4.3234,-4.1954,-4.3522,-4.4268,-4.4153,-4.335,-4.2489,-4.1568,-3.9252,0.0,0.0,0.0,0.0,0.0,0.0,-4.2489,-4.4288,-4.6619,-4.7876,-4.7952,-4.948,-4.9519,-4.7914,-4.7035,-4.6216,-4.5398,-4.3809,-4.2891,-4.2795,-4.143,0.0,0.0,0.0,0.0,0.0,0.0,0.0,0.0,0.0,0.0,0.0,0.0,0.0,0.0,0.0,0.0,0.0,0.0,0.0,0.0,-3.3933,0.0,0.0,0.0,0.0,0.0,0.0,0.0,0.0,0.0,-3.8605,-4.0543,-4.1437,-4.2508,-4.4251,0.0,0.0,0.0,0.0,-4.74,-4.821,-4.8364,-4.8381,-4.8337,-4.8321,-4.8343,-4.8414,0.0,0.0,-4.9659,-4.9807,-5.0085,-5.0851,-5.1633,-5.1513,-4.9221,-4.8782,-4.846,-4.7797,-4.8186,-4.8671,-4.8727,-4.8818,-4.8798,-4.3316,0.0,0.0,0.0,0.0,-3.9157,-4.0541,-4.201,-4.1692,-4.0956,-3.9954,-3.9861,0.0,0.0,0.0,0.0,0.0,0.0,-3.9162,-4.0233,-4.3445,-4.5298,-4.608,-4.7745,-4.7898,-4.6729,-4.65,-4.5642,-4.4248,-4.3502,-4.1954,-3.9674,0.0,0.0,0.0,0.0,-4.4784,-4.5893,-4.7745,-4.9022,-4.9595,-5.0054,-4.9786,-4.8754,-4.8487,-4.7668,-4.6254,-4.5719,-4.4898,-4.379,-4.3312,0.0,0.0,0.0,0.0,0.0,0.0,0.0,0.0,0.0,0.0,0.0,0.0,0.0,0.0,0.0,0.0,0.0,0.0,0.0,-3.5709,-3.6174,-3.595,0.0,0.0,0.0,0.0,0.0,0.0,0.0,0.0,0.0,-4.3752,-4.3693,-4.4133,0.0,0.0,-4.6647,-4.8356,-4.8625,-4.8721,-4.899,-4.9529,0.0,-4.9086,-4.8971,-4.9124,-4.9759,-4.9912,-5.0079,-5.0314,-5.0945,-5.1674,-5.2485,-5.2884,-5.3033,-5.2862,-5.1978,-5.1256,-5.0957,-5.0692,-5.0685,-5.1247,-5.1385,-5.1561,-4.9089,-4.5014,-4.3416,-4.2597,-4.2456,-4.3591,-4.4789,-4.5899,-4.5748,-4.5052,-4.3976,-4.4128,-4.2373,-3.9356,-3.9586,0.0,0.0,0.0,-4.289,-4.459,-4.6789,-4.8356,-4.9366,-5.0665,-5.0779,-4.9824,-4.9786,-4.9098,-4.7761,-4.7111,-4.5948,-4.4286,0.0,-4.3235,-4.3618,-4.574,-4.7269,-4.8051,-4.9733,-5.0818,-5.1276,-5.0971,-5.0588,-5.0092,-4.9748,-4.8907,-4.757,-4.7532,-4.6942,-4.5625,-4.5263,-4.4862,0.0,0.0,0.0,0.0,0.0,0.0,0.0,0.0,0.0,0.0,0.0,-3.8153,-3.6188,0.0,0.0,0.0,-3.7742,-3.8112,-3.8362,-3.8194,0.0,0.0,0.0,0.0,0.0,0.0,0.0,-4.1504,-4.2865,-4.4284,-4.5625,-4.5704,-4.6051,-4.7127,-4.7261,-4.776,-4.9104,0.0,-4.9411,-4.9777,-5.0525,-5.0734,-4.9928,-5.0023,-5.0385,-5.0926,-5.1047,-5.1395,-5.203,-5.2647,-5.3282,-5.4014,-5.4304,-5.4516,-5.4862,-5.4027,-5.3126,-5.2831,-5.2369,-5.2292,-5.2796,-5.2848,-5.3055,-5.449,-5.3359,-4.9608,-4.7511,-4.6845,-4.8359,-4.8613,-4.806,-4.8856,-4.8249,-4.6847,-4.8249,-4.7188,-4.4265,-4.3573,0.0,-4.5736,-4.6538,-4.7761,-4.9442,-5.1123,-5.1926,-5.204,-5.2766,-5.3072,-5.2996,-5.2957,-5.2499,-5.162,-5.013,-4.9748,-5.0397,-4.7341,-4.6181,-4.6952,-4.8417,-4.958,-5.039,-5.1873,-5.2728,-5.2766,-5.2002,-5.162,-5.1582,-5.0741,-4.9901,-4.9137,-4.9098,-4.8716,-4.7815,-4.7078,-4.6658,-4.6517,0.0,0.0,0.0,0.0,0.0,0.0,0.0,0.0,0.0,0.0,0.0,0.0,0.0,0.0,0.0,-4.071,0.0,-4.1743,-4.0329,0.0,0.0,0.0,-4.094,-4.2519,-4.2851,-4.3232,-4.4124,0.0,0.0,-4.6615,-4.7417,-4.8001,-4.8241,-4.8221,-4.8491,-4.9375,-4.9431,-4.968,-5.041,-5.1212,-5.1398,-5.0768,-5.1207,-5.1743,-5.1826,-5.1886,-5.2406,-5.3738,-5.4254,-5.4671,-5.5209,-5.5583,-5.5643,-5.5615,-5.4993,-5.4438,-5.37,-5.3426,-5.3382,-5.3584,-5.3561,-5.36,-5.751,-5.6149,-5.5163,-5.3572,-5.1811,-5.2151,-5.2635,-5.3139,-5.3328,-5.2494,-5.094,-5.0713,-4.9846,-4.8566,-4.78,-4.806,-4.9137,-5.0015,-5.0932,-5.2002,-5.3683,-5.483,-5.5403,-5.5594,-5.5365,-5.4753,-5.4104,-5.3339,-5.2499,-5.2117,-5.2002,-5.2117,-5.0779,-4.9557,-4.8608,-4.9541,-5.0092,-5.0344,-5.1353,-5.2193,-5.2728,-5.2002,-5.162,-5.162,-5.0741,-4.9901,-4.9137,-4.9098,-4.8655,-4.777,-4.7541,-4.7404,-4.7319,-4.6374,0.0,0.0,0.0,0.0,0.0,0.0,0.0,0.0,0.0,-4.193,-4.0099,0.0,-4.2502,0.0,-4.3902,-4.5145,-4.5319,-4.434,0.0,0.0,-4.3214,-4.3119,-4.3547,-4.476,-4.5635,-4.5833,-4.658,-4.7465,-4.8372,-4.8678,-4.9089,-4.9792,-4.9307,-4.9149,-4.9953,-5.0128,-5.0227,-5.0495,-5.1201,-5.1622,-5.1545,-5.2035,-5.2509,-5.2571,-5.2547,-5.2762,-5.3177,-5.3874,-5.4373,-5.458,-5.5132,-5.55,-5.549,-5.5331,-5.5231,-5.4924,-5.4111,-5.3597,-5.4249,-5.4387,-5.4581,-5.9102,-5.8044,-5.7705,-5.6986,-5.6107,-5.5486,-5.5441,-5.5857,-5.5989,-5.5458,-5.4481,-5.3366,-5.2655,-5.2205,-5.104,-5.1231,-5.2488,-5.2984,-5.3887,-5.5097,-5.6091,-5.6714,-5.7069,-5.7107,-5.684,-5.642,-5.558,-5.4931,-5.4435,-5.3671,-5.3519,-5.3824,-5.3035,-5.2158,-5.1391,-5.1391,-5.1391,-5.1429,-5.2652,-5.3531,-5.3913,-5.2766,-5.2117,-5.2079,-5.0971,-5.0283,-5.0206,-4.9801,-4.9549,-4.9434,-4.8982,-4.8791,-4.8791,-4.799,-4.7342,0.0,0.0,0.0,0.0,0.0,0.0,0.0,0.0,0.0,0.0,0.0,-4.4233,-4.3857,-4.5447,-4.65,-4.65,-4.5693,-4.5421,-4.6091,-4.6194,-4.6483,-4.7236,-4.8471,-4.9158,-4.8777,-4.9143,-4.9472,-4.9633,-4.9977,-5.023,-5.0412,-5.0291,-5.0382,-5.0811,-5.0987,-5.1101,-5.1484,-5.2226,-5.2777,-5.2777,-5.2752,-5.2919,-5.3301,-5.3378,-5.3492,-5.3962,-5.4407,-5.4776,-5.479,-5.5155,-5.547,-5.544,-5.5451,-5.5499,-5.5346,-5.4847,-5.4572,-5.4979,-5.5075,-5.5188,-6.0073,-5.9366,-5.869,-5.8801,-5.9361,-5.8102,-5.7532,-5.7427,-5.7516,-5.7466,-5.7251,-5.5898,-5.5312,-5.5227,-5.3878,-5.4074,-5.5489,-5.5527,-5.6431,-5.7974,-5.805,-5.8023,-5.8033,-5.7891,-5.7853,-5.7853,-5.7052,-5.6643,-5.6595,-5.5157,-5.4814,-5.5423,-5.4645,-5.4291,-5.4384,-5.362,-5.3162,-5.2996,-5.4537,-5.5377,-5.5339,-5.3798,-5.2957,-5.2881,-5.1429,-5.0971,-5.1672,-5.0937,-5.0899,-5.1648,-5.0786,-5.0342,-5.0517,-4.9719,-4.9262,0.0,-4.8538,0.0,0.0,0.0,0.0,0.0,0.0,0.0,0.0,-4.5824,-4.5878,-4.6015,-4.6708,-4.7188,-4.722,-4.6565,-4.6984,-4.9213,-4.9457,-5.0107,-5.1582,-5.2384,-5.2537,-5.1811,-5.1735,-5.1467,-5.0779,-5.1314,-5.1429,-5.0932,-5.1276,-5.1759,-5.1966,-5.1813,-5.1867,-5.2762,-5.3555,-5.3951,-5.4104,-5.3645,-5.3454,-5.4129,-5.4282,-5.4524,-5.5212,-5.5326,-5.5365,-5.5365,-5.5402,-5.5389,-5.5364,-5.5427,-5.549,-5.5476,-5.5375,-5.5361,-5.5455,-5.5408,-5.5427,-6.1172,-6.0033,-5.9883,-5.9626,-5.9327,-5.9173,-5.9093,-5.9087,-5.8509,-5.7927,-5.7352,-5.7043,-5.6952,-5.7013,-5.6709,-5.6768,-5.7159,-5.7159,-5.772,-5.8797,-5.8749,-5.915,-5.9807,-5.9102,-5.8768,-5.8692,-5.7891,-5.7444,-5.7396,-5.7092,-5.6978,-5.713,-5.6331,-5.595,-5.594,0.0,0.0,0.0,-5.4714,-5.5248,-5.521,-5.4346,-5.3836,-5.3836,-5.2843,0.0,-5.2501,-5.2323,-5.2234,-5.2281,-5.1494,0.0,0.0,0.0,0.0,0.0,0.0,0.0,0.0,0.0,0.0,0.0,-4.9188,-4.8644,-4.8213,-4.8745,-4.9442,-5.0298,-5.0465,-5.0846,-5.1591,-5.1467,-5.152,-5.2002,-5.205,-5.2241,-5.2537,-5.2755,-5.273,-5.2614,-5.2575,-5.2499,-5.2308,-5.2499,-5.2499,-5.227,-5.2461,-5.2843,-5.3517,-5.2471,-5.1973,-5.2714,-5.3645,-5.4371,-5.5059,-5.4944,-5.4791,-5.5135,-5.5135,-5.5212,-5.5365,-5.5403,-5.5403,-5.5403,-5.5403,-5.539,-5.539,-5.539,-5.539,-5.5428,-5.5428,-5.5415,-5.5451,-5.5402,-5.5314,-6.0995,-6.0013,-5.9644,-5.9275,0.0,-5.91,-5.9139,-5.9178,-5.9128,-5.8949,-5.8597,-5.8218,-5.806,-5.8053,-5.7635,-5.7734,-5.8234,-5.8242,-5.872,-5.9664,-5.9616,-5.9845,-6.0217,-5.9807,-5.952,-5.9452,-5.8652,-5.8204,-5.8174,-5.7756,-5.7566,-5.7566,-5.7089,-5.6928,-5.7016,-5.6958,-5.6568,-5.5788,-5.6196,-5.6196,-5.5777,-5.5004,-5.4421,-5.4001,-5.3162,0.0,0.0,0.0,0.0,0.0,0.0,0.0,0.0,-5.2113,0.0,-5.1912,-5.1939,-5.1912,-5.1885,-5.1885,-5.1858,-5.183,-5.183,-5.1326,-5.019,-5.0875,-5.1599,-5.2155,-5.2169,-5.2513,-5.335,-5.3097,-5.2957,-5.3339,-5.3391,-5.3377,-5.3417,-5.3708,-5.3769,-5.3403,-5.3353,-5.32,-5.2793,-5.3137,-5.32,-5.2919,-5.3187,-5.3607,-5.3913,-5.3402,-5.3135,-5.3951,-5.4409,-5.4868,-5.5288,-5.5403,-5.5403,-5.5403,-5.5403,-5.5403,-5.5403,-5.5403,-5.5403,-5.5403,-5.5403,-5.5377,-5.5313,-5.5313,-5.5286,-5.526,-5.5233,-5.5206,-5.5222,-5.5248,-5.521,-6.0728,-6.0024,-5.9467,-5.9139,-5.8921,-5.9069,-5.9032,-5.8967,-5.9402,0.0,0.0,-5.9067,-5.8835,-5.883,-5.811,-5.8249,-5.9019,-5.8995,-5.9536,-6.0475,-6.0341,-6.0281,-6.0327,-6.0144,-6.0038,-5.9975,-5.933,-5.8988,-5.8988,-5.8273,-5.7894,-5.7894,-5.787,-5.7863,-5.7984,-5.7924,-5.7924,-5.7984,-5.771,-5.7177,-5.6407,-5.5693,-5.496,-5.4123,-5.3438,-5.3373,-5.4058,-5.3356,-5.328,-5.3992,-5.3158,-5.2741,-5.3003,-5.2797,-5.2872,-5.3194,-5.3176,-5.3528,-5.4363,-5.4381,-5.4276,-5.4162,-5.4124,-5.3566,-5.2118,-5.2743,-5.3213,-5.32,-5.32,-5.3506,-5.4193,-5.3645,-5.3492,-5.4193,-5.4248,-5.4202,-5.4215,-5.4732,-5.478,-5.4275,-5.415,-5.3987,-5.3582,-5.4104,-5.4332,-5.3951,-5.4333,-5.4448,-5.4371,-5.4333,-5.4448,-5.5097,-5.525,-5.5365,-5.5403,-5.5403,-5.5403,-5.5403,-5.5403,-5.5403,-5.5403,-5.5403,-5.5403,-5.5403,-5.5403,-5.5339,-5.5248,-5.5222,-5.5244,-5.5303,-5.5171,-5.5066,-5.5189,-5.5189,-5.514,-6.1787,-6.0728,-6.132,-6.0818,-5.9812,-6.0481,-6.0412,-5.9752,-5.9204,-5.914,-5.9364,-5.9251,-5.9321,-5.9462,-5.9348,-5.9348,-5.9496,-5.9601,-6.0156,-6.0936,-6.0291,-6.0393,-6.1164,-6.0418,-5.9975,-5.9975,-5.9861,-5.9792,-5.9728,-5.9614,-5.9576,-5.9539,-5.9544,-5.9539,-5.9576,-5.9576,-5.9576,-5.9539,-5.8228,-5.7118,-5.6358,-5.6264,-5.5798,-5.4998,-5.4808,-5.478,-5.4838,-5.4696,-5.4667,-5.4722,-5.3973,-5.3821,-5.4495,-5.3926,-5.4191,-5.5557,-5.5708,-5.605,-5.6846,-5.6891,-5.6588,-5.5943,-5.589,-5.5531,-5.461,-5.461,-5.4742,-5.476,-5.4721,-5.4798,-5.4939,-5.4828,-5.4816,-5.4901,-5.4928,-5.4955,-5.4988,-5.5151,-5.5189,-5.496,-5.5069,-5.5401,-5.5717,-5.6,-5.637,-5.6816,-5.6358,-5.5976,-5.5365,-5.5212,-5.525,-5.5365,-5.5403,-5.5403,-5.5403,-5.5403,-5.5403,-5.5403,-5.5403,-5.5403,-5.5403,-5.5403,-5.5377,-5.5403,-5.5377,-5.5339,-5.5222,-5.5183,-5.5434,-5.5874,-5.5617,-5.5361,-5.5911,-5.5636,-5.5113,-6.1753,-6.1224,-6.115,-6.0766,-6.0194,-6.0563,-6.0535,-6.0211,-5.9841,-5.9478,-5.9214,-5.9703,-5.9778,-5.9549,-6.0523,-6.071,-6.0365,-6.0856,-6.1303,-6.1705,-6.0909,-6.079,-6.1121,-6.0393,-5.9944,-5.995,-5.995,-5.9918,-5.9885,-5.9885,-5.9885,-5.9923,-6.0302,-6.053,-6.0568,-6.1022,-6.125,-6.1212,-5.9614,-5.8432,-5.7635,-5.7628,-5.7013,-5.5759,-5.5721,-5.5426,-5.4979,-5.4941,-5.4912,-5.492,-5.4541,-5.4731,-5.5527,-5.5261,-5.5602,-5.6739,-5.6853,-5.7005,-5.7384,-5.7422,-5.7232,-5.6853,-5.6884,-5.6763,-5.6345,-5.556,-5.5275,-5.5722,-5.5798,-5.5607,-5.5189,-5.5511,-5.5777,-5.5798,-5.576,-5.595,-5.6311,-5.6396,-5.6215,-5.5835,-5.6197,-5.6454,-5.6407,-5.6816,-5.7187,-5.7634,-5.7385,-5.6878,-5.6167,-5.6052,-5.5861,-5.5479,-5.5339,-5.5339,-5.5377,-5.5403,-5.5403,-5.5403,-5.5403,-5.5403,-5.5403,-5.5377,-5.5313,-5.5275,-5.5286,-5.5233,-5.5113,-5.5113,-5.5465,-5.6054,-5.6025,-5.6034,-5.6573,-5.6535,-5.6012,-6.1741,-6.152,-6.1117,-6.097,-6.0933,-6.097,-6.086,-6.0676,-6.0676,-6.0157,-5.945,-6.003,-5.9962,-5.9627,-6.098,-6.1394,-6.1129,-6.162,-6.1958,-6.1991,-6.146,-6.1193,-6.119,-6.0653,-6.0383,-6.0387,-6.0387,-6.0387,-6.0387,-6.0387,-6.0307,-6.0231,-6.0728,-6.1031,-6.1136,-6.1867,-6.2284,-6.2243,-6.1035,-5.9895,-5.9014,-5.8786,-5.7952,-5.6588,-5.6474,-5.6133,-5.5527,-5.5451,-5.5489,-5.5451,-5.5451,-5.5754,-5.6398,-5.6474,-5.6815,-5.7573,-5.7687,-5.7763,-5.7952,-5.7952,-5.7876,-5.7687,-5.7687,-5.7687,-5.7573,-5.6405,-5.5893,-5.6501,-5.6616,-5.6349,-5.5893,-5.6197,-5.6645,-5.6616,-5.6565,-5.6763,-5.7362,-5.7415,-5.7194,-5.6664,-5.7036,-5.7248,-5.7089,-5.7422,-5.7832,-5.7929,-5.7949,-5.7662,-5.7019,-5.6801,-5.6507,-5.6076,-5.5668,-5.5504,-5.5453,-5.5797,-5.5873,-5.5747,-5.5873,-5.6,-5.5973,-5.587,-5.5767,-5.5843,-5.5587,-5.5493,-5.5332,-5.5303,-5.5578,-5.6088,-5.6163,-5.6285,-5.6512,-5.7043,-5.6967,-6.2254,-6.1741,-6.2254,-6.2585,-6.2548,-6.2548,-6.2144,-6.152,-6.1484,-6.1055,-6.0267,-5.987,-5.9795,-5.9855,-6.012,-6.0608,-6.113,-6.1246,-6.1405,-6.1446,-6.1416,-6.1499,-6.1694,-6.1581,-6.1657,-6.1804,-6.1804,-6.1729,-6.1729,-6.1804,-6.15,-6.0966,-6.0787,-6.0896,-6.1145,-6.1618,-6.1958,-6.2106,-6.177,-6.1015,-5.9847,-5.9051,-5.8256,-5.7346,-5.727,-5.7232,-5.7049,-5.7156,-5.7156,-5.7156,-5.7118,-5.7156,-5.727,-5.7308,-5.7687,-5.8483,-5.8559,-5.89,-5.9544,-5.9658,-5.9279,-5.8672,-5.8597,-5.8559,-5.8521,-5.7756,-5.7225,-5.7339,-5.7339,-5.7225,-5.7187,-5.7256,-5.7332,-5.7332,-5.7315,-5.7327,-5.7497,-5.7472,-5.7402,-5.7346,-5.7552,-5.7794,-5.8304,-5.8562,-5.8737,-5.8737,-5.8767,-5.8491,-5.773,-5.7511,-5.7405,-5.7235,-5.69,-5.6217,-5.5835,-5.6649,-5.6878,-5.6587,-5.6938,-5.7111,-5.7044,-5.7082,-5.732,-5.6597,-5.6483,-5.6007,-5.6092,-5.6177,-5.611,-5.6163,-5.6209,-5.6095,-5.5602,-5.6398,-5.7081,-6.2522,-6.2365,-6.2695,-6.2805,-6.2805,-6.2805,-6.2622,-6.2328,-6.2328,-6.1851,-6.1117,-6.0845,-6.0628,-6.0485,-6.1545,-6.2041,-6.1893,-6.2383,-6.2606,-6.2612,-6.2252,-6.2113,-6.2122,-6.1718,-6.1574,-6.1691,-6.1691,-6.1691,-6.1691,-6.1691,-6.1618,-6.1507,-6.1318,-6.1544,-6.2183,-6.2409,-6.2784,-6.3313,-6.2784,-6.2259,-6.1656,-6.0412,-5.9392,-5.8635,-5.814,-5.7649,-5.7234,-5.7159,-5.7159,-5.7224,-5.7125,-5.7385,-5.8142,-5.8084,-5.8424,-5.9317,-5.9294,-5.9345,-5.9543,-5.9543,-5.943,-5.909,-5.9194,-5.9194,-5.9053,-5.8921,-5.883,-5.8694,-5.8381,-5.799,-5.7573,-5.787,-5.8173,-5.818,-5.8148,-5.8337,-5.8862,-5.8868,-5.8754,-5.8293,-5.866,-5.8843,-5.885,-5.9185,-5.9482,-5.9551,-5.9581,-5.9201,-5.8509,-5.8356,-5.8128,-5.7748,-5.7758,-5.7624,-5.6965,-5.7194,-5.7489,-5.7363,-5.7395,-5.7511,-5.7072,-5.6882,-5.6814,-5.6899,-5.6215,-5.592,-5.6156,-5.6231,-5.6239,-5.6285,-5.6739,-5.6891,-5.7081,-5.727,-5.7422,-6.2705,-6.2805,-6.2805,-6.2805,-6.2805,-6.2805,-6.2805,-6.2805,-6.2805,-6.2475,-6.1961,-6.1924,-6.1728,-6.1587,-6.2586,-6.278,-6.2558,-6.3076,-6.3224,-6.3049,-6.2687,-6.2517,-6.2301,-6.2092,-6.1954,-6.1997,-6.2034,-6.2034,-6.1959,-6.1698,-6.1786,-6.1946,-6.1865,-6.2126,-6.2813,-6.2956,-6.3252,-6.3559,-6.3027,-6.2653,-6.2242,-6.1045,-6.0115,-5.9702,-5.9138,-5.8424,-5.7672,-5.7597,-5.7632,-5.7699,-5.7559,-5.7895,-5.8774,-5.8748,-5.8977,-5.9643,-5.9804,-5.9775,-5.9628,-5.9891,-5.9965,-5.974,-5.9882,-5.9877,-5.9618,-5.9753,-5.982,-5.9677,-5.929,-5.871,-5.8293,-5.8635,-5.8976,-5.9014,-5.9046,-5.9311,-5.9772,-5.9885,-5.962,-5.9165,-5.9463,-5.9696,-5.9241,-5.9506,-5.9842,-5.9906,-5.9944,-5.983,-5.9323,-5.9163,-5.8943,-5.8334,-5.8821,-5.869,-5.7949,-5.8216,-5.8168,-5.8082,-5.8111,-5.8106,-5.7241,-5.7021,-5.6983,-5.7559,-5.6163,-5.564,-5.6429,-5.6512,-5.6436,-5.655,-5.6853,-5.7232,-5.7346,-5.746,-5.7308,-6.2705,-6.2805,-6.2805,-6.2805,-6.2805,-6.2805,-6.2805,-6.2805,-6.2805,-6.2768,-6.2695,-6.2732,-6.2732,-6.2585,-6.2206,-6.212,-6.2708,-6.2818,-6.2537,-6.1985,-6.2451,-6.2523,-6.2133,-6.2761,-6.3187,-6.3222,-6.3222,-6.3305,-6.3305,-6.2636,-6.2308,-6.2433,-6.222,-6.2301,-6.2668,-6.2963,-6.29,-6.2606,-6.2316,-6.1818,-6.1167,-6.0314,-6.0124,-6.0302,-6.0379,-5.9816,-5.929,-5.9178,-5.9178,-5.9178,-5.914,-5.9215,-5.929,-5.929,-5.9327,-5.944,-6.0041,-6.0454,-6.0492,-6.1168,-6.1393,-6.0863,-6.0818,-6.0724,-6.0059,-6.0013,-6.0009,-5.989,-5.989,-5.9772,-5.962,-5.9587,-5.9734,-5.9772,-5.9772,-5.9809,-5.9847,-5.9853,-5.9885,-5.9777,-5.9777,-5.9744,-5.9739,-5.9885,-5.9885,-5.9885,-5.9885,-5.9842,-5.9804,-5.9804,-5.969,-5.9684,-5.964,-5.9399,-5.8166,-5.8661,-5.9201,-5.9087,-5.9019,-5.9349,-5.897,-5.8628,-5.8515,-5.8142,-5.6929,-5.6512,-5.6929,-5.7081,-5.6967,-5.6853,-5.655,-5.6777,-5.746,-5.7308,-5.7156,-6.2603,-6.2792,-6.2705,-6.2705,-6.2805,-6.2805,-6.2805,-6.2805,-6.2805,-6.2805,-6.2805,-6.2805,-6.2805,-6.2805,-6.3099,-6.3025,-6.2842,-6.2805,-6.2658,-6.2401,-6.2695,-6.2708,-6.2537,-6.2843,-6.2953,-6.3051,-6.3051,-6.3099,-6.3194,-6.2767,-6.2751,-6.2817,-6.2234,-6.2281,-6.2826,-6.2623,-6.254,-6.2808,-6.2798,-6.2382,-6.1652,-6.1365,-6.0826,-5.9961,-5.9611,-5.9582,-5.9806,-5.9806,-5.9846,-5.9887,-5.9769,-5.9809,-6.0041,-6.0079,-6.0003,-5.9887,-6.0149,-6.0257,-6.0174,-6.0438,-6.0553,-6.0332,-6.0939,-6.1243,-6.0864,-6.0905,-6.0903,-6.045,-6.0443,-6.0358,-5.9966,-5.9786,-5.9753,-5.9853,-5.9685,-5.9616,-5.9653,-5.9581,-5.9508,-5.9508,-5.9545,-5.9508,-5.9543,-5.954,-5.9537,-5.9681,-5.9706,-5.9739,-5.9885,-5.9885,-5.9885,-5.9885,-5.9918,-5.976,-5.9267,-5.9482,-5.9861,-5.9747,-5.9678,-5.9349,-5.9014,-5.8748,-5.8559,-5.8104,-5.7194,-5.7005,-5.727,-5.727,-5.727,-5.8066,-5.7687,-5.6929,-5.7611,-5.7232,-5.7005,-6.25,-6.2654,-6.2603,-6.2654,-6.2755,-6.2755,-6.2805,-6.2805,-6.2805,-6.2805,-6.2805,-6.2805,-6.2805,-6.2952,-6.3686,-6.3613,-6.2915,-6.3062,-6.3062,-6.2842,-6.2805,-6.2805,-6.2805,-6.2805,-6.2805,-6.2879,-6.3099,-6.3149,-6.2978,-6.3149,-6.3198,-6.3014,-6.2401,-6.2401,-6.2866,-6.2498,-6.2461,-6.2682,-6.2682,-6.2324,-6.1671,-6.156,-6.1191,-6.047,-5.9795,-5.9627,-5.9961,-6.0184,-6.0226,-6.0087,-6.0147,-6.038,-6.0668,-6.0748,-6.0668,-6.0547,-6.0766,-6.0874,-6.0821,-6.1013,-6.113,-6.0869,-6.1483,-6.1865,-6.1517,-6.1609,-6.1467,-6.1093,-6.1018,-6.0938,-6.0597,-6.0374,-6.0111,-5.9938,-5.9647,-5.9545,-5.9653,-5.9581,-5.951,-5.9474,-5.9401,-5.9327,-5.929,-5.9289,-5.9361,-5.9472,-5.9537,-5.9568,-5.9681,-5.9719,-5.9753,-5.9786,-5.9786,-5.9782,-5.962,-5.9798,-5.995,-5.9836,-5.9798,-5.943,-5.9095,-5.8862,-5.8559,-5.7959,-5.7618,-5.7497,-5.7422,-5.7422,-5.8104,-5.9165,-5.8293,-5.7156,-5.7232,-5.6998,-5.696,-6.2433,-6.2433,-6.2552,-6.2603,-6.2603,-6.2755,-6.2805,-6.2755,-6.2842,-6.2805,-6.2805,-6.2805,-6.2805,-6.2989,-6.3723,-6.3613,-6.3062,-6.3576,-6.3539,-6.2842,-6.2805,-6.2805,-6.2805,-6.2805,-6.2805,-6.2842,-6.3613,-6.3576,-6.2879,-6.3429,-6.3466,-6.2915,-6.2768,-6.2695,-6.2805,-6.2745,-6.2401,-6.201,-6.19,-6.147,-6.0709,-6.0793,-6.1098,-6.156,-6.1089,-6.0424,-5.976,-6.0424,-6.0589,-6.0048,-6.0567,-6.1018,-6.1113,-6.115,-6.1224,-6.1298,-6.1893,-6.2264,-6.2339,-6.2997,-6.2971,-6.2603,-6.281,-6.2626,-6.2136,-6.1988,-6.1916,-6.1805,-6.1767,-6.1768,-6.1656,-6.1426,-6.1017,-6.0131,-6.0055,-5.9987,-5.998,-5.9928,-5.9786,-5.9545,-5.9327,-5.9328,-5.929,-5.9253,-5.9253,-5.929,-5.9326,-5.9363,-5.9436,-5.9472,-5.9474,-5.9581,-5.9685,-5.9719,-5.982,-5.9885,-5.9885,-5.9885,-5.9847,-5.9658,-5.9317,-5.9014,-5.89,-5.8445,-5.8028,-5.7876,-5.8218,-5.8218,-5.8331,-5.8862,-5.7876,-5.7611,-5.7725,-5.7756,-5.7187,-6.2222,-6.2397,-6.2449,-6.2449,-6.25,-6.2705,-6.2755,-6.2654,-6.2755,-6.2805,-6.2805,-6.2805,-6.2805,-6.3025,-6.3686,-6.3613,-6.2915,-6.3649,-6.3613,-6.2915,-6.2805,-6.2805,-6.2805,-6.2805,-6.2805,-6.2842,-6.3062,-6.3099,-6.2915,-6.3099,-6.3025,-6.2842,-6.2805,-6.2805,-6.2805,-6.2805,-6.2658,-6.2475,-6.2438,-6.2034,-6.1349,-6.1275,-6.1213,-6.0956,-6.114,-6.1224,-6.104,-6.1403,-6.1495,-6.1246,-6.1542,-6.1468,-6.1143,-6.1439,-6.1735,-6.1772,-6.2048,-6.2242,-6.2324,-6.2599,-6.2798,-6.2693,-6.3035,-6.3258,-6.3115,-6.3003,-6.2785,-6.25,-6.2392,-6.2283,-6.1917,-6.1732,-6.1544,-6.1236,-6.098,-6.0823,-6.0825,-6.0336,-5.9659,-5.9097,-5.8905,-5.8902,-5.8902,-5.8902,-5.8945,-5.9101,-5.9178,-5.9325,-5.9472,-5.9545,-5.9719,-5.9786,-5.9719,-5.9616,-5.9753,-5.9786,-5.9753,-5.9786,-5.982,-5.9847,-5.9506,-5.9317,-5.9165,-5.8938,-5.8521,-5.8483,-5.8824,-5.9014,-5.9089,-5.9051,-5.8748,-5.8748,-5.8938,-5.8559,-5.7839,-6.2114,-6.2275,-6.2291,-6.2291,-6.2381,-6.2552,-6.2654,-6.2603,-6.2705,-6.2755,-6.2805,-6.2805,-6.2805,-6.2989,-6.3686,-6.3576,-6.2952,-6.3686,-6.3649,-6.2915,-6.2805,-6.2805,-6.2805,-6.2805,-6.2805,-6.2915,-6.3135,-6.3099,-6.2842,-6.3099,-6.3135,-6.2879,-6.2805,-6.2805,-6.2805,-6.2805,-6.2805,-6.2805,-6.2805,-6.2548,-6.2144,-6.2034,-6.1814,-6.1447,-6.1777,-6.2034,-6.2071,-6.2217,-6.2166,-6.1993,-6.1966,-6.1865,-6.1754,-6.2197,-6.2456,-6.2456,-6.2503,-6.2586,-6.2595,-6.2715,-6.2724,-6.2798,-6.3169,-6.3428,-6.3428,-6.3465,-6.3305,-6.3066,-6.2997,-6.2897,-6.2575,-6.2473,-6.2478,-6.2478,-6.1786,-6.1544,-6.147,-6.0986,-6.0385,-5.9905,-5.9487,-5.9218,-5.9144,-5.8809,-5.8777,-5.8865,-5.9025,-5.9103,-5.9253,-5.9327,-5.9472,-5.9616,-5.9581,-5.9581,-5.9685,-5.9685,-5.9613,-5.9685,-5.9791,-5.982,-5.9701,-5.9696,-5.9582,-5.9468,-5.9165,-5.9165,-5.9468,-5.9582,-5.9658,-5.9582,-5.943,-5.9279,-5.9127,-5.8862,-5.8369,-6.2005,-6.2005,-6.2168,-6.2222,-6.2222,-6.2344,-6.2449,-6.2552,-6.2603,-6.2654,-6.2755,-6.2755,-6.2755,-6.2938,-6.3525,-6.3415,-6.3062,-6.3503,-6.3539,-6.2989,-6.2805,-6.2805,-6.2805,-6.2805,-6.2879,-6.3099,-6.3576,-6.3576,-6.3282,-6.3539,-6.3649,-6.3062,-6.2915,-6.2879,-6.2989,-6.2915,-6.2989,-6.3025,-6.2952,-6.2915,-6.2768,-6.2732,-6.2732,-6.2658,-6.2695,-6.2732,-6.2695,-6.2695,-6.2451,-6.2008,-6.2056,-6.2361,-6.2925,-6.3147,-6.3073,-6.3073,-6.3147,-6.3158,-6.3194,-6.3084,-6.3168,-6.3131,-6.3205,-6.3194,-6.3279,-6.3336,-6.3345,-6.3317,-6.34,-6.3482,-6.3416,-6.3386,-6.3386,-6.3424,-6.2625,-6.2085,-6.1799,-6.164,-6.133,-6.1139,-6.0571,-5.9998,-5.9961,-5.9404,-5.9144,-5.9074,-5.9115,-5.9082,-5.9052,-5.9209,-5.9059,-5.9139,-5.9365,-5.9364,-5.9436,-5.9888,-5.9852,-5.9998,-6.0066,-5.9983,-5.9895,-5.9885,-5.9853,-5.9739,-5.9734,-5.9809,-5.9885,-5.9885,-5.9853,-5.9777,-5.9587,-5.943,-5.9279,-5.9057,-5.8981,-6.1895,-6.2005,-6.2168,-6.2168,-6.2114,-6.2328,-6.2344,-6.2291,-6.2397,-6.2449,-6.2537,-6.25,-6.2537,-6.2537,-6.2823,-6.2837,-6.2764,-6.3012,-6.3099,-6.2842,-6.2805,-6.2805,-6.2805,-6.2842,-6.3135,-6.3576,-6.3429,-6.3649,-6.4494,-6.3723,-6.3429,-6.3723,-6.3135,-6.3172,-6.3649,-6.3686,-6.3759,-6.3759,-6.3759,-6.3429,-6.2915,-6.2842,-6.2805,-6.2805,-6.2805,-6.2805,-6.2805,-6.2805,-6.2768,-6.2598,-6.2524,-6.2684,-6.2867,-6.2904,-6.2904,-6.2904,-6.3002,-6.3051,-6.3051,-6.3147,-6.3194,-6.3194,-6.3184,-6.3194,-6.3194,-6.3194,-6.3242,-6.3242,-6.3326,-6.3326,-6.3336,-6.3317,-6.3371,-6.3416,-6.3126,-6.2798,-6.2395,-6.2166,-6.198,-6.1385,-6.1081,-6.089,-6.0778,-6.0593,-6.0412,-6.0333,-6.0078,-5.9748,-5.9678,-5.9505,-5.9472,-5.9213,-5.9253,-5.9178,-5.9328,-5.9852,-6.0229,-6.0416,-6.0414,-6.0368,-6.0131,-5.9853,-5.982,-5.982,-5.9744,-5.982,-5.982,-5.9857,-5.9857,-5.9857,-5.9748,-5.9592,-5.9635,-5.9559,-5.9517,-6.184,-6.1895,-6.206,-6.206,-6.2041,-6.2168,-6.2222,-6.2222,-6.2238,-6.2344,-6.2433,-6.2433,-6.2433,-6.2433,-6.2552,-6.2552,-6.2552,-6.2705,-6.2755,-6.2705,-6.2705,-6.2755,-6.2755,-6.2842,-6.3099,-6.3503,-6.3466,-6.3906,-6.4567,-6.409,-6.4053,-6.3943,-6.3613,-6.3466,-6.3429,-6.3943,-6.409,-6.4127,-6.4347,-6.42,-6.3429,-6.3356,-6.3099,-6.2915,-6.2805,-6.2805,-6.2805,-6.2805,-6.2805,-6.2805,-6.2805,-6.2805,-6.2805,-6.2805,-6.2805,-6.2805,-6.2855,-6.2904,-6.2904,-6.3002,-6.3002,-6.3002,-6.3002,-6.3002,-6.3051,-6.3051,-6.3099,-6.3099,-6.3147,-6.3194,-6.3194,-6.3187,-6.3224,-6.3326,-6.3382,-6.3288,-6.2917,-6.2933,-6.271,-6.2301,-6.193,-6.1707,-6.1707,-6.1453,-6.1267,-6.1076,-6.0784,-6.0641,-6.0576,-6.0255,-5.9998,-5.9925,-5.9962,-6.0112,-6.0113,-6.0489,-6.0602,-6.0792,-6.0867,-6.0825,-6.0408,-6.0055,-5.9942,-5.9908,-5.9828,-5.9862,-6.0013,-6.0013,-5.9824,-5.9791,-5.9791,-5.9757,-5.9757,-5.9911,-5.987,-6.1784,-6.184,-6.1987,-6.2041,-6.2041,-6.2005,-6.206,-6.2168,-6.2168,-6.2238,-6.2328,-6.2344,-6.2328,-6.2381,-6.2631,-6.2683,-6.2579,-6.3042,-6.3057,-6.3042,-6.3079,-6.3079,-6.3254,-6.3122,-6.3195,-6.3503,-6.3943,-6.442,-6.4897,-6.5228,-6.4934,-6.4567,-6.4273,-6.3759,-6.3686,-6.398,-6.4127,-6.4237,-6.4824,-6.4604,-6.3906,-6.3796,-6.3576,-6.2915,-6.2805,-6.2952,-6.2952,-6.2915,-6.2805,-6.2805,-6.2805,-6.2805,-6.2805,-6.2805,-6.2805,-6.2805,-6.2805,-6.2805,-6.2805,-6.2805,-6.2805,-6.2805,-6.2805,-6.2805,-6.2855,-6.2904,-6.3002,-6.3002,-6.3099,-6.3099,-6.3099,-6.3121,-6.3147,-6.3161,-6.3194,-6.3299,-6.3474,-6.3557,-6.3557,-6.3557,-6.2851,-6.2554,-6.2294,-6.1923,-6.1521,-6.1997,-6.167,-6.1416,-6.1273,-6.0943,-6.0878,-6.092,-6.1073,-6.1341,-6.1235,-6.1164,-6.1166,-6.1167,-6.1319,-6.1242,-6.0717,-6.0376,-6.0146,-6.0068,-6.0361,-6.0471,-6.0475,-6.0324,-5.9983,-6.0025,-6.0141,-5.988,-5.9691,-5.9993,-6.0103,-6.184,-6.195,-6.2005,-6.2041,-6.2041,-6.2041,-6.2041,-6.206,-6.206,-6.2132,-6.2096,-6.2096,-6.2187,-6.2223,-6.293,-6.3221,-6.3293,-6.3892,-6.4347,-6.4347,-6.4347,-6.4347,-6.4217,-6.3795,-6.4024,-6.4479,-6.4897,-6.5632,-6.6366,-6.5778,-6.5558,-6.5778,-6.4824,-6.431,-6.4714,-6.4751,-6.4677,-6.4383,-6.4934,-6.464,-6.3796,-6.398,-6.3833,-6.3062,-6.2915,-6.3209,-6.3539,-6.3172,-6.2842,-6.2805,-6.2805,-6.2805,-6.2805,-6.2805,-6.2805,-6.2842,-6.2842,-6.2842,-6.2842,-6.2915,-6.2842,-6.2989,-6.3025,-6.2805,-6.2805,-6.2915,-6.2928,-6.2892,-6.2855,-6.2978,-6.3015,-6.2941,-6.3064,-6.3149,-6.3136,-6.3121,-6.3242,-6.3289,-6.3326,-6.3252,-6.3141,-6.2983,-6.303,-6.2946,-6.2769,-6.2843,-6.2546,-6.2227,-6.193,-6.1663,-6.1713,-6.1837,-6.1842,-6.1997,-6.1927,-6.1786,-6.1756,-6.1684,-6.1728,-6.1955,-6.1466,-6.128,-6.1244,-6.1128,-6.108,-6.1082,-6.0938,-6.0519,-6.0179,-6.0335,-6.0525,-6.0337,-6.0225,-6.0338,-6.0414,-6.1784,-6.1895,-6.195,-6.2041,-6.2078,-6.2404,-6.2367,-6.215,-6.244,-6.2549,-6.2585,-6.2549,-6.2766,-6.3164,-6.3674,-6.3911,-6.3984,-6.4421,-6.4749,-6.4713,-6.4713,-6.4749,-6.4767,-6.4402,-6.4437,-6.4741,-6.5417,-6.6166,-6.6329,-6.6549,-6.6476,-6.6476,-6.5558,-6.5264,-6.5301,-6.5338,-6.5338,-6.5375,-6.5595,-6.5375,-6.4787,-6.4934,-6.4824,-6.4016,-6.3649,-6.3686,-6.3943,-6.3246,-6.2879,-6.2805,-6.2842,-6.2842,-6.2842,-6.2805,-6.2842,-6.2842,-6.3246,-6.3392,-6.3429,-6.3759,-6.4016,-6.3957,-6.3943,-6.398,-6.398,-6.3943,-6.398,-6.3906,-6.3686,-6.3392,-6.3406,-6.386,-6.3836,-6.3555,-6.353,-6.3382,-6.3113,-6.3136,-6.3184,-6.3231,-6.3194,-6.3158,-6.3242,-6.3336,-6.3299,-6.303,-6.2993,-6.2715,-6.2752,-6.253,-6.2501,-6.2554,-6.2524,-6.2531,-6.2494,-6.2433,-6.2369,-6.2263,-6.2193,-6.2529,-6.2598,-6.2537,-6.2588,-6.2183,-6.1657,-6.1469,-6.1281,-6.0829,-6.0714,-6.1055,-6.1168,-6.098,-6.0943,-6.1131,-6.1168,-6.1595,-6.1708,-6.1893,-6.2021,-6.2129,-6.2908,-6.2908,-6.2474,-6.3,-6.3326,-6.3382,-6.3382,-6.3708,-6.4251,-6.4617,-6.4726,-6.4851,-6.4944,-6.5238,-6.5294,-6.5274,-6.5274,-6.5258,-6.5149,-6.484,-6.4327,-6.544,-6.5933,-6.626,-6.679,-6.7029,-6.6626,-6.637,-6.5966,-6.549,-6.5417,-6.5527,-6.5836,-6.6129,-6.6129,-6.6035,-6.6145,-6.5962,-6.5705,-6.4457,-6.4163,-6.409,-6.3466,-6.2879,-6.2989,-6.3025,-6.3062,-6.3172,-6.3025,-6.3135,-6.3209,-6.3943,-6.4237,-6.4347,-6.4787,-6.5118,-6.5331,-6.5279,-6.5228,-6.5206,-6.5044,-6.5044,-6.4934,-6.464,-6.4324,-6.4338,-6.4646,-6.4756,-6.4462,-6.4315,-6.3934,-6.3443,-6.3358,-6.3567,-6.3136,-6.3088,-6.3124,-6.3246,-6.3368,-6.3331,-6.3294,-6.3258,-6.3268,-6.3305,-6.3279,-6.315,-6.3002,-6.2863,-6.2826,-6.2835,-6.2798,-6.274,-6.2717,-6.265,-6.2866,-6.3267,-6.3177,-6.2939,-6.25,-6.2096,-6.2024,-6.1876,-6.158,-6.1618,-6.188,-6.188,-6.1692,-6.173,-6.1881,-6.1806,-6.1211,-6.1283,-6.1891,-6.2165,-6.2308,-6.3143,-6.3454,-6.3441,-6.3747,-6.395,-6.3971,-6.4122,-6.4287,-6.4613,-6.5156,-6.5736,-6.6062,-6.6192,-6.6265,-6.6323,-6.6265,-6.6323,-6.625,-6.6032,-6.5908,-6.5694,-6.5915,-6.6172,-6.6665,-6.712,-6.7213,-6.6957,-6.6519,-6.608,-6.6007,-6.5843,-6.5696,-6.575,-6.6096,-6.606,-6.6019,-6.6203,-6.6533,-6.6533,-6.5029,-6.4552,-6.4552,-6.3723,-6.3135,-6.3759,-6.387,-6.4237,-6.453,-6.4237,-6.4273,-6.4604,-6.4934,-6.5118,-6.5154,-6.5301,-6.5338,-6.5316,-6.55,-6.5448,-6.5448,-6.5411,-6.5558,-6.5411,-6.5338,-6.5118,-6.5081,-6.5404,-6.5294,-6.5096,-6.5073,-6.4977,-6.4839,-6.4581,-6.4141,-6.3309,-6.3125,-6.3235,-6.3616,-6.3849,-6.3849,-6.3898,-6.3825,-6.3763,-6.3689,-6.359,-6.3453,-6.3268,-6.3168,-6.3168,-6.3131,-6.3094,-6.3067,-6.3002,-6.2974,-6.2983,-6.3234,-6.3325,-6.3163,-6.2768,-6.2753,-6.2882,-6.2657,-6.2358,-6.2317,-6.2463,-6.2429,-6.2395,-6.2436,-6.2476,-6.2366,-6.1248,-6.17,-6.2057,-6.251,-6.3035,-6.3811,-6.404,-6.3849,-6.4327,-6.4626,-6.4744,-6.4838,-6.5207,-6.5627,-6.5989,-6.6496,-6.6714,-6.6822,-6.6822,-6.6822,-6.6822,-6.6822,-6.6714,-6.6424,-6.6374,-6.6141,-6.6017,-6.6078,-6.659,-6.7028,-6.7174,-6.7101,-6.6773,-6.6627,-6.6517,-6.6189,-6.608,-6.608,-6.6117,-6.6153,-6.6189,-6.6372,-6.6372,-6.5786,-6.5274,-6.4762,-6.4762,-6.4469,-6.4067,-6.4396,-6.4522,-6.5014,-6.5417,-6.5543,-6.5338,-6.5411,-6.5705,-6.5925,-6.6035,-6.6256,-6.6586,-6.6602,-6.6476,-6.6549,-6.6549,-6.6586,-6.6292,-6.6109,-6.6402,-6.6329,-6.6014,-6.6271,-6.6308,-6.6014,-6.5867,-6.572,-6.5338,-6.4919,-6.4259,-6.3635,-6.4016,-6.4273,-6.4494,-6.4618,-6.4559,-6.4448,-6.4352,-6.4204,-6.4107,-6.4119,-6.4009,-6.4021,-6.3947,-6.3811,-6.3737,-6.3578,-6.3541,-6.3516,-6.3453,-6.3416,-6.3316,-6.34,-6.3373,-6.3206,-6.3319,-6.3387,-6.3258,-6.2866,-6.2991,-6.2997,-6.3041,-6.3009,-6.3019,-6.3027,-6.2919,-6.1388,-6.2044,-6.2284,-6.2773,-6.3538,-6.4448,-6.4546,-6.4373,-6.4961,-6.5334,-6.5418,-6.5514,-6.5935,-6.6523,-6.6691,-6.6727,-6.6822,-6.6822,-6.6822,-6.6822,-6.6822,-6.6822,-6.6605,-6.6351,-6.6207,-6.6533,-6.6301,-6.5924,-6.6385,-6.6842,-6.7061,-6.7097,-6.7097,-6.7097,-6.6915,-6.6458,-6.666,-6.6717,-6.6607,-6.6571,-6.6663,-6.6481,-6.5825,-6.5095,-6.5022,-6.5059,-6.5132,-6.4821,-6.4803,-6.5004,-6.5204,-6.555,-6.6244,-6.6536,-6.6333,-6.593,-6.6349,-6.6659,-6.688,-6.7173,-6.743,-6.7393,-6.7577,-6.765,-6.7577,-6.7357,-6.732,-6.699,-6.7136,-6.7357,-6.6932,-6.73,-6.7136,-6.6606,-6.6333,-6.6133,-6.5291,-6.4778,-6.4558,-6.4412,-6.494,-6.4867,-6.472,-6.4207,-6.3892,-6.4412,-6.4391,-6.4552,-6.4494,-6.4802,-6.4853,-6.494,-6.488,-6.4635,-6.4451,-6.4144,-6.4144,-6.418,-6.407,-6.4046,-6.3751,-6.3541,-6.3479,-6.3416,-6.3299,-6.3371,-6.3382,-6.3326,-6.3206,-6.326,-6.349,-6.358,-6.3326,-6.3376,-6.3382,-6.1432,-6.164,-6.2543,-6.2996,-6.3308,-6.4418,-6.4937,-6.4928,-6.5482,-6.5878,-6.577,-6.6028,-6.6125,-6.633,-6.6452,-6.6608,-6.6727,-6.6727,-6.6727,-6.6727,-6.6763,-6.6822,-6.6822,-6.6786,-6.6605,-6.6822,-6.6714,-6.6677,-6.6627,-6.6831,-6.6845,-6.6903,-6.6903,-6.6845,-6.6867,-6.6831,-6.6831,-6.6983,-6.6874,-6.6604,-6.6316,-6.6607,-6.6408,-6.5934,-6.5696,-6.5733,-6.5624,-6.5296,-6.5259,-6.5769,-6.5897,-6.6262,-6.6882,-6.712,-6.7084,-6.7067,-6.7305,-6.754,-6.7504,-6.7523,-6.765,-6.765,-6.7687,-6.7687,-6.7687,-6.7687,-6.7614,-6.7614,-6.765,-6.7614,-6.743,-6.7577,-6.7193,-6.6755,-6.6408,-6.5898,-6.5204,-6.5184,-6.4892,-6.4692,-6.5075,-6.4599,-6.4234,-6.3664,-6.3262,-6.3925,-6.4493,-6.4746,-6.5071,-6.549,-6.5742,-6.5867,-6.5625,-6.5382,-6.5124,-6.4867,-6.4669,-6.4692,-6.4618,-6.4559,-6.4251,-6.392,-6.359,-6.3542,-6.3431,-6.3379,-6.3357,-6.332,-6.3268,-6.3289,-6.3336,-6.3382,-6.3391,-6.3557,-6.3691,-6.18,-6.2229,-6.2788,-6.3311,-6.3869,-6.4428,-6.4706,-6.4843,-6.5078,-6.5278,-6.5409,-6.5474,-6.5668,-6.5922,-6.6048,-6.6207,-6.6488,-6.6548,-6.6548,-6.6608,-6.6668,-6.6668,-6.6822,-6.6822,-6.6822,-6.7003,-6.7184,-6.7112,-6.7003,-6.6858,-6.6822,-6.6822,-6.6822,-6.6822,-6.6895,-6.7293,-6.7207,-6.699,-6.6831,-6.6468,-6.6053,-6.6074,-6.5965,-6.5202,-6.5602,-6.582,-6.582,-6.6017,-6.6017,-6.6474,-6.6474,-6.664,-6.6988,-6.7154,-6.7174,-6.7174,-6.7286,-6.7378,-6.7378,-6.7433,-6.7451,-6.7486,-6.7523,-6.7633,-6.7687,-6.7687,-6.7633,-6.7579,-6.7579,-6.7542,-6.7469,-6.745,-6.6919,-6.6518,-6.6391,-6.6062,-6.5606,-6.5606,-6.546,-6.5314,-6.5095,-6.4658,-6.4439,-6.4475,-6.4529,-6.5132,-6.5679,-6.5916,-6.6299,-6.6736,-6.6826,-6.6806,-6.6439,-6.5999,-6.5794,-6.5537,-6.5118,-6.5066,-6.4977,-6.4867,-6.4652,-6.4359,-6.4155,-6.3899,-6.3804,-6.3672,-6.3503,-6.3248,-6.3088,-6.3099,-6.3099,-6.3147,-6.3194,-6.3326,-6.3419,-6.185,-6.2534,-6.2922,-6.3552,-6.4182,-6.4252,-6.4393,-6.4568,-6.4706,-6.4775,-6.4808,-6.4876,-6.511,-6.5474,-6.5668,-6.5859,-6.6146,-6.6269,-6.633,-6.6391,-6.6548,-6.6753,-6.6885,-6.6944,-6.704,-6.7366,-6.7692,-6.78,-6.7655,-6.7438,-6.7366,-6.6858,-6.6822,-6.6822,-6.7003,-6.7474,-6.7655,-6.7257,-6.6931,-6.6533,-6.6098,-6.5953,-6.5663,-6.5446,-6.5555,-6.5881,-6.5989,-6.6351,-6.6714,-6.6809,-6.6831,-6.6889,-6.6961,-6.6983,-6.704,-6.704,-6.7097,-6.7097,-6.7154,-6.721,-6.7213,-6.7287,-6.7287,-6.747,-6.7524,-6.7579,-6.7542,-6.7414,-6.7414,-6.7378,-6.7268,-6.7213,-6.6793,-6.65,-6.6352,-6.6134,-6.5879,-6.5641,-6.5386,-6.5058,-6.4913,-6.5058,-6.5022,-6.5495,-6.5932,-6.6478,-6.6899,-6.7028,-6.7213,-6.7451,-6.7396,-6.7212,-6.7136,-6.668,-6.6426,-6.6133,-6.5767,-6.5547,-6.5457,-6.533,-6.5277,-6.5113,-6.4894,-6.4639,-6.4293,-6.4181,-6.4103,-6.3452,-6.2867,-6.2855,-6.2805,-6.2855,-6.2953,-6.3088,-6.3136,-6.1223,-6.205,-6.289,-6.3422,-6.3747,-6.4002,-6.4111,-6.4182,-6.4498,-6.4637,-6.4637,-6.4706,-6.474,-6.5011,-6.5278,-6.5474,-6.5732,-6.6146,-6.6217,-6.6341,-6.6427,-6.6787,-6.7029,-6.7222,-6.7451,-6.8452,-6.8561,-6.8633,-6.8814,-6.8742,-6.8017,-6.704,-6.7257,-6.6967,-6.7076,-6.7619,-6.8054,-6.7764,-6.7438,-6.7112,-6.6895,-6.6858,-6.675,-6.6714,-6.6677,-6.6714,-6.675,-6.6786,-6.6822,-6.6822,-6.6786,-6.6845,-6.6845,-6.6845,-6.6903,-6.6903,-6.6903,-6.6903,-6.6903,-6.704,-6.7154,-6.7174,-6.723,-6.7266,-6.7322,-6.7266,-6.7266,-6.7266,-6.721,-6.721,-6.7174,-6.7101,-6.6717,-6.6333,-6.6131,-6.5912,-6.5658,-6.542,-6.5165,-6.4766,-6.4911,-6.5347,-6.5472,-6.5944,-6.6053,-6.6525,-6.6619,-6.6749,-6.7137,-6.7378,-6.7433,-6.736,-6.756,-6.7359,-6.714,-6.6847,-6.6573,-6.65,-6.6446,-6.6299,-6.6117,-6.5953,-6.5677,-6.5277,-6.4986,-6.4822,-6.4548,-6.3941,-6.3298,-6.272,-6.261,-6.313,-6.3108,-6.3085,-6.3025,-6.0125,-6.0758,-6.1513,-6.2518,-6.36,-6.3712,-6.3785,-6.3785,-6.393,-6.4002,-6.4002,-6.4002,-6.4145,-6.4393,-6.4533,-6.4808,-6.5078,-6.5212,-6.5627,-6.5835,-6.5966,-6.6268,-6.671,-6.7249,-6.7472,-6.8378,-6.8898,-6.9213,-6.914,-6.9684,-6.9285,-6.8561,-6.8271,-6.7909,-6.7945,-6.7909,-6.8235,-6.8597,-6.8452,-6.8271,-6.8271,-6.8271,-6.8271,-6.8271,-6.7692,-6.7583,-6.7474,-6.7003,-6.6895,-6.6822,-6.6822,-6.6822,-6.6822,-6.6822,-6.6822,-6.6822,-6.6822,-6.6822,-6.6822,-6.6903,-6.7019,-6.704,-6.7061,-6.7154,-6.7227,-6.7247,-6.7154,-6.7097,-6.7149,-6.7258,-6.6998,-6.6925,-6.6707,-6.6178,-6.5924,-6.5836,-6.5727,-6.569,-6.569,-6.5618,-6.5851,-6.6192,-6.6301,-6.641,-6.6388,-6.6424,-6.6504,-6.6562,-6.6952,-6.7303,-6.7322,-6.7322,-6.747,-6.7414,-6.721,-6.7266,-6.7322,-6.7303,-6.7247,-6.6955,-6.6571,-6.6583,-6.6286,-6.5944,-6.5545,-6.5291,-6.4911,-6.4367,-6.3838,-6.3292,-6.3418,-6.3799,-6.3633,-6.3195,-6.2954,-5.9306,-5.9867,-6.0453,-6.1593,-6.2875,-6.3151,-6.3255,-6.3289,-6.3496,-6.36,-6.36,-6.36,-6.3712,-6.393,-6.4111,-6.4252,-6.4533,-6.4741,-6.5267,-6.558,-6.5752,-6.6135,-6.6901,-6.7451,-6.7819,-6.8498,-6.9201,-6.9697,-7.0056,-7.0454,-7.0273,-7.0046,-6.9828,-6.9321,-6.8525,-6.8416,-6.8742,-6.9321,-6.9285,-6.9394,-6.943,-6.9213,-6.9321,-6.9176,-6.8525,-6.7945,-6.7692,-6.7221,-6.6858,-6.6822,-6.6822,-6.6822,-6.6822,-6.6822,-6.6822,-6.6822,-6.6822,-6.6822,-6.6822,-6.6822,-6.6845,-6.6961,-6.7324,-6.7346,-6.7346,-6.7528,-6.781,-6.7715,-6.7642,-6.7497,-6.7438,-6.7701,-6.7738,-6.7484,-6.707,-6.6946,-6.6743,-6.6671,-6.6613,-6.6613,-6.6794,-6.6722,-6.6664,-6.6664,-6.6605,-6.6605,-6.6685,-6.6743,-6.6852,-6.7134,-6.7247,-6.7303,-6.7303,-6.7247,-6.7097,-6.721,-6.721,-6.7154,-6.7134,-6.7076,-6.6852,-6.6845,-6.6569,-6.5939,-6.5649,-6.5605,-6.5337,-6.4928,-6.4439,-6.3948,-6.4094,-6.4294,-6.3675,-6.3202,-6.2927,-5.8934,-5.9621,-6.0045,-6.0668,-6.1427,-6.2186,-6.253,-6.2737,-6.3289,-6.36,-6.36,-6.36,-6.36,-6.3747,-6.393,-6.4109,-6.4319,-6.4603,-6.5198,-6.5794,-6.5935,-6.6884,-6.7482,-6.7939,-6.8179,-6.9697,-6.9971,-7.0195,-7.1023,-7.0987,-7.1051,-7.1178,-7.0951,-7.048,-6.9285,-6.9176,-6.9575,-7.0118,-6.9575,-6.9865,-7.0082,-6.9792,-6.9937,-6.9901,-6.914,-6.8488,-6.8307,-6.7692,-6.7293,-6.7076,-6.6944,-6.6872,-6.6763,-6.6727,-6.6727,-6.6727,-6.6727,-6.6727,-6.6786,-6.6822,-6.6727,-6.6836,-6.7234,-6.7668,-6.7836,-6.8172,-6.8595,-6.8306,-6.8461,-6.8728,-6.8887,-6.8958,-6.8754,-6.8585,-6.8077,-6.7679,-6.7438,-6.728,-6.7148,-6.6858,-6.6903,-6.6925,-6.6961,-6.6903,-6.6786,-6.6845,-6.6925,-6.6961,-6.6961,-6.7019,-6.7134,-6.719,-6.719,-6.7076,-6.7019,-6.7097,-6.7154,-6.704,-6.6961,-6.6961,-6.6903,-6.6845,-6.6424,-6.5917,-6.5917,-6.5967,-6.5844,-6.5591,-6.527,-6.4944,-6.4581,-6.438,-6.3727,-6.3311,-6.3148,-5.8627,-5.8937,-5.9254,-5.953,-5.9978,-6.1151,-6.1979,-6.2565,-6.322,-6.36,-6.36,-6.36,-6.36,-6.3673,-6.3816,-6.4062,-6.4443,-6.4581,-6.5214,-6.6468,-6.6229,-6.676,-6.7431,-6.7969,-6.8364,-6.928,-6.9661,-7.0186,-7.1074,-7.1081,-7.1211,-7.134,-7.1395,-7.0951,-7.0227,-6.9973,-7.0191,-7.0408,-7.0553,-7.0879,-7.106,-7.0842,-7.077,-7.1024,-7.0009,-6.9466,-6.9358,-6.8561,-6.8017,-6.7559,-6.7487,-6.7138,-6.6789,-6.6584,-6.6488,-6.6488,-6.6524,-6.6488,-6.6488,-6.6488,-6.6452,-6.6776,-6.7245,-6.7688,-6.7662,-6.8274,-6.8598,-6.8778,-6.8922,-6.8949,-6.8723,-6.879,-6.8656,-6.8634,-6.8283,-6.795,-6.776,-6.7559,-6.7427,-6.6921,-6.6727,-6.6845,-6.6786,-6.6786,-6.6727,-6.6836,-6.6895,-6.6939,-6.6961,-6.6961,-6.7076,-6.704,-6.7019,-6.6961,-6.6903,-6.7019,-6.7092,-6.7085,-6.6954,-6.6845,-6.6786,-6.699,-6.6605,-6.6243,-6.6315,-6.6388,-6.617,-6.6025,-6.6207,-6.6025,-6.5518,-6.512,-6.4742,-6.4235,-6.3764,-5.849,-5.8561,-5.8875,-5.9012,-5.9219,-6.0392,-6.1358,-6.2117,-6.2841,-6.322,-6.3255,-6.3462,-6.36,-6.3669,-6.391,-6.4117,-6.4703,-6.5048,-6.56,-6.6842,-6.6531,-6.7038,-6.7538,-6.7863,-6.8343,-6.8998,-6.946,-7.0061,-7.0682,-7.0714,-7.0949,-7.1211,-7.1404,-7.1178,-7.0842,-7.077,-7.077,-7.0951,-7.1132,-7.135,-7.1422,-7.1422,-7.1422,-7.1241,-7.077,-7.0299,-7.0154,-6.9647,-6.8959,-6.8367,-6.7872,-6.7486,-6.6931,-6.651,-6.6485,-6.6593,-6.6988,-6.7096,-6.7141,-6.7177,-6.7249,-6.7123,-6.7609,-6.7788,-6.8076,-6.8909,-6.934,-6.9448,-6.9268,-6.9333,-6.9325,-6.9327,-6.9245,-6.9281,-6.9024,-6.8694,-6.8399,-6.83,-6.7642,-6.7101,-6.6728,-6.6753,-6.6776,-6.6608,-6.6548,-6.6753,-6.6861,-6.6944,-6.699,-6.7012,-6.6939,-6.6903,-6.6867,-6.6845,-6.6786,-6.6786,-6.6931,-6.7089,-6.7053,-6.704,-6.7244,-6.7484,-6.7026,-6.6533,-6.6279,-6.6134,-6.6315,-6.6388,-6.6438,-6.6474,-6.622,-6.5953,-6.5663,-6.5084,-6.4468,-5.849,-5.8561,-5.8875,-5.9012,-5.915,-5.984,-6.0565,-6.1358,-6.2117,-6.2461,-6.2565,-6.3255,-6.3496,-6.3738,-6.4255,-6.4565,-6.4841,-6.5428,-6.6117,-6.6773,-6.6876,-6.7472,-6.7782,-6.8068,-6.8308,-6.8566,-6.8932,-6.9525,-7.0132,-7.0166,-7.0579,-7.1081,-7.1211,-7.1232,-7.1286,-7.1313,-7.1313,-7.135,-7.1386,-7.1494,-7.1494,-7.1494,-7.1494,-7.1313,-7.0951,-7.0661,-7.0408,-6.9973,-6.9379,-6.8848,-6.8244,-6.7796,-6.7302,-6.6736,-6.6988,-6.7393,-6.8111,-6.8091,-6.8099,-6.8027,-6.7998,-6.779,-6.8342,-6.8486,-6.8844,-6.9567,-7.0069,-7.0284,-7.0248,-7.0458,-7.0662,-7.0626,-7.056,-7.0315,-6.9992,-6.9699,-6.9304,-6.8794,-6.8031,-6.7456,-6.705,-6.6906,-6.7004,-6.6834,-6.704,-6.722,-6.74,-6.7425,-6.7403,-6.7005,-6.6897,-6.6727,-6.6668,-6.6668,-6.6668,-6.6608,-6.668,-6.6801,-6.7415,-6.7547,-6.7751,-6.7751,-6.7352,-6.6786,-6.6062,-6.5917,-6.6257,-6.6451,-6.6595,-6.6559,-6.6391,-6.6306,-6.5945,-6.5663,-6.5084,-5.8277,-5.8314,-5.8701,-5.884,-5.8944,-5.9219,-5.9806,-6.0565,-6.1323,-6.191,-6.2496,-6.2703,-6.3117,-6.36,-6.3807,-6.4255,-6.4841,-6.5428,-6.5842,-6.6428,-6.7152,-6.7359,-6.7601,-6.7807,-6.8215,-6.8551,-6.8781,-6.8932,-6.9452,-6.967,-7.0096,-7.0579,-7.0781,-7.1045,-7.1304,-7.1494,-7.1494,-7.1494,-7.1494,-7.1494,-7.1494,-7.1494,-7.1494,-7.135,-7.1277,-7.106,-7.0951,-7.0753,-7.0329,-6.9688,-6.8714,-6.8048,-6.7231,-6.7024,-6.7111,-6.779,-6.8112,-6.8219,-6.8153,-6.8189,-6.8296,-6.8444,-6.8827,-6.9011,-6.9332,-6.9868,-7.0582,-7.065,-7.065,-7.0682,-7.075,-7.0718,-7.0754,-7.0539,-7.0289,-7.0074,-6.9747,-6.9245,-6.8486,-6.7876,-6.7474,-6.7474,-6.7537,-6.7644,-6.7788,-6.7932,-6.7968,-6.7995,-6.7815,-6.7446,-6.722,-6.7029,-6.6704,-6.674,-6.6499,-6.6463,-6.6535,-6.6643,-6.7258,-6.7716,-6.78,-6.7692,-6.7523,-6.7053,-6.6378,-6.6234,-6.6355,-6.65,-6.6548,-6.6488,-6.6319,-6.6307,-6.6283,-6.5945,-6.5678,-5.8004,-5.8314,-5.8631,-5.884,-5.8909,-5.8944,-5.9323,-5.984,-6.053,-6.1289,-6.2013,-6.2358,-6.2875,-6.3565,-6.3945,-6.4358,-6.4738,-6.5462,-6.5911,-6.6221,-6.7083,-6.7187,-6.7325,-6.7635,-6.8172,-6.8397,-6.8551,-6.8628,-6.9008,-6.9379,-6.9742,-7.0096,-7.027,-7.0611,-7.0878,-7.111,-7.1304,-7.1304,-7.1368,-7.1494,-7.1494,-7.1494,-7.1494,-7.1494,-7.1494,-7.1494,-7.1494,-7.134,-7.0987,-7.0454,-6.9412,-6.8708,-6.8106,-6.8011,-6.8016,-6.8623,-6.9015,-6.9158,-6.9229,-6.9158,-6.9087,-6.9122,-6.9444,-6.9693,-6.9872,-7.0229,-7.0443,-7.0514,-7.0514,-7.0514,-7.0514,-7.0514,-7.0514,-7.0478,-7.0371,-7.03,-6.9975,-6.9582,-6.9041,-6.8398,-6.8213,-6.8242,-6.8278,-6.845,-6.845,-6.8314,-6.8284,-6.8392,-6.8242,-6.7948,-6.7824,-6.777,-6.7302,-6.6916,-6.6736,-6.6567,-6.6639,-6.6844,-6.7209,-6.7569,-6.7698,-6.7635,-6.7348,-6.7076,-6.6728,-6.6524,-6.638,-6.6355,-6.6391,-6.6269,-6.6207,-6.6197,-6.6186,-6.6103,-6.5911,-5.7494,-5.8388,-5.8701,-5.8909,-5.9012,-5.9012,-5.9047,-5.9081,-5.9806,-6.0565,-6.1358,-6.2048,-6.2772,-6.3531,-6.4048,-6.4324,-6.4669,-6.5221,-6.5428,-6.5773,-6.6497,-6.6704,-6.6807,-6.7532,-6.7817,-6.7911,-6.8162,-6.8397,-6.8628,-6.8932,-6.9231,-6.9525,-6.9742,-7.0026,-7.0339,-7.0781,-7.0979,-7.111,-7.1304,-7.1368,-7.1494,-7.1494,-7.1494,-7.1494,-7.1494,-7.1494,-7.1431,-7.134,-7.1211,-7.0793,-7.0165,-6.943,-6.9189,-6.9087,-6.9158,-6.9479,-6.9872,-7.0015,-7.0086,-7.0086,-7.0193,-7.0264,-7.0478,-7.0478,-7.0585,-7.0693,-7.0835,-7.0657,-7.0621,-7.0621,-7.0621,-7.055,-7.0514,-7.0514,-7.0443,-7.0407,-7.0229,-6.9975,-6.9618,-6.9118,-6.9011,-6.9041,-6.9041,-6.9149,-6.922,-6.8832,-6.8868,-6.9046,-6.8904,-6.8714,-6.8421,-6.8371,-6.7868,-6.7374,-6.7267,-6.7132,-6.7052,-6.7151,-6.7384,-6.7707,-6.8012,-6.7705,-6.7218,-6.6899,-6.6535,-6.6402,-6.6269,-6.6269,-6.6207,-6.6083,-6.6021,-6.6083,-6.611,-6.61,-6.6125,-5.6535,-5.7494,-5.8425,-5.8909,-5.9012,-5.9012,-5.9012,-5.9012,-5.9185,-6.0082,-6.1151,-6.1565,-6.2324,-6.3462,-6.3703,-6.3876,-6.4117,-6.46,-6.4565,-6.4876,-6.5531,-6.5979,-6.5773,-6.6842,-6.7256,-6.7463,-6.7704,-6.8162,-6.8319,-6.8474,-6.8705,-6.9083,-6.9305,-6.9598,-6.992,-7.0339,-7.0647,-7.0847,-7.1189,-7.1448,-7.1639,-7.1567,-7.1494,-7.1531,-7.1531,-7.1603,-7.154,-7.1448,-7.1348,-7.1067,-7.0159,-6.9573,-6.9301,-6.9337,-6.9658,-7.0122,-7.0371,-7.0514,-7.0621,-7.0657,-7.0693,-7.0657,-7.0693,-7.0978,-7.1156,-7.1299,-7.1264,-7.1014,-7.08,-7.08,-7.0728,-7.0657,-7.0585,-7.0585,-7.055,-7.055,-7.055,-7.03,-7.005,-6.9943,-6.9836,-6.98,-6.9765,-6.9836,-6.9943,-6.9979,-7.005,-7.0086,-6.9979,-6.9761,-6.9046,-6.8857,-6.8291,-6.7933,-6.7862,-6.7647,-6.7533,-6.7461,-6.7697,-6.7955,-6.8249,-6.7969,-6.7611,-6.6765,-6.6305,-6.6351,-6.6263,-6.6083,-6.6021,-6.5895,-6.5895,-6.5958,-6.5958,-6.5922,-6.6048,-5.5788,-5.6745,-5.7809,-5.86,-5.8978,-5.9012,-5.9012,-5.9012,-5.9012,-5.9668,-6.0703,-6.0909,-6.1668,-6.2944,-6.3117,-6.3427,-6.36,-6.3979,-6.4014,-6.4152,-6.4669,-6.5255,-6.5704,-6.6359,-6.7152,-6.7532,-6.7807,-6.8083,-6.8083,-6.8162,-6.8397,-6.8628,-6.8857,-6.9048,-6.949,-6.9742,-7.0166,-7.0543,-7.1068,-7.1477,-7.1829,-7.1784,-7.1567,-7.1531,-7.182,-7.1929,-7.2155,-7.2199,-7.2358,-7.2076,-7.1411,-7.0596,-7.0284,-7.011,-7.0221,-7.0404,-7.0618,-7.0657,-7.0871,-7.1014,-7.1121,-7.1264,-7.1478,-7.1977,-7.2191,-7.2298,-7.212,-7.1834,-7.1371,-7.1299,-7.1297,-7.1225,-7.1156,-7.1156,-7.1118,-7.1047,-7.0797,-7.0407,-7.03,-7.0264,-7.0229,-7.0229,-7.0193,-7.0193,-7.0264,-7.0264,-7.0478,-7.0478,-7.0514,-7.0514,-6.9872,-6.9372,-6.8873,-6.8623,-6.8587,-6.8332,-6.7939,-6.7939,-6.8076,-6.7725,-6.7761,-6.8148,-6.8034,-6.7203,-6.6693,-6.663,-6.6531,-6.6173,-6.5931,-6.5867,-6.5867,-6.5804,-6.5804,-6.5804,-6.5931,-5.5076,-5.6167,-5.7227,-5.8221,-5.8944,-5.9012,-5.9012,-5.9012,-5.9012,-5.9461,-6.0185,-6.0254,-6.1116,-6.2048,-6.2668,-6.3117,-6.3462,-6.3703,-6.3634,-6.3807,-6.4393,-6.491,-6.5669,-6.6497,-6.7256,-6.7773,-6.8049,-6.8083,-6.8083,-6.8083,-6.8083,-6.8162,-6.8241,-6.8397,-6.8551,-6.8932,-6.9525,-7.0275,-7.0945,-7.178,-7.2004,-7.2183,-7.2074,-7.2183,-7.2436,-7.2798,-7.306,-7.3284,-7.3652,-7.3194,-7.2515,-7.1734,-7.1098,-7.0714,-7.0575,-7.065,-7.0582,-7.0907,-7.1335,-7.1513,-7.1977,-7.2441,-7.2727,-7.2905,-7.3048,-7.3083,-7.2905,-7.2655,-7.2227,-7.1942,-7.194,-7.1868,-7.1799,-7.1761,-7.1687,-7.1473,-7.1047,-7.0621,-7.0514,-7.0514,-7.0514,-7.0514,-7.0514,-7.0514,-7.0514,-7.0514,-7.0514,-7.0514,-7.0514,-7.0514,-7.0229,-6.9943,-6.9693,-6.9515,-6.9444,-6.9158,-6.873,-6.8658,-6.8658,-6.7772,-6.7344,-6.7909,-6.8118,-6.7761,-6.7332,-6.6939,-6.651,-6.6117,-6.5946,-6.5804,-6.5804,-6.5804,-6.5804,-6.5804,-6.5804,-5.4703,-5.6304,-5.7295,-5.8221,-5.8944,-5.9012,-5.9012,-5.9012,-5.9012,-5.9461,-6.0013,-6.0323,-6.1047,-6.2496,-6.3151,-6.3531,-6.3531,-6.36,-6.36,-6.3738,-6.4255,-6.4669,-6.5359,-6.6428,-6.7325,-6.7807,-6.8083,-6.8083,-6.8083,-6.8083,-6.8118,-6.8152,-6.8319,-6.8397,-6.8509,-6.8886,-6.9363,-7.0018,-7.0523,-7.1158,-7.2243,-7.2617,-7.3385,-7.3559,-7.3595,-7.3704,-7.3776,-7.3747,-7.3819,-7.3537,-7.2834,-7.213,-7.1601,-7.1108,-7.0829,-7.0793,-7.069,-7.1192,-7.1656,-7.1977,-7.2477,-7.3048,-7.3262,-7.3405,-7.3583,-7.3869,-7.3726,-7.3726,-7.3369,-7.3012,-7.2905,-7.2656,-7.2584,-7.2404,-7.2259,-7.1833,-7.1406,-7.0942,-7.0621,-7.0585,-7.0514,-7.0514,-7.0514,-7.0514,-7.0514,-7.0514,-7.0514,-7.0514,-7.0514,-7.0514,-7.0514,-7.0407,-7.0264,-7.0336,-7.0264,-7.0086,-6.98,-6.9626,-6.934,-6.8663,-6.8097,-6.7986,-6.7986,-6.823,-6.7588,-6.6981,-6.6553,-6.641,-6.5982,-6.5875,-6.5804,-6.5804,-6.5804,-6.5804,-6.5804]}]]